<?xml version='1.0' encoding='UTF-8'?><gpx version="1.1" creator="JPX - https://github.com/jenetics/jpx" xmlns="http://www.topografix.com/GPX/1/1"><trk><trkseg><trkpt lat="45.3673383" lon="7.61582"><ele>591.0</ele><time>2026-04-25T08:43:52.742Z</time></trkpt><trkpt lat="45.3673283" lon="7.615935"><ele>591.0</ele><time>2026-04-25T08:44:07.746Z</time></trkpt><trkpt lat="45.3673483" lon="7.6160383"><ele>591.0</ele><time>2026-04-25T08:44:10.739Z</time></trkpt><trkpt lat="45.3673717" lon="7.61616"><ele>591.0</ele><time>2026-04-25T08:44:13.744Z</time></trkpt><trkpt lat="45.3673933" lon="7.61625"><ele>591.0</ele><time>2026-04-25T08:44:15.739Z</time></trkpt><trkpt lat="45.3674217" lon="7.6163383"><ele>591.0</ele><time>2026-04-25T08:44:17.742Z</time></trkpt><trkpt lat="45.3674567" lon="7.61643"><ele>591.5</ele><time>2026-04-25T08:44:19.74Z</time></trkpt><trkpt lat="45.3674967" lon="7.61653"><ele>592.0</ele><time>2026-04-25T08:44:21.74Z</time></trkpt><trkpt lat="45.3675383" lon="7.61663"><ele>592.5</ele><time>2026-04-25T08:44:23.742Z</time></trkpt><trkpt lat="45.36758" lon="7.6167333"><ele>593.0</ele><time>2026-04-25T08:44:25.741Z</time></trkpt><trkpt lat="45.3676267" lon="7.616835"><ele>593.5</ele><time>2026-04-25T08:44:27.737Z</time></trkpt><trkpt lat="45.3676867" lon="7.6169083"><ele>594.0</ele><time>2026-04-25T08:44:29.747Z</time></trkpt><trkpt lat="45.367775" lon="7.6168867"><ele>594.0</ele><time>2026-04-25T08:44:31.741Z</time></trkpt><trkpt lat="45.3678683" lon="7.6168317"><ele>594.0</ele><time>2026-04-25T08:44:33.738Z</time></trkpt><trkpt lat="45.3679617" lon="7.61678"><ele>594.0</ele><time>2026-04-25T08:44:35.739Z</time></trkpt><trkpt lat="45.3680617" lon="7.6167483"><ele>594.0</ele><time>2026-04-25T08:44:37.742Z</time></trkpt><trkpt lat="45.3681533" lon="7.6167283"><ele>594.0</ele><time>2026-04-25T08:44:39.737Z</time></trkpt><trkpt lat="45.3682617" lon="7.6166933"><ele>593.25</ele><time>2026-04-25T08:44:41.741Z</time></trkpt><trkpt lat="45.3683783" lon="7.61666"><ele>592.5</ele><time>2026-04-25T08:44:43.744Z</time></trkpt><trkpt lat="45.368495" lon="7.616605"><ele>591.75</ele><time>2026-04-25T08:44:45.74Z</time></trkpt><trkpt lat="45.368615" lon="7.616565"><ele>591.0</ele><time>2026-04-25T08:44:47.743Z</time></trkpt><trkpt lat="45.3687333" lon="7.61656"><ele>591.0</ele><time>2026-04-25T08:44:49.741Z</time></trkpt><trkpt lat="45.36885" lon="7.6166233"><ele>591.0</ele><time>2026-04-25T08:44:51.742Z</time></trkpt><trkpt lat="45.3689067" lon="7.6166733"><ele>591.0</ele><time>2026-04-25T08:44:52.74Z</time></trkpt><trkpt lat="45.36897" lon="7.6167417"><ele>591.0</ele><time>2026-04-25T08:44:53.743Z</time></trkpt><trkpt lat="45.369035" lon="7.616825"><ele>591.0</ele><time>2026-04-25T08:44:54.74Z</time></trkpt><trkpt lat="45.3690967" lon="7.6169117"><ele>591.0</ele><time>2026-04-25T08:44:55.743Z</time></trkpt><trkpt lat="45.36916" lon="7.6170033"><ele>590.8333333333334</ele><time>2026-04-25T08:44:56.743Z</time></trkpt><trkpt lat="45.36922" lon="7.6171"><ele>590.6666666666666</ele><time>2026-04-25T08:44:57.74Z</time></trkpt><trkpt lat="45.36928" lon="7.6171933"><ele>590.5</ele><time>2026-04-25T08:44:58.741Z</time></trkpt><trkpt lat="45.3693417" lon="7.61728"><ele>590.3333333333333</ele><time>2026-04-25T08:44:59.741Z</time></trkpt><trkpt lat="45.3693983" lon="7.6173517"><ele>590.1666666666666</ele><time>2026-04-25T08:45:00.742Z</time></trkpt><trkpt lat="45.369455" lon="7.6174117"><ele>590.0</ele><time>2026-04-25T08:45:01.739Z</time></trkpt><trkpt lat="45.3695317" lon="7.6174483"><ele>590.0</ele><time>2026-04-25T08:45:02.745Z</time></trkpt><trkpt lat="45.3696117" lon="7.6174333"><ele>590.0</ele><time>2026-04-25T08:45:03.743Z</time></trkpt><trkpt lat="45.3696667" lon="7.6173617"><ele>590.0</ele><time>2026-04-25T08:45:04.74Z</time></trkpt><trkpt lat="45.3696817" lon="7.617265"><ele>590.0</ele><time>2026-04-25T08:45:05.742Z</time></trkpt><trkpt lat="45.3696417" lon="7.6170967"><ele>590.0</ele><time>2026-04-25T08:45:07.743Z</time></trkpt><trkpt lat="45.369605" lon="7.6170183"><ele>590.0</ele><time>2026-04-25T08:45:08.743Z</time></trkpt><trkpt lat="45.36957" lon="7.6169417"><ele>589.2857142857143</ele><time>2026-04-25T08:45:09.741Z</time></trkpt><trkpt lat="45.3695333" lon="7.616865"><ele>588.5714285714286</ele><time>2026-04-25T08:45:10.743Z</time></trkpt><trkpt lat="45.3694967" lon="7.6167767"><ele>587.8571428571429</ele><time>2026-04-25T08:45:11.741Z</time></trkpt><trkpt lat="45.3694567" lon="7.6166867"><ele>587.1428571428571</ele><time>2026-04-25T08:45:12.737Z</time></trkpt><trkpt lat="45.3694167" lon="7.6165917"><ele>586.4285714285714</ele><time>2026-04-25T08:45:13.74Z</time></trkpt><trkpt lat="45.3693783" lon="7.6164983"><ele>585.7142857142858</ele><time>2026-04-25T08:45:14.745Z</time></trkpt><trkpt lat="45.3693467" lon="7.6163933"><ele>585.0</ele><time>2026-04-25T08:45:15.738Z</time></trkpt><trkpt lat="45.3693217" lon="7.616295"><ele>585.0</ele><time>2026-04-25T08:45:16.741Z</time></trkpt><trkpt lat="45.3693067" lon="7.6161983"><ele>585.0</ele><time>2026-04-25T08:45:17.744Z</time></trkpt><trkpt lat="45.369295" lon="7.6161033"><ele>585.0</ele><time>2026-04-25T08:45:18.742Z</time></trkpt><trkpt lat="45.3692833" lon="7.615935"><ele>585.0</ele><time>2026-04-25T08:45:20.738Z</time></trkpt><trkpt lat="45.3693017" lon="7.61583"><ele>585.0</ele><time>2026-04-25T08:45:22.744Z</time></trkpt><trkpt lat="45.3693833" lon="7.6157433"><ele>585.0</ele><time>2026-04-25T08:45:25.744Z</time></trkpt><trkpt lat="45.3694667" lon="7.61569"><ele>583.6666666666666</ele><time>2026-04-25T08:45:28.741Z</time></trkpt><trkpt lat="45.3695533" lon="7.615635"><ele>582.3333333333334</ele><time>2026-04-25T08:45:31.743Z</time></trkpt><trkpt lat="45.369625" lon="7.6155783"><ele>581.0</ele><time>2026-04-25T08:45:33.741Z</time></trkpt><trkpt lat="45.369695" lon="7.615515"><ele>579.6666666666667</ele><time>2026-04-25T08:45:35.748Z</time></trkpt><trkpt lat="45.3697517" lon="7.61546"><ele>578.3333333333334</ele><time>2026-04-25T08:45:37.742Z</time></trkpt><trkpt lat="45.36981" lon="7.6154117"><ele>577.0</ele><time>2026-04-25T08:45:39.742Z</time></trkpt><trkpt lat="45.369875" lon="7.6153767"><ele>575.1666666666667</ele><time>2026-04-25T08:45:41.743Z</time></trkpt><trkpt lat="45.3699433" lon="7.6153167"><ele>573.3333333333334</ele><time>2026-04-25T08:45:43.742Z</time></trkpt><trkpt lat="45.3700017" lon="7.615275"><ele>571.5</ele><time>2026-04-25T08:45:45.743Z</time></trkpt><trkpt lat="45.3700667" lon="7.6152383"><ele>569.6666666666666</ele><time>2026-04-25T08:45:47.741Z</time></trkpt><trkpt lat="45.370145" lon="7.6152083"><ele>567.8333333333333</ele><time>2026-04-25T08:45:49.744Z</time></trkpt><trkpt lat="45.3702267" lon="7.6151817"><ele>566.0</ele><time>2026-04-25T08:45:51.74Z</time></trkpt><trkpt lat="45.3703267" lon="7.61517"><ele>566.0</ele><time>2026-04-25T08:45:53.74Z</time></trkpt><trkpt lat="45.3704417" lon="7.6151617"><ele>566.0</ele><time>2026-04-25T08:45:55.744Z</time></trkpt><trkpt lat="45.37056" lon="7.6152083"><ele>566.0</ele><time>2026-04-25T08:45:57.741Z</time></trkpt><trkpt lat="45.37062" lon="7.6153217"><ele>566.0</ele><time>2026-04-25T08:45:59.74Z</time></trkpt><trkpt lat="45.3706767" lon="7.6154117"><ele>566.0</ele><time>2026-04-25T08:46:00.744Z</time></trkpt><trkpt lat="45.3707367" lon="7.6155117"><ele>564.8</ele><time>2026-04-25T08:46:01.744Z</time></trkpt><trkpt lat="45.370805" lon="7.6156183"><ele>563.6</ele><time>2026-04-25T08:46:02.743Z</time></trkpt><trkpt lat="45.37087" lon="7.6157167"><ele>562.4</ele><time>2026-04-25T08:46:03.738Z</time></trkpt><trkpt lat="45.3709367" lon="7.6158083"><ele>561.2</ele><time>2026-04-25T08:46:04.743Z</time></trkpt><trkpt lat="45.371005" lon="7.61589"><ele>560.0</ele><time>2026-04-25T08:46:05.748Z</time></trkpt><trkpt lat="45.3710667" lon="7.6159483"><ele>560.0</ele><time>2026-04-25T08:46:06.74Z</time></trkpt><trkpt lat="45.37117" lon="7.6160367"><ele>560.0</ele><time>2026-04-25T08:46:08.742Z</time></trkpt><trkpt lat="45.3712667" lon="7.6160217"><ele>560.0</ele><time>2026-04-25T08:46:10.749Z</time></trkpt><trkpt lat="45.371285" lon="7.6158883"><ele>560.0</ele><time>2026-04-25T08:46:12.74Z</time></trkpt><trkpt lat="45.3712483" lon="7.6157783"><ele>560.0</ele><time>2026-04-25T08:46:14.745Z</time></trkpt><trkpt lat="45.3712117" lon="7.61565"><ele>560.0</ele><time>2026-04-25T08:46:16.747Z</time></trkpt><trkpt lat="45.371175" lon="7.6154883"><ele>560.0</ele><time>2026-04-25T08:46:18.745Z</time></trkpt><trkpt lat="45.371155" lon="7.6154"><ele>560.0</ele><time>2026-04-25T08:46:19.739Z</time></trkpt><trkpt lat="45.3711383" lon="7.6153083"><ele>560.0</ele><time>2026-04-25T08:46:20.749Z</time></trkpt><trkpt lat="45.3711217" lon="7.6152133"><ele>560.0</ele><time>2026-04-25T08:46:21.739Z</time></trkpt><trkpt lat="45.3711117" lon="7.61511"><ele>560.0</ele><time>2026-04-25T08:46:22.74Z</time></trkpt><trkpt lat="45.37111" lon="7.6150067"><ele>559.8333333333333</ele><time>2026-04-25T08:46:23.743Z</time></trkpt><trkpt lat="45.3711167" lon="7.6149017"><ele>559.6666666666666</ele><time>2026-04-25T08:46:24.744Z</time></trkpt><trkpt lat="45.3711283" lon="7.6148067"><ele>559.5</ele><time>2026-04-25T08:46:25.747Z</time></trkpt><trkpt lat="45.371135" lon="7.61471"><ele>559.3333333333334</ele><time>2026-04-25T08:46:26.74Z</time></trkpt><trkpt lat="45.371145" lon="7.6146167"><ele>559.1666666666667</ele><time>2026-04-25T08:46:27.743Z</time></trkpt><trkpt lat="45.37115" lon="7.614525"><ele>559.0</ele><time>2026-04-25T08:46:28.742Z</time></trkpt><trkpt lat="45.3711667" lon="7.614355"><ele>559.0</ele><time>2026-04-25T08:46:30.743Z</time></trkpt><trkpt lat="45.3711867" lon="7.6141933"><ele>559.0</ele><time>2026-04-25T08:46:32.74Z</time></trkpt><trkpt lat="45.371215" lon="7.6140333"><ele>559.0</ele><time>2026-04-25T08:46:34.745Z</time></trkpt><trkpt lat="45.3712383" lon="7.6138783"><ele>559.0</ele><time>2026-04-25T08:46:36.744Z</time></trkpt><trkpt lat="45.371255" lon="7.6137183"><ele>560.2</ele><time>2026-04-25T08:46:38.745Z</time></trkpt><trkpt lat="45.371265" lon="7.6136283"><ele>561.4</ele><time>2026-04-25T08:46:39.742Z</time></trkpt><trkpt lat="45.3712683" lon="7.6135333"><ele>562.6</ele><time>2026-04-25T08:46:40.738Z</time></trkpt><trkpt lat="45.3712467" lon="7.613365"><ele>563.8</ele><time>2026-04-25T08:46:42.742Z</time></trkpt><trkpt lat="45.37122" lon="7.6132033"><ele>565.0</ele><time>2026-04-25T08:46:44.743Z</time></trkpt><trkpt lat="45.3711917" lon="7.6130417"><ele>565.0</ele><time>2026-04-25T08:46:46.736Z</time></trkpt><trkpt lat="45.3711667" lon="7.6128767"><ele>565.0</ele><time>2026-04-25T08:46:48.746Z</time></trkpt><trkpt lat="45.37113" lon="7.6127083"><ele>565.0</ele><time>2026-04-25T08:46:50.745Z</time></trkpt><trkpt lat="45.3711133" lon="7.6126217"><ele>565.0</ele><time>2026-04-25T08:46:51.744Z</time></trkpt><trkpt lat="45.3710967" lon="7.612535"><ele>565.0</ele><time>2026-04-25T08:46:52.745Z</time></trkpt><trkpt lat="45.371085" lon="7.612445"><ele>565.0</ele><time>2026-04-25T08:46:53.741Z</time></trkpt><trkpt lat="45.3710767" lon="7.6123517"><ele>564.8571428571428</ele><time>2026-04-25T08:46:54.742Z</time></trkpt><trkpt lat="45.3710717" lon="7.6122583"><ele>564.7142857142857</ele><time>2026-04-25T08:46:55.743Z</time></trkpt><trkpt lat="45.3710733" lon="7.61216"><ele>564.5714285714286</ele><time>2026-04-25T08:46:56.744Z</time></trkpt><trkpt lat="45.3710817" lon="7.6120567"><ele>564.4285714285713</ele><time>2026-04-25T08:46:57.745Z</time></trkpt><trkpt lat="45.3710967" lon="7.611955"><ele>564.2857142857142</ele><time>2026-04-25T08:46:58.745Z</time></trkpt><trkpt lat="45.3711167" lon="7.6118433"><ele>564.1428571428571</ele><time>2026-04-25T08:46:59.745Z</time></trkpt><trkpt lat="45.3711367" lon="7.6117283"><ele>564.0</ele><time>2026-04-25T08:47:00.745Z</time></trkpt><trkpt lat="45.3711517" lon="7.6116083"><ele>563.2</ele><time>2026-04-25T08:47:01.742Z</time></trkpt><trkpt lat="45.3711567" lon="7.6114767"><ele>562.4</ele><time>2026-04-25T08:47:02.743Z</time></trkpt><trkpt lat="45.3711467" lon="7.6113417"><ele>561.6</ele><time>2026-04-25T08:47:03.744Z</time></trkpt><trkpt lat="45.3711267" lon="7.6112083"><ele>560.8</ele><time>2026-04-25T08:47:04.743Z</time></trkpt><trkpt lat="45.3711" lon="7.6110767"><ele>560.0</ele><time>2026-04-25T08:47:05.758Z</time></trkpt><trkpt lat="45.37107" lon="7.610945"><ele>558.8</ele><time>2026-04-25T08:47:06.741Z</time></trkpt><trkpt lat="45.37103" lon="7.6108117"><ele>557.6</ele><time>2026-04-25T08:47:07.743Z</time></trkpt><trkpt lat="45.3709817" lon="7.6106817"><ele>556.4</ele><time>2026-04-25T08:47:08.745Z</time></trkpt><trkpt lat="45.3709267" lon="7.6105567"><ele>555.2</ele><time>2026-04-25T08:47:09.738Z</time></trkpt><trkpt lat="45.3708733" lon="7.6104417"><ele>554.0</ele><time>2026-04-25T08:47:10.736Z</time></trkpt><trkpt lat="45.3708417" lon="7.6103417"><ele>553.2</ele><time>2026-04-25T08:47:11.742Z</time></trkpt><trkpt lat="45.3708133" lon="7.6102167"><ele>552.4</ele><time>2026-04-25T08:47:13.743Z</time></trkpt><trkpt lat="45.3708633" lon="7.6101483"><ele>551.6</ele><time>2026-04-25T08:47:15.742Z</time></trkpt><trkpt lat="45.370975" lon="7.6101"><ele>550.8</ele><time>2026-04-25T08:47:17.739Z</time></trkpt><trkpt lat="45.3711" lon="7.6101067"><ele>550.0</ele><time>2026-04-25T08:47:19.739Z</time></trkpt><trkpt lat="45.3711683" lon="7.6101133"><ele>550.0</ele><time>2026-04-25T08:47:20.742Z</time></trkpt><trkpt lat="45.37128" lon="7.6101017"><ele>550.0</ele><time>2026-04-25T08:47:22.738Z</time></trkpt><trkpt lat="45.3713817" lon="7.6100917"><ele>550.0</ele><time>2026-04-25T08:47:24.75Z</time></trkpt><trkpt lat="45.3714783" lon="7.610115"><ele>550.0</ele><time>2026-04-25T08:47:26.747Z</time></trkpt><trkpt lat="45.3715717" lon="7.6101617"><ele>550.0</ele><time>2026-04-25T08:47:28.743Z</time></trkpt><trkpt lat="45.3716533" lon="7.610215"><ele>548.8333333333334</ele><time>2026-04-25T08:47:30.743Z</time></trkpt><trkpt lat="45.371715" lon="7.6102833"><ele>547.6666666666667</ele><time>2026-04-25T08:47:32.739Z</time></trkpt><trkpt lat="45.3717833" lon="7.610365"><ele>546.5</ele><time>2026-04-25T08:47:34.737Z</time></trkpt><trkpt lat="45.3718433" lon="7.6104433"><ele>545.3333333333334</ele><time>2026-04-25T08:47:36.742Z</time></trkpt><trkpt lat="45.3719067" lon="7.61052"><ele>544.1666666666666</ele><time>2026-04-25T08:47:38.745Z</time></trkpt><trkpt lat="45.3719683" lon="7.6105967"><ele>543.0</ele><time>2026-04-25T08:47:40.742Z</time></trkpt><trkpt lat="45.3720233" lon="7.61068"><ele>543.0</ele><time>2026-04-25T08:47:42.744Z</time></trkpt><trkpt lat="45.3720867" lon="7.610765"><ele>543.0</ele><time>2026-04-25T08:47:44.742Z</time></trkpt><trkpt lat="45.3721417" lon="7.6108817"><ele>543.0</ele><time>2026-04-25T08:47:46.741Z</time></trkpt><trkpt lat="45.3721783" lon="7.6110167"><ele>543.0</ele><time>2026-04-25T08:47:48.742Z</time></trkpt><trkpt lat="45.3722017" lon="7.61116"><ele>543.0</ele><time>2026-04-25T08:47:50.751Z</time></trkpt><trkpt lat="45.372225" lon="7.6112967"><ele>545.0</ele><time>2026-04-25T08:47:52.742Z</time></trkpt><trkpt lat="45.3722517" lon="7.6114267"><ele>547.0</ele><time>2026-04-25T08:47:54.742Z</time></trkpt><trkpt lat="45.372285" lon="7.6115617"><ele>549.0</ele><time>2026-04-25T08:47:56.745Z</time></trkpt><trkpt lat="45.3723367" lon="7.6116783"><ele>551.0</ele><time>2026-04-25T08:47:58.741Z</time></trkpt><trkpt lat="45.3724117" lon="7.6117733"><ele>553.0</ele><time>2026-04-25T08:48:00.741Z</time></trkpt><trkpt lat="45.372495" lon="7.6118533"><ele>553.0</ele><time>2026-04-25T08:48:02.739Z</time></trkpt><trkpt lat="45.3725767" lon="7.61193"><ele>553.0</ele><time>2026-04-25T08:48:04.739Z</time></trkpt><trkpt lat="45.3726567" lon="7.611995"><ele>553.0</ele><time>2026-04-25T08:48:06.744Z</time></trkpt><trkpt lat="45.3727267" lon="7.61206"><ele>553.0</ele><time>2026-04-25T08:48:08.744Z</time></trkpt><trkpt lat="45.3727867" lon="7.6121383"><ele>553.0</ele><time>2026-04-25T08:48:10.751Z</time></trkpt><trkpt lat="45.372845" lon="7.6122267"><ele>553.0</ele><time>2026-04-25T08:48:12.747Z</time></trkpt><trkpt lat="45.3728967" lon="7.61232"><ele>553.8</ele><time>2026-04-25T08:48:14.745Z</time></trkpt><trkpt lat="45.37295" lon="7.6124233"><ele>554.5999999999999</ele><time>2026-04-25T08:48:16.742Z</time></trkpt><trkpt lat="45.3730067" lon="7.6125317"><ele>555.4000000000001</ele><time>2026-04-25T08:48:18.743Z</time></trkpt><trkpt lat="45.37305" lon="7.6126517"><ele>556.2</ele><time>2026-04-25T08:48:20.742Z</time></trkpt><trkpt lat="45.3730967" lon="7.6127583"><ele>557.0</ele><time>2026-04-25T08:48:22.739Z</time></trkpt><trkpt lat="45.3731533" lon="7.61286"><ele>554.0</ele><time>2026-04-25T08:48:24.742Z</time></trkpt><trkpt lat="45.3732317" lon="7.6129483"><ele>551.0</ele><time>2026-04-25T08:48:26.741Z</time></trkpt><trkpt lat="45.3733267" lon="7.6130167"><ele>548.0</ele><time>2026-04-25T08:48:28.743Z</time></trkpt><trkpt lat="45.3734233" lon="7.6130367"><ele>545.0</ele><time>2026-04-25T08:48:30.738Z</time></trkpt><trkpt lat="45.3735117" lon="7.6130483"><ele>542.0</ele><time>2026-04-25T08:48:32.744Z</time></trkpt><trkpt lat="45.3736117" lon="7.61306"><ele>542.0</ele><time>2026-04-25T08:48:34.737Z</time></trkpt><trkpt lat="45.37372" lon="7.6130683"><ele>542.0</ele><time>2026-04-25T08:48:36.742Z</time></trkpt><trkpt lat="45.37381" lon="7.6130817"><ele>542.0</ele><time>2026-04-25T08:48:38.741Z</time></trkpt><trkpt lat="45.3739033" lon="7.6130667"><ele>542.0</ele><time>2026-04-25T08:48:40.742Z</time></trkpt><trkpt lat="45.3739917" lon="7.61305"><ele>542.0</ele><time>2026-04-25T08:48:42.742Z</time></trkpt><trkpt lat="45.3740683" lon="7.6130333"><ele>542.6666666666666</ele><time>2026-04-25T08:48:44.747Z</time></trkpt><trkpt lat="45.3741467" lon="7.6130017"><ele>543.3333333333333</ele><time>2026-04-25T08:48:46.746Z</time></trkpt><trkpt lat="45.37423" lon="7.6129717"><ele>544.0</ele><time>2026-04-25T08:48:48.745Z</time></trkpt><trkpt lat="45.3743017" lon="7.6129217"><ele>544.6666666666666</ele><time>2026-04-25T08:48:50.743Z</time></trkpt><trkpt lat="45.374365" lon="7.6128617"><ele>545.3333333333334</ele><time>2026-04-25T08:48:52.741Z</time></trkpt><trkpt lat="45.3744367" lon="7.6128067"><ele>546.0</ele><time>2026-04-25T08:48:54.741Z</time></trkpt><trkpt lat="45.374505" lon="7.6127467"><ele>548.4</ele><time>2026-04-25T08:48:56.744Z</time></trkpt><trkpt lat="45.374595" lon="7.6126833"><ele>550.8</ele><time>2026-04-25T08:48:58.736Z</time></trkpt><trkpt lat="45.3746867" lon="7.6126467"><ele>553.1999999999999</ele><time>2026-04-25T08:49:00.738Z</time></trkpt><trkpt lat="45.374785" lon="7.612615"><ele>555.6</ele><time>2026-04-25T08:49:02.736Z</time></trkpt><trkpt lat="45.3748933" lon="7.61261"><ele>558.0</ele><time>2026-04-25T08:49:04.735Z</time></trkpt><trkpt lat="45.3750017" lon="7.61263"><ele>558.0</ele><time>2026-04-25T08:49:06.736Z</time></trkpt><trkpt lat="45.3751133" lon="7.612635"><ele>558.0</ele><time>2026-04-25T08:49:08.734Z</time></trkpt><trkpt lat="45.3752233" lon="7.612625"><ele>558.0</ele><time>2026-04-25T08:49:10.736Z</time></trkpt><trkpt lat="45.375315" lon="7.6125733"><ele>558.0</ele><time>2026-04-25T08:49:12.735Z</time></trkpt><trkpt lat="45.3753833" lon="7.61245"><ele>558.0</ele><time>2026-04-25T08:49:14.738Z</time></trkpt><trkpt lat="45.3754" lon="7.6123017"><ele>558.0</ele><time>2026-04-25T08:49:16.743Z</time></trkpt><trkpt lat="45.3753883" lon="7.6121283"><ele>558.0</ele><time>2026-04-25T08:49:18.746Z</time></trkpt><trkpt lat="45.3753633" lon="7.61197"><ele>558.0</ele><time>2026-04-25T08:49:20.74Z</time></trkpt><trkpt lat="45.3753667" lon="7.6118017"><ele>558.0</ele><time>2026-04-25T08:49:22.738Z</time></trkpt><trkpt lat="45.3753933" lon="7.611715"><ele>558.0</ele><time>2026-04-25T08:49:23.737Z</time></trkpt><trkpt lat="45.37545" lon="7.611605"><ele>557.5</ele><time>2026-04-25T08:49:25.739Z</time></trkpt><trkpt lat="45.37555" lon="7.6114483"><ele>557.0</ele><time>2026-04-25T08:49:27.74Z</time></trkpt><trkpt lat="45.37563" lon="7.6113283"><ele>556.5</ele><time>2026-04-25T08:49:28.736Z</time></trkpt><trkpt lat="45.3756833" lon="7.6112167"><ele>556.0</ele><time>2026-04-25T08:49:29.735Z</time></trkpt><trkpt lat="45.3757333" lon="7.6111017"><ele>556.0</ele><time>2026-04-25T08:49:30.739Z</time></trkpt><trkpt lat="45.3757833" lon="7.611"><ele>556.0</ele><time>2026-04-25T08:49:31.739Z</time></trkpt><trkpt lat="45.375825" lon="7.6109217"><ele>556.0</ele><time>2026-04-25T08:49:32.741Z</time></trkpt><trkpt lat="45.3758883" lon="7.6108033"><ele>556.0</ele><time>2026-04-25T08:49:34.743Z</time></trkpt><trkpt lat="45.3759517" lon="7.6107067"><ele>556.0</ele><time>2026-04-25T08:49:36.736Z</time></trkpt><trkpt lat="45.376035" lon="7.61064"><ele>556.0</ele><time>2026-04-25T08:49:38.74Z</time></trkpt><trkpt lat="45.3761417" lon="7.6106267"><ele>556.0</ele><time>2026-04-25T08:49:40.747Z</time></trkpt><trkpt lat="45.3762567" lon="7.6106283"><ele>556.0</ele><time>2026-04-25T08:49:42.735Z</time></trkpt><trkpt lat="45.3763467" lon="7.610625"><ele>556.0</ele><time>2026-04-25T08:49:44.739Z</time></trkpt><trkpt lat="45.3764217" lon="7.6106483"><ele>556.0</ele><time>2026-04-25T08:49:46.738Z</time></trkpt><trkpt lat="45.3765" lon="7.61071"><ele>556.0</ele><time>2026-04-25T08:49:48.744Z</time></trkpt><trkpt lat="45.376565" lon="7.610785"><ele>555.6666666666667</ele><time>2026-04-25T08:49:50.742Z</time></trkpt><trkpt lat="45.3766283" lon="7.6108683"><ele>555.3333333333334</ele><time>2026-04-25T08:49:52.741Z</time></trkpt><trkpt lat="45.3766783" lon="7.610955"><ele>555.0</ele><time>2026-04-25T08:49:54.74Z</time></trkpt><trkpt lat="45.3767283" lon="7.6110417"><ele>554.6666666666666</ele><time>2026-04-25T08:49:56.736Z</time></trkpt><trkpt lat="45.376775" lon="7.61113"><ele>554.3333333333333</ele><time>2026-04-25T08:49:58.739Z</time></trkpt><trkpt lat="45.3768183" lon="7.6112067"><ele>554.0</ele><time>2026-04-25T08:50:00.741Z</time></trkpt><trkpt lat="45.3768817" lon="7.611285"><ele>554.0</ele><time>2026-04-25T08:50:03.739Z</time></trkpt><trkpt lat="45.37696" lon="7.6112633"><ele>554.0</ele><time>2026-04-25T08:50:06.739Z</time></trkpt><trkpt lat="45.37696" lon="7.61117"><ele>554.0</ele><time>2026-04-25T08:50:08.741Z</time></trkpt><trkpt lat="45.3769367" lon="7.6110783"><ele>554.0</ele><time>2026-04-25T08:50:10.742Z</time></trkpt><trkpt lat="45.3769067" lon="7.6109717"><ele>554.0</ele><time>2026-04-25T08:50:12.74Z</time></trkpt><trkpt lat="45.376885" lon="7.6108583"><ele>554.0</ele><time>2026-04-25T08:50:14.742Z</time></trkpt><trkpt lat="45.3768617" lon="7.6107383"><ele>554.0</ele><time>2026-04-25T08:50:16.738Z</time></trkpt><trkpt lat="45.3768417" lon="7.61061"><ele>554.0</ele><time>2026-04-25T08:50:18.738Z</time></trkpt><trkpt lat="45.37682" lon="7.6104733"><ele>554.0</ele><time>2026-04-25T08:50:20.743Z</time></trkpt><trkpt lat="45.3767867" lon="7.6103417"><ele>554.0</ele><time>2026-04-25T08:50:22.743Z</time></trkpt><trkpt lat="45.3767483" lon="7.6102117"><ele>554.0</ele><time>2026-04-25T08:50:24.744Z</time></trkpt><trkpt lat="45.3767167" lon="7.6100867"><ele>555.1666666666666</ele><time>2026-04-25T08:50:26.738Z</time></trkpt><trkpt lat="45.3766867" lon="7.6099567"><ele>556.3333333333333</ele><time>2026-04-25T08:50:28.739Z</time></trkpt><trkpt lat="45.3766667" lon="7.6098333"><ele>557.5</ele><time>2026-04-25T08:50:30.74Z</time></trkpt><trkpt lat="45.3766483" lon="7.6097217"><ele>558.6666666666666</ele><time>2026-04-25T08:50:32.737Z</time></trkpt><trkpt lat="45.37663" lon="7.60962"><ele>559.8333333333334</ele><time>2026-04-25T08:50:34.746Z</time></trkpt><trkpt lat="45.376605" lon="7.6095283"><ele>561.0</ele><time>2026-04-25T08:50:36.748Z</time></trkpt><trkpt lat="45.376575" lon="7.609435"><ele>562.1666666666666</ele><time>2026-04-25T08:50:38.735Z</time></trkpt><trkpt lat="45.3765483" lon="7.6093317"><ele>563.3333333333334</ele><time>2026-04-25T08:50:40.738Z</time></trkpt><trkpt lat="45.3765217" lon="7.6092383"><ele>564.5</ele><time>2026-04-25T08:50:42.738Z</time></trkpt><trkpt lat="45.3764883" lon="7.6091117"><ele>565.6666666666667</ele><time>2026-04-25T08:50:45.737Z</time></trkpt><trkpt lat="45.3764683" lon="7.60902"><ele>566.8333333333334</ele><time>2026-04-25T08:50:47.739Z</time></trkpt><trkpt lat="45.3764567" lon="7.608925"><ele>568.0</ele><time>2026-04-25T08:50:49.746Z</time></trkpt><trkpt lat="45.3764517" lon="7.60882"><ele>568.0</ele><time>2026-04-25T08:50:51.741Z</time></trkpt><trkpt lat="45.3764467" lon="7.60871"><ele>568.0</ele><time>2026-04-25T08:50:53.741Z</time></trkpt><trkpt lat="45.37643" lon="7.6086083"><ele>568.0</ele><time>2026-04-25T08:50:55.74Z</time></trkpt><trkpt lat="45.3763983" lon="7.608515"><ele>568.0</ele><time>2026-04-25T08:50:57.743Z</time></trkpt><trkpt lat="45.3763717" lon="7.6084283"><ele>568.0</ele><time>2026-04-25T08:50:59.739Z</time></trkpt><trkpt lat="45.37635" lon="7.6083383"><ele>568.0</ele><time>2026-04-25T08:51:01.739Z</time></trkpt><trkpt lat="45.3763317" lon="7.6082517"><ele>568.0</ele><time>2026-04-25T08:51:03.736Z</time></trkpt><trkpt lat="45.376315" lon="7.60816"><ele>568.5</ele><time>2026-04-25T08:51:05.742Z</time></trkpt><trkpt lat="45.3763333" lon="7.608025"><ele>569.0</ele><time>2026-04-25T08:51:08.739Z</time></trkpt><trkpt lat="45.376365" lon="7.607925"><ele>569.5</ele><time>2026-04-25T08:51:10.74Z</time></trkpt><trkpt lat="45.3763967" lon="7.6078267"><ele>570.0</ele><time>2026-04-25T08:51:12.746Z</time></trkpt><trkpt lat="45.3764117" lon="7.6077133"><ele>570.5</ele><time>2026-04-25T08:51:14.739Z</time></trkpt><trkpt lat="45.37641" lon="7.6076017"><ele>571.0</ele><time>2026-04-25T08:51:16.74Z</time></trkpt><trkpt lat="45.3764067" lon="7.6075117"><ele>573.1428571428571</ele><time>2026-04-25T08:51:18.742Z</time></trkpt><trkpt lat="45.3764017" lon="7.6074183"><ele>575.2857142857142</ele><time>2026-04-25T08:51:20.742Z</time></trkpt><trkpt lat="45.3764033" lon="7.6073167"><ele>577.4285714285713</ele><time>2026-04-25T08:51:22.75Z</time></trkpt><trkpt lat="45.37641" lon="7.60722"><ele>579.5714285714286</ele><time>2026-04-25T08:51:24.74Z</time></trkpt><trkpt lat="45.3764083" lon="7.607115"><ele>581.7142857142857</ele><time>2026-04-25T08:51:26.743Z</time></trkpt><trkpt lat="45.3763983" lon="7.6070117"><ele>583.8571428571428</ele><time>2026-04-25T08:51:28.742Z</time></trkpt><trkpt lat="45.37636" lon="7.6069183"><ele>586.0</ele><time>2026-04-25T08:51:30.741Z</time></trkpt><trkpt lat="45.3763017" lon="7.6068467"><ele>586.2857142857142</ele><time>2026-04-25T08:51:32.743Z</time></trkpt><trkpt lat="45.3762383" lon="7.6068233"><ele>586.5714285714286</ele><time>2026-04-25T08:51:34.741Z</time></trkpt><trkpt lat="45.376165" lon="7.606865"><ele>586.8571428571429</ele><time>2026-04-25T08:51:36.742Z</time></trkpt><trkpt lat="45.3761233" lon="7.60696"><ele>587.1428571428571</ele><time>2026-04-25T08:51:38.738Z</time></trkpt><trkpt lat="45.3761183" lon="7.6070583"><ele>587.4285714285714</ele><time>2026-04-25T08:51:40.741Z</time></trkpt><trkpt lat="45.3761033" lon="7.60715"><ele>587.7142857142857</ele><time>2026-04-25T08:51:42.744Z</time></trkpt><trkpt lat="45.3760833" lon="7.6072583"><ele>588.0</ele><time>2026-04-25T08:51:45.74Z</time></trkpt><trkpt lat="45.37602" lon="7.6073083"><ele>586.0</ele><time>2026-04-25T08:51:47.746Z</time></trkpt><trkpt lat="45.3759433" lon="7.607315"><ele>584.0</ele><time>2026-04-25T08:51:49.751Z</time></trkpt><trkpt lat="45.3758567" lon="7.607295"><ele>582.0</ele><time>2026-04-25T08:51:51.737Z</time></trkpt><trkpt lat="45.37578" lon="7.6072567"><ele>580.0</ele><time>2026-04-25T08:51:53.74Z</time></trkpt><trkpt lat="45.37571" lon="7.607205"><ele>578.0</ele><time>2026-04-25T08:51:55.743Z</time></trkpt><trkpt lat="45.3756467" lon="7.6071467"><ele>576.0</ele><time>2026-04-25T08:51:57.743Z</time></trkpt><trkpt lat="45.3755917" lon="7.6070733"><ele>576.2857142857143</ele><time>2026-04-25T08:51:59.738Z</time></trkpt><trkpt lat="45.3755417" lon="7.60699"><ele>576.5714285714286</ele><time>2026-04-25T08:52:01.738Z</time></trkpt><trkpt lat="45.3755033" lon="7.6068983"><ele>576.8571428571429</ele><time>2026-04-25T08:52:03.744Z</time></trkpt><trkpt lat="45.3754717" lon="7.6068067"><ele>577.1428571428571</ele><time>2026-04-25T08:52:05.742Z</time></trkpt><trkpt lat="45.37543" lon="7.6067183"><ele>577.4285714285714</ele><time>2026-04-25T08:52:07.739Z</time></trkpt><trkpt lat="45.3753983" lon="7.6066233"><ele>577.7142857142858</ele><time>2026-04-25T08:52:09.747Z</time></trkpt><trkpt lat="45.3753567" lon="7.6065383"><ele>578.0</ele><time>2026-04-25T08:52:11.74Z</time></trkpt><trkpt lat="45.37532" lon="7.6064533"><ele>578.0</ele><time>2026-04-25T08:52:13.739Z</time></trkpt><trkpt lat="45.375285" lon="7.6063683"><ele>578.0</ele><time>2026-04-25T08:52:15.742Z</time></trkpt><trkpt lat="45.3752467" lon="7.6062833"><ele>578.0</ele><time>2026-04-25T08:52:17.74Z</time></trkpt><trkpt lat="45.37521" lon="7.6061967"><ele>578.0</ele><time>2026-04-25T08:52:19.74Z</time></trkpt><trkpt lat="45.3751783" lon="7.6061067"><ele>578.0</ele><time>2026-04-25T08:52:21.738Z</time></trkpt><trkpt lat="45.37514" lon="7.606025"><ele>578.0</ele><time>2026-04-25T08:52:23.743Z</time></trkpt><trkpt lat="45.3751067" lon="7.605945"><ele>578.0</ele><time>2026-04-25T08:52:25.739Z</time></trkpt><trkpt lat="45.375075" lon="7.6058567"><ele>579.8333333333333</ele><time>2026-04-25T08:52:27.739Z</time></trkpt><trkpt lat="45.37505" lon="7.605765"><ele>581.6666666666666</ele><time>2026-04-25T08:52:29.746Z</time></trkpt><trkpt lat="45.37503" lon="7.605665"><ele>583.5</ele><time>2026-04-25T08:52:31.742Z</time></trkpt><trkpt lat="45.37501" lon="7.605575"><ele>585.3333333333334</ele><time>2026-04-25T08:52:33.744Z</time></trkpt><trkpt lat="45.3750017" lon="7.605445"><ele>587.1666666666667</ele><time>2026-04-25T08:52:36.744Z</time></trkpt><trkpt lat="45.3750033" lon="7.60532"><ele>589.0</ele><time>2026-04-25T08:52:39.74Z</time></trkpt><trkpt lat="45.3750167" lon="7.605215"><ele>590.1666666666667</ele><time>2026-04-25T08:52:41.744Z</time></trkpt><trkpt lat="45.375035" lon="7.6051083"><ele>591.3333333333334</ele><time>2026-04-25T08:52:43.742Z</time></trkpt><trkpt lat="45.375055" lon="7.605015"><ele>592.5</ele><time>2026-04-25T08:52:45.738Z</time></trkpt><trkpt lat="45.3750917" lon="7.6048933"><ele>593.6666666666666</ele><time>2026-04-25T08:52:48.741Z</time></trkpt><trkpt lat="45.3751267" lon="7.6047967"><ele>594.8333333333333</ele><time>2026-04-25T08:52:50.738Z</time></trkpt><trkpt lat="45.37516" lon="7.6047033"><ele>596.0</ele><time>2026-04-25T08:52:52.741Z</time></trkpt><trkpt lat="45.3751867" lon="7.60461"><ele>596.0</ele><time>2026-04-25T08:52:54.737Z</time></trkpt><trkpt lat="45.375215" lon="7.604525"><ele>596.0</ele><time>2026-04-25T08:52:56.743Z</time></trkpt><trkpt lat="45.3752583" lon="7.60441"><ele>596.0</ele><time>2026-04-25T08:52:59.74Z</time></trkpt><trkpt lat="45.3753283" lon="7.604335"><ele>596.0</ele><time>2026-04-25T08:53:02.744Z</time></trkpt><trkpt lat="45.3753917" lon="7.6042433"><ele>596.0</ele><time>2026-04-25T08:53:05.743Z</time></trkpt><trkpt lat="45.3754367" lon="7.6041617"><ele>596.0</ele><time>2026-04-25T08:53:07.739Z</time></trkpt><trkpt lat="45.3754783" lon="7.604045"><ele>597.0</ele><time>2026-04-25T08:53:10.74Z</time></trkpt><trkpt lat="45.3755" lon="7.603925"><ele>598.0</ele><time>2026-04-25T08:53:13.741Z</time></trkpt><trkpt lat="45.3755117" lon="7.603805"><ele>599.0</ele><time>2026-04-25T08:53:16.74Z</time></trkpt><trkpt lat="45.3755167" lon="7.6036633"><ele>600.0</ele><time>2026-04-25T08:53:19.74Z</time></trkpt><trkpt lat="45.3754717" lon="7.6035633"><ele>601.0</ele><time>2026-04-25T08:53:21.738Z</time></trkpt><trkpt lat="45.3754033" lon="7.6034983"><ele>602.0</ele><time>2026-04-25T08:53:23.741Z</time></trkpt><trkpt lat="45.3753367" lon="7.6035133"><ele>602.0</ele><time>2026-04-25T08:53:25.742Z</time></trkpt><trkpt lat="45.3752833" lon="7.6035767"><ele>602.0</ele><time>2026-04-25T08:53:27.743Z</time></trkpt><trkpt lat="45.375255" lon="7.6036717"><ele>602.0</ele><time>2026-04-25T08:53:29.742Z</time></trkpt><trkpt lat="45.375255" lon="7.603775"><ele>602.0</ele><time>2026-04-25T08:53:31.742Z</time></trkpt><trkpt lat="45.3752483" lon="7.6038867"><ele>602.0</ele><time>2026-04-25T08:53:34.74Z</time></trkpt><trkpt lat="45.3751867" lon="7.6039467"><ele>602.0</ele><time>2026-04-25T08:53:37.739Z</time></trkpt><trkpt lat="45.375115" lon="7.60392"><ele>602.0</ele><time>2026-04-25T08:53:40.741Z</time></trkpt><trkpt lat="45.3750483" lon="7.6039017"><ele>602.0</ele><time>2026-04-25T08:53:42.744Z</time></trkpt><trkpt lat="45.3749733" lon="7.6038367"><ele>602.0</ele><time>2026-04-25T08:53:45.742Z</time></trkpt><trkpt lat="45.3749233" lon="7.6037333"><ele>602.0</ele><time>2026-04-25T08:53:48.742Z</time></trkpt><trkpt lat="45.3748767" lon="7.6036217"><ele>602.0</ele><time>2026-04-25T08:53:51.745Z</time></trkpt><trkpt lat="45.3748517" lon="7.6035317"><ele>602.0</ele><time>2026-04-25T08:53:53.74Z</time></trkpt><trkpt lat="45.37482" lon="7.60344"><ele>602.0</ele><time>2026-04-25T08:53:55.74Z</time></trkpt><trkpt lat="45.37479" lon="7.6033567"><ele>602.0</ele><time>2026-04-25T08:53:57.74Z</time></trkpt><trkpt lat="45.3747567" lon="7.60328"><ele>602.0</ele><time>2026-04-25T08:53:59.739Z</time></trkpt><trkpt lat="45.3747267" lon="7.6031967"><ele>602.0</ele><time>2026-04-25T08:54:01.742Z</time></trkpt><trkpt lat="45.3746933" lon="7.6031167"><ele>602.0</ele><time>2026-04-25T08:54:03.743Z</time></trkpt><trkpt lat="45.3746383" lon="7.603005"><ele>602.0</ele><time>2026-04-25T08:54:06.74Z</time></trkpt><trkpt lat="45.3745867" lon="7.6029"><ele>602.0</ele><time>2026-04-25T08:54:09.74Z</time></trkpt><trkpt lat="45.3745483" lon="7.6028233"><ele>602.0</ele><time>2026-04-25T08:54:11.741Z</time></trkpt><trkpt lat="45.37451" lon="7.6027417"><ele>603.0</ele><time>2026-04-25T08:54:13.741Z</time></trkpt><trkpt lat="45.3744767" lon="7.60266"><ele>604.0</ele><time>2026-04-25T08:54:15.738Z</time></trkpt><trkpt lat="45.37445" lon="7.6025733"><ele>605.0</ele><time>2026-04-25T08:54:17.74Z</time></trkpt><trkpt lat="45.3744317" lon="7.60248"><ele>606.0</ele><time>2026-04-25T08:54:19.745Z</time></trkpt><trkpt lat="45.3744217" lon="7.602385"><ele>607.0</ele><time>2026-04-25T08:54:21.739Z</time></trkpt><trkpt lat="45.37441" lon="7.6022933"><ele>608.0</ele><time>2026-04-25T08:54:23.746Z</time></trkpt><trkpt lat="45.374395" lon="7.60219"><ele>609.0</ele><time>2026-04-25T08:54:25.745Z</time></trkpt><trkpt lat="45.374375" lon="7.602095"><ele>609.0</ele><time>2026-04-25T08:54:27.745Z</time></trkpt><trkpt lat="45.374355" lon="7.6020033"><ele>609.0</ele><time>2026-04-25T08:54:29.74Z</time></trkpt><trkpt lat="45.37433" lon="7.6019117"><ele>609.0</ele><time>2026-04-25T08:54:31.739Z</time></trkpt><trkpt lat="45.3743117" lon="7.6017817"><ele>609.0</ele><time>2026-04-25T08:54:34.739Z</time></trkpt><trkpt lat="45.3743" lon="7.6016833"><ele>609.0</ele><time>2026-04-25T08:54:36.744Z</time></trkpt><trkpt lat="45.3742983" lon="7.601585"><ele>609.0</ele><time>2026-04-25T08:54:38.739Z</time></trkpt><trkpt lat="45.3743017" lon="7.6014833"><ele>609.0</ele><time>2026-04-25T08:54:40.749Z</time></trkpt><trkpt lat="45.3743067" lon="7.6013867"><ele>610.0</ele><time>2026-04-25T08:54:42.745Z</time></trkpt><trkpt lat="45.3743067" lon="7.6012917"><ele>611.0</ele><time>2026-04-25T08:54:44.742Z</time></trkpt><trkpt lat="45.3743" lon="7.6011933"><ele>612.0</ele><time>2026-04-25T08:54:46.745Z</time></trkpt><trkpt lat="45.3742883" lon="7.6010567"><ele>613.0</ele><time>2026-04-25T08:54:49.743Z</time></trkpt><trkpt lat="45.374275" lon="7.6009367"><ele>614.0</ele><time>2026-04-25T08:54:52.743Z</time></trkpt><trkpt lat="45.3742683" lon="7.6008183"><ele>615.0</ele><time>2026-04-25T08:54:55.743Z</time></trkpt><trkpt lat="45.3742667" lon="7.600705"><ele>615.8571428571428</ele><time>2026-04-25T08:54:58.741Z</time></trkpt><trkpt lat="45.3742683" lon="7.6005717"><ele>616.7142857142858</ele><time>2026-04-25T08:55:01.747Z</time></trkpt><trkpt lat="45.37427" lon="7.60048"><ele>617.5714285714286</ele><time>2026-04-25T08:55:03.741Z</time></trkpt><trkpt lat="45.3742633" lon="7.6003833"><ele>618.4285714285713</ele><time>2026-04-25T08:55:05.743Z</time></trkpt><trkpt lat="45.3742533" lon="7.6002883"><ele>619.2857142857142</ele><time>2026-04-25T08:55:07.739Z</time></trkpt><trkpt lat="45.3742433" lon="7.6001983"><ele>620.1428571428571</ele><time>2026-04-25T08:55:09.742Z</time></trkpt><trkpt lat="45.3742283" lon="7.6000783"><ele>621.0</ele><time>2026-04-25T08:55:12.744Z</time></trkpt><trkpt lat="45.374215" lon="7.5999883"><ele>621.5714285714286</ele><time>2026-04-25T08:55:14.743Z</time></trkpt><trkpt lat="45.3742" lon="7.59989"><ele>622.1428571428571</ele><time>2026-04-25T08:55:16.742Z</time></trkpt><trkpt lat="45.3741867" lon="7.5998017"><ele>622.7142857142858</ele><time>2026-04-25T08:55:18.74Z</time></trkpt><trkpt lat="45.3741833" lon="7.59971"><ele>623.2857142857142</ele><time>2026-04-25T08:55:20.743Z</time></trkpt><trkpt lat="45.3741833" lon="7.5996117"><ele>623.8571428571429</ele><time>2026-04-25T08:55:22.738Z</time></trkpt><trkpt lat="45.3741917" lon="7.5995183"><ele>624.4285714285714</ele><time>2026-04-25T08:55:24.741Z</time></trkpt><trkpt lat="45.3742017" lon="7.599425"><ele>625.0</ele><time>2026-04-25T08:55:26.746Z</time></trkpt><trkpt lat="45.3742133" lon="7.5993283"><ele>625.2857142857143</ele><time>2026-04-25T08:55:28.741Z</time></trkpt><trkpt lat="45.3742233" lon="7.5992367"><ele>625.5714285714286</ele><time>2026-04-25T08:55:30.745Z</time></trkpt><trkpt lat="45.37423" lon="7.59914"><ele>625.8571428571429</ele><time>2026-04-25T08:55:32.743Z</time></trkpt><trkpt lat="45.3742283" lon="7.5990467"><ele>626.1428571428571</ele><time>2026-04-25T08:55:34.74Z</time></trkpt><trkpt lat="45.37422" lon="7.59895"><ele>626.4285714285714</ele><time>2026-04-25T08:55:36.742Z</time></trkpt><trkpt lat="45.374205" lon="7.598855"><ele>626.7142857142858</ele><time>2026-04-25T08:55:38.74Z</time></trkpt><trkpt lat="45.37419" lon="7.5987633"><ele>627.0</ele><time>2026-04-25T08:55:40.744Z</time></trkpt><trkpt lat="45.374165" lon="7.5986467"><ele>628.6666666666666</ele><time>2026-04-25T08:55:43.745Z</time></trkpt><trkpt lat="45.3741317" lon="7.5985317"><ele>630.3333333333334</ele><time>2026-04-25T08:55:46.741Z</time></trkpt><trkpt lat="45.37407" lon="7.598445"><ele>632.0</ele><time>2026-04-25T08:55:49.743Z</time></trkpt><trkpt lat="45.3739783" lon="7.598425"><ele>633.6666666666667</ele><time>2026-04-25T08:55:52.737Z</time></trkpt><trkpt lat="45.3738967" lon="7.598455"><ele>635.3333333333334</ele><time>2026-04-25T08:55:55.738Z</time></trkpt><trkpt lat="45.3738267" lon="7.598525"><ele>637.0</ele><time>2026-04-25T08:55:58.741Z</time></trkpt><trkpt lat="45.3737767" lon="7.5986"><ele>637.4285714285714</ele><time>2026-04-25T08:56:01.74Z</time></trkpt><trkpt lat="45.3737317" lon="7.5986667"><ele>637.8571428571429</ele><time>2026-04-25T08:56:03.744Z</time></trkpt><trkpt lat="45.373665" lon="7.5987467"><ele>638.2857142857142</ele><time>2026-04-25T08:56:06.739Z</time></trkpt><trkpt lat="45.3736083" lon="7.5988267"><ele>638.7142857142858</ele><time>2026-04-25T08:56:09.74Z</time></trkpt><trkpt lat="45.3735467" lon="7.5989117"><ele>639.1428571428571</ele><time>2026-04-25T08:56:12.741Z</time></trkpt><trkpt lat="45.3735033" lon="7.5989767"><ele>639.5714285714286</ele><time>2026-04-25T08:56:14.736Z</time></trkpt><trkpt lat="45.37346" lon="7.5990517"><ele>640.0</ele><time>2026-04-25T08:56:16.737Z</time></trkpt><trkpt lat="45.3734217" lon="7.5991283"><ele>639.0</ele><time>2026-04-25T08:56:18.743Z</time></trkpt><trkpt lat="45.373385" lon="7.5992483"><ele>638.0</ele><time>2026-04-25T08:56:21.738Z</time></trkpt><trkpt lat="45.3733433" lon="7.5993633"><ele>637.0</ele><time>2026-04-25T08:56:24.738Z</time></trkpt><trkpt lat="45.3733183" lon="7.59945"><ele>636.0</ele><time>2026-04-25T08:56:26.741Z</time></trkpt><trkpt lat="45.3732833" lon="7.59957"><ele>635.0</ele><time>2026-04-25T08:56:29.738Z</time></trkpt><trkpt lat="45.3732483" lon="7.59969"><ele>634.0</ele><time>2026-04-25T08:56:32.738Z</time></trkpt><trkpt lat="45.3732183" lon="7.599815"><ele>633.5</ele><time>2026-04-25T08:56:35.738Z</time></trkpt><trkpt lat="45.3732033" lon="7.5999033"><ele>633.0</ele><time>2026-04-25T08:56:37.738Z</time></trkpt><trkpt lat="45.3731733" lon="7.6000267"><ele>632.5</ele><time>2026-04-25T08:56:40.743Z</time></trkpt><trkpt lat="45.37314" lon="7.6001167"><ele>632.0</ele><time>2026-04-25T08:56:43.74Z</time></trkpt><trkpt lat="45.3731417" lon="7.6000017"><ele>631.5</ele><time>2026-04-25T08:56:48.741Z</time></trkpt><trkpt lat="45.3731533" lon="7.5999133"><ele>631.0</ele><time>2026-04-25T08:56:50.741Z</time></trkpt><trkpt lat="45.37317" lon="7.5997817"><ele>631.0</ele><time>2026-04-25T08:56:53.737Z</time></trkpt><trkpt lat="45.373185" lon="7.5996517"><ele>631.0</ele><time>2026-04-25T08:56:56.739Z</time></trkpt><trkpt lat="45.3731833" lon="7.599525"><ele>631.0</ele><time>2026-04-25T08:56:59.739Z</time></trkpt><trkpt lat="45.37318" lon="7.5994017"><ele>631.0</ele><time>2026-04-25T08:57:02.74Z</time></trkpt><trkpt lat="45.37318" lon="7.5993117"><ele>631.0</ele><time>2026-04-25T08:57:04.742Z</time></trkpt><trkpt lat="45.373175" lon="7.5991867"><ele>631.0</ele><time>2026-04-25T08:57:07.74Z</time></trkpt><trkpt lat="45.373165" lon="7.5990667"><ele>631.5</ele><time>2026-04-25T08:57:10.74Z</time></trkpt><trkpt lat="45.3731567" lon="7.598935"><ele>632.0</ele><time>2026-04-25T08:57:13.743Z</time></trkpt><trkpt lat="45.3731383" lon="7.5988133"><ele>632.5</ele><time>2026-04-25T08:57:16.741Z</time></trkpt><trkpt lat="45.37313" lon="7.5986867"><ele>633.0</ele><time>2026-04-25T08:57:19.737Z</time></trkpt><trkpt lat="45.3731367" lon="7.5985517"><ele>633.5</ele><time>2026-04-25T08:57:22.741Z</time></trkpt><trkpt lat="45.373145" lon="7.5984567"><ele>634.0</ele><time>2026-04-25T08:57:24.736Z</time></trkpt><trkpt lat="45.3731617" lon="7.5983333"><ele>635.0</ele><time>2026-04-25T08:57:27.741Z</time></trkpt><trkpt lat="45.373185" lon="7.5982067"><ele>636.0</ele><time>2026-04-25T08:57:30.741Z</time></trkpt><trkpt lat="45.3732033" lon="7.5981067"><ele>637.0</ele><time>2026-04-25T08:57:32.737Z</time></trkpt><trkpt lat="45.3732183" lon="7.5980083"><ele>638.0</ele><time>2026-04-25T08:57:34.743Z</time></trkpt><trkpt lat="45.373235" lon="7.5979117"><ele>639.0</ele><time>2026-04-25T08:57:36.738Z</time></trkpt><trkpt lat="45.3732433" lon="7.5978217"><ele>640.0</ele><time>2026-04-25T08:57:38.739Z</time></trkpt><trkpt lat="45.37325" lon="7.5976917"><ele>641.1666666666667</ele><time>2026-04-25T08:57:41.741Z</time></trkpt><trkpt lat="45.37323" lon="7.59758"><ele>642.3333333333334</ele><time>2026-04-25T08:57:44.745Z</time></trkpt><trkpt lat="45.37321" lon="7.5974517"><ele>643.5</ele><time>2026-04-25T08:57:47.74Z</time></trkpt><trkpt lat="45.3731967" lon="7.59736"><ele>644.6666666666666</ele><time>2026-04-25T08:57:49.747Z</time></trkpt><trkpt lat="45.3731867" lon="7.5972633"><ele>645.8333333333333</ele><time>2026-04-25T08:57:51.741Z</time></trkpt><trkpt lat="45.37318" lon="7.5971683"><ele>647.0</ele><time>2026-04-25T08:57:53.738Z</time></trkpt><trkpt lat="45.3731733" lon="7.5970333"><ele>647.3333333333333</ele><time>2026-04-25T08:57:56.741Z</time></trkpt><trkpt lat="45.3731767" lon="7.5969283"><ele>647.6666666666666</ele><time>2026-04-25T08:57:58.738Z</time></trkpt><trkpt lat="45.373185" lon="7.59683"><ele>648.0</ele><time>2026-04-25T08:58:00.739Z</time></trkpt><trkpt lat="45.3731933" lon="7.596725"><ele>648.3333333333334</ele><time>2026-04-25T08:58:02.737Z</time></trkpt><trkpt lat="45.3732033" lon="7.5966167"><ele>648.6666666666667</ele><time>2026-04-25T08:58:04.736Z</time></trkpt><trkpt lat="45.3732317" lon="7.596505"><ele>649.0</ele><time>2026-04-25T08:58:06.741Z</time></trkpt><trkpt lat="45.373255" lon="7.5963983"><ele>649.0</ele><time>2026-04-25T08:58:08.739Z</time></trkpt><trkpt lat="45.3732533" lon="7.5962783"><ele>649.0</ele><time>2026-04-25T08:58:10.745Z</time></trkpt><trkpt lat="45.3732317" lon="7.5961717"><ele>649.0</ele><time>2026-04-25T08:58:12.739Z</time></trkpt><trkpt lat="45.373195" lon="7.59604"><ele>649.0</ele><time>2026-04-25T08:58:14.742Z</time></trkpt><trkpt lat="45.3731717" lon="7.5959"><ele>649.0</ele><time>2026-04-25T08:58:16.736Z</time></trkpt><trkpt lat="45.3731667" lon="7.595755"><ele>649.3333333333334</ele><time>2026-04-25T08:58:18.741Z</time></trkpt><trkpt lat="45.37316" lon="7.5955917"><ele>649.6666666666667</ele><time>2026-04-25T08:58:20.745Z</time></trkpt><trkpt lat="45.373165" lon="7.5954167"><ele>650.0</ele><time>2026-04-25T08:58:22.743Z</time></trkpt><trkpt lat="45.3731667" lon="7.595325"><ele>650.3333333333334</ele><time>2026-04-25T08:58:23.741Z</time></trkpt><trkpt lat="45.37317" lon="7.5952333"><ele>650.6666666666666</ele><time>2026-04-25T08:58:24.737Z</time></trkpt><trkpt lat="45.3731733" lon="7.5951367"><ele>651.0</ele><time>2026-04-25T08:58:25.741Z</time></trkpt><trkpt lat="45.3731717" lon="7.595045"><ele>651.1999999999999</ele><time>2026-04-25T08:58:26.741Z</time></trkpt><trkpt lat="45.3731733" lon="7.59487"><ele>651.4</ele><time>2026-04-25T08:58:28.74Z</time></trkpt><trkpt lat="45.3731733" lon="7.59471"><ele>651.6</ele><time>2026-04-25T08:58:30.74Z</time></trkpt><trkpt lat="45.3731517" lon="7.5945567"><ele>651.8</ele><time>2026-04-25T08:58:32.743Z</time></trkpt><trkpt lat="45.37312" lon="7.5944183"><ele>652.0</ele><time>2026-04-25T08:58:34.739Z</time></trkpt><trkpt lat="45.3730817" lon="7.5943067"><ele>651.8333333333334</ele><time>2026-04-25T08:58:36.739Z</time></trkpt><trkpt lat="45.373045" lon="7.594215"><ele>651.6666666666667</ele><time>2026-04-25T08:58:38.739Z</time></trkpt><trkpt lat="45.373005" lon="7.5940967"><ele>651.5</ele><time>2026-04-25T08:58:41.739Z</time></trkpt><trkpt lat="45.3729967" lon="7.594"><ele>651.3333333333334</ele><time>2026-04-25T08:58:43.739Z</time></trkpt><trkpt lat="45.3730117" lon="7.5939017"><ele>651.1666666666666</ele><time>2026-04-25T08:58:45.745Z</time></trkpt><trkpt lat="45.3730233" lon="7.5937783"><ele>651.0</ele><time>2026-04-25T08:58:47.745Z</time></trkpt><trkpt lat="45.3730033" lon="7.5936433"><ele>651.0</ele><time>2026-04-25T08:58:49.746Z</time></trkpt><trkpt lat="45.3729467" lon="7.5935133"><ele>651.0</ele><time>2026-04-25T08:58:51.739Z</time></trkpt><trkpt lat="45.3728917" lon="7.593395"><ele>651.0</ele><time>2026-04-25T08:58:53.741Z</time></trkpt><trkpt lat="45.37284" lon="7.59328"><ele>651.0</ele><time>2026-04-25T08:58:55.739Z</time></trkpt><trkpt lat="45.3727883" lon="7.5931767"><ele>651.0</ele><time>2026-04-25T08:58:57.746Z</time></trkpt><trkpt lat="45.372735" lon="7.5930917"><ele>651.0</ele><time>2026-04-25T08:58:59.741Z</time></trkpt><trkpt lat="45.372685" lon="7.5930233"><ele>651.0</ele><time>2026-04-25T08:59:01.742Z</time></trkpt><trkpt lat="45.37263" lon="7.5929683"><ele>651.0</ele><time>2026-04-25T08:59:03.738Z</time></trkpt><trkpt lat="45.37257" lon="7.5929133"><ele>651.0</ele><time>2026-04-25T08:59:05.745Z</time></trkpt><trkpt lat="45.3725117" lon="7.5928633"><ele>651.0</ele><time>2026-04-25T08:59:07.742Z</time></trkpt><trkpt lat="45.37245" lon="7.59282"><ele>651.0</ele><time>2026-04-25T08:59:09.741Z</time></trkpt><trkpt lat="45.3723867" lon="7.5927983"><ele>651.0</ele><time>2026-04-25T08:59:11.743Z</time></trkpt><trkpt lat="45.3722967" lon="7.59278"><ele>653.0</ele><time>2026-04-25T08:59:14.741Z</time></trkpt><trkpt lat="45.3722233" lon="7.5927917"><ele>655.0</ele><time>2026-04-25T08:59:17.739Z</time></trkpt><trkpt lat="45.3721533" lon="7.5928217"><ele>657.0</ele><time>2026-04-25T08:59:20.742Z</time></trkpt><trkpt lat="45.37208" lon="7.5928483"><ele>659.0</ele><time>2026-04-25T08:59:23.742Z</time></trkpt><trkpt lat="45.3719967" lon="7.5928917"><ele>661.0</ele><time>2026-04-25T08:59:27.738Z</time></trkpt><trkpt lat="45.37191" lon="7.5929467"><ele>663.0</ele><time>2026-04-25T08:59:30.742Z</time></trkpt><trkpt lat="45.371855" lon="7.592995"><ele>663.0</ele><time>2026-04-25T08:59:32.744Z</time></trkpt><trkpt lat="45.3717783" lon="7.5930617"><ele>663.0</ele><time>2026-04-25T08:59:35.742Z</time></trkpt><trkpt lat="45.3716938" lon="7.5931115"><ele>663.0</ele><time>2026-04-25T08:59:38.74Z</time></trkpt><trkpt lat="45.3716303" lon="7.5931504"><ele>663.0</ele><time>2026-04-25T08:59:40.74Z</time></trkpt><trkpt lat="45.3715538" lon="7.5932031"><ele>663.0</ele><time>2026-04-25T08:59:42.764Z</time></trkpt><trkpt lat="45.3714733" lon="7.5932542"><ele>663.0</ele><time>2026-04-25T08:59:44.738Z</time></trkpt><trkpt lat="45.3713994" lon="7.5932974"><ele>662.3333333333334</ele><time>2026-04-25T08:59:46.736Z</time></trkpt><trkpt lat="45.3713282" lon="7.5933503"><ele>661.6666666666666</ele><time>2026-04-25T08:59:48.763Z</time></trkpt><trkpt lat="45.371271" lon="7.5934141"><ele>661.0</ele><time>2026-04-25T08:59:50.743Z</time></trkpt><trkpt lat="45.3712021" lon="7.5934903"><ele>660.3333333333333</ele><time>2026-04-25T08:59:53.741Z</time></trkpt><trkpt lat="45.3711377" lon="7.5935576"><ele>659.6666666666666</ele><time>2026-04-25T08:59:56.739Z</time></trkpt><trkpt lat="45.3710744" lon="7.5936237"><ele>659.0</ele><time>2026-04-25T08:59:59.742Z</time></trkpt><trkpt lat="45.3710127" lon="7.5936768"><ele>659.0</ele><time>2026-04-25T09:00:02.739Z</time></trkpt><trkpt lat="45.3709422" lon="7.5937182"><ele>659.0</ele><time>2026-04-25T09:00:05.738Z</time></trkpt><trkpt lat="45.3708761" lon="7.5936603"><ele>659.0</ele><time>2026-04-25T09:00:08.74Z</time></trkpt><trkpt lat="45.3709067" lon="7.5935714"><ele>659.0</ele><time>2026-04-25T09:00:11.738Z</time></trkpt><trkpt lat="45.3709473" lon="7.5934721"><ele>659.0</ele><time>2026-04-25T09:00:14.739Z</time></trkpt><trkpt lat="45.370973" lon="7.5933585"><ele>659.0</ele><time>2026-04-25T09:00:17.744Z</time></trkpt><trkpt lat="45.3709947" lon="7.5932585"><ele>659.0</ele><time>2026-04-25T09:00:20.743Z</time></trkpt><trkpt lat="45.3710235" lon="7.593145"><ele>659.0</ele><time>2026-04-25T09:00:24.754Z</time></trkpt><trkpt lat="45.3710613" lon="7.5930595"><ele>659.0</ele><time>2026-04-25T09:00:27.753Z</time></trkpt><trkpt lat="45.371115" lon="7.5929642"><ele>659.0</ele><time>2026-04-25T09:00:30.753Z</time></trkpt><trkpt lat="45.3711577" lon="7.5928622"><ele>659.0</ele><time>2026-04-25T09:00:33.752Z</time></trkpt><trkpt lat="45.371183" lon="7.592745"><ele>659.0</ele><time>2026-04-25T09:00:36.751Z</time></trkpt><trkpt lat="45.3712083" lon="7.5926517"><ele>659.4285714285714</ele><time>2026-04-25T09:00:39.772Z</time></trkpt><trkpt lat="45.3712478" lon="7.5925777"><ele>659.8571428571428</ele><time>2026-04-25T09:00:42.75Z</time></trkpt><trkpt lat="45.3712888" lon="7.5924963"><ele>660.2857142857142</ele><time>2026-04-25T09:00:45.749Z</time></trkpt><trkpt lat="45.3713286" lon="7.5924147"><ele>660.7142857142858</ele><time>2026-04-25T09:00:48.749Z</time></trkpt><trkpt lat="45.3713588" lon="7.5923287"><ele>661.1428571428571</ele><time>2026-04-25T09:00:51.748Z</time></trkpt><trkpt lat="45.3713963" lon="7.5922524"><ele>661.5714285714286</ele><time>2026-04-25T09:00:54.747Z</time></trkpt><trkpt lat="45.3714364" lon="7.5921665"><ele>662.0</ele><time>2026-04-25T09:00:57.697Z</time></trkpt><trkpt lat="45.3714971" lon="7.5920828"><ele>664.8571428571429</ele><time>2026-04-25T09:01:00.746Z</time></trkpt><trkpt lat="45.3715435" lon="7.591985"><ele>667.7142857142857</ele><time>2026-04-25T09:01:03.745Z</time></trkpt><trkpt lat="45.3715815" lon="7.5919032"><ele>670.5714285714286</ele><time>2026-04-25T09:01:06.744Z</time></trkpt><trkpt lat="45.3716058" lon="7.5918142"><ele>673.4285714285714</ele><time>2026-04-25T09:01:09.675Z</time></trkpt><trkpt lat="45.3716663" lon="7.5917344"><ele>676.2857142857143</ele><time>2026-04-25T09:01:13.74Z</time></trkpt><trkpt lat="45.3717089" lon="7.5916469"><ele>679.1428571428571</ele><time>2026-04-25T09:01:16.743Z</time></trkpt><trkpt lat="45.3717519" lon="7.5915719"><ele>682.0</ele><time>2026-04-25T09:01:19.693Z</time></trkpt><trkpt lat="45.3717909" lon="7.5914799"><ele>682.0</ele><time>2026-04-25T09:01:22.741Z</time></trkpt><trkpt lat="45.3718234" lon="7.5913991"><ele>682.0</ele><time>2026-04-25T09:01:25.743Z</time></trkpt><trkpt lat="45.3718562" lon="7.5912974"><ele>682.0</ele><time>2026-04-25T09:01:29.779Z</time></trkpt><trkpt lat="45.3718788" lon="7.5911939"><ele>682.0</ele><time>2026-04-25T09:01:32.739Z</time></trkpt><trkpt lat="45.3719151" lon="7.5910847"><ele>682.0</ele><time>2026-04-25T09:01:36.743Z</time></trkpt><trkpt lat="45.3719533" lon="7.5909967"><ele>682.0</ele><time>2026-04-25T09:01:39.74Z</time></trkpt><trkpt lat="45.3719967" lon="7.5909117"><ele>683.0</ele><time>2026-04-25T09:01:42.74Z</time></trkpt><trkpt lat="45.3720517" lon="7.5908167"><ele>684.0</ele><time>2026-04-25T09:01:45.74Z</time></trkpt><trkpt lat="45.3720983" lon="7.59073"><ele>685.0</ele><time>2026-04-25T09:01:48.742Z</time></trkpt><trkpt lat="45.372145" lon="7.5906433"><ele>686.0</ele><time>2026-04-25T09:01:51.741Z</time></trkpt><trkpt lat="45.37219" lon="7.590555"><ele>687.0</ele><time>2026-04-25T09:01:54.74Z</time></trkpt><trkpt lat="45.3722217" lon="7.5904667"><ele>688.0</ele><time>2026-04-25T09:01:57.741Z</time></trkpt><trkpt lat="45.372255" lon="7.5903867"><ele>689.6666666666667</ele><time>2026-04-25T09:02:00.739Z</time></trkpt><trkpt lat="45.3722933" lon="7.5902917"><ele>691.3333333333334</ele><time>2026-04-25T09:02:03.742Z</time></trkpt><trkpt lat="45.37233" lon="7.5901867"><ele>693.0</ele><time>2026-04-25T09:02:06.742Z</time></trkpt><trkpt lat="45.3723633" lon="7.5900917"><ele>694.6666666666666</ele><time>2026-04-25T09:02:09.742Z</time></trkpt><trkpt lat="45.3723967" lon="7.58999"><ele>696.3333333333333</ele><time>2026-04-25T09:02:12.74Z</time></trkpt><trkpt lat="45.372415" lon="7.5898867"><ele>698.0</ele><time>2026-04-25T09:02:15.74Z</time></trkpt><trkpt lat="45.372425" lon="7.5897783"><ele>698.0</ele><time>2026-04-25T09:02:18.739Z</time></trkpt><trkpt lat="45.37243" lon="7.5896717"><ele>698.0</ele><time>2026-04-25T09:02:21.74Z</time></trkpt><trkpt lat="45.3724233" lon="7.58957"><ele>698.0</ele><time>2026-04-25T09:02:24.739Z</time></trkpt><trkpt lat="45.3724167" lon="7.5894617"><ele>698.0</ele><time>2026-04-25T09:02:27.743Z</time></trkpt><trkpt lat="45.37242" lon="7.589355"><ele>698.0</ele><time>2026-04-25T09:02:30.739Z</time></trkpt><trkpt lat="45.3724383" lon="7.5892583"><ele>698.0</ele><time>2026-04-25T09:02:33.74Z</time></trkpt><trkpt lat="45.3724667" lon="7.589145"><ele>699.2857142857142</ele><time>2026-04-25T09:02:37.745Z</time></trkpt><trkpt lat="45.3724867" lon="7.5890433"><ele>700.5714285714286</ele><time>2026-04-25T09:02:40.742Z</time></trkpt><trkpt lat="45.3724983" lon="7.5889533"><ele>701.8571428571429</ele><time>2026-04-25T09:02:43.745Z</time></trkpt><trkpt lat="45.3724967" lon="7.5888567"><ele>703.1428571428571</ele><time>2026-04-25T09:02:46.739Z</time></trkpt><trkpt lat="45.3725" lon="7.5887433"><ele>704.4285714285714</ele><time>2026-04-25T09:02:50.739Z</time></trkpt><trkpt lat="45.37252" lon="7.5886333"><ele>705.7142857142857</ele><time>2026-04-25T09:02:55.738Z</time></trkpt><trkpt lat="45.3725667" lon="7.5885367"><ele>707.0</ele><time>2026-04-25T09:02:58.741Z</time></trkpt><trkpt lat="45.3726133" lon="7.5884417"><ele>708.2857142857143</ele><time>2026-04-25T09:03:01.742Z</time></trkpt><trkpt lat="45.3726617" lon="7.5883583"><ele>709.5714285714286</ele><time>2026-04-25T09:03:04.741Z</time></trkpt><trkpt lat="45.3727" lon="7.5882783"><ele>710.8571428571429</ele><time>2026-04-25T09:03:07.746Z</time></trkpt><trkpt lat="45.3727317" lon="7.5882"><ele>712.1428571428571</ele><time>2026-04-25T09:03:10.74Z</time></trkpt><trkpt lat="45.3727667" lon="7.5881167"><ele>713.4285714285714</ele><time>2026-04-25T09:03:13.74Z</time></trkpt><trkpt lat="45.3728117" lon="7.58803"><ele>714.7142857142858</ele><time>2026-04-25T09:03:17.738Z</time></trkpt><trkpt lat="45.37285" lon="7.587935"><ele>716.0</ele><time>2026-04-25T09:03:21.739Z</time></trkpt><trkpt lat="45.3728917" lon="7.5878533"><ele>716.2857142857143</ele><time>2026-04-25T09:03:24.746Z</time></trkpt><trkpt lat="45.3729333" lon="7.5877733"><ele>716.5714285714286</ele><time>2026-04-25T09:03:27.742Z</time></trkpt><trkpt lat="45.3729833" lon="7.5876867"><ele>716.8571428571429</ele><time>2026-04-25T09:03:30.744Z</time></trkpt><trkpt lat="45.3729917" lon="7.5875817"><ele>717.1428571428571</ele><time>2026-04-25T09:03:33.745Z</time></trkpt><trkpt lat="45.3729517" lon="7.587485"><ele>717.4285714285714</ele><time>2026-04-25T09:03:36.741Z</time></trkpt><trkpt lat="45.37291" lon="7.587405"><ele>717.7142857142858</ele><time>2026-04-25T09:03:39.74Z</time></trkpt><trkpt lat="45.3728583" lon="7.587325"><ele>718.0</ele><time>2026-04-25T09:03:43.744Z</time></trkpt><trkpt lat="45.372845" lon="7.5872333"><ele>718.0</ele><time>2026-04-25T09:03:46.741Z</time></trkpt><trkpt lat="45.3728317" lon="7.587125"><ele>718.0</ele><time>2026-04-25T09:03:49.74Z</time></trkpt><trkpt lat="45.3728267" lon="7.5869967"><ele>718.0</ele><time>2026-04-25T09:03:52.745Z</time></trkpt><trkpt lat="45.3728233" lon="7.5868967"><ele>718.0</ele><time>2026-04-25T09:03:54.741Z</time></trkpt><trkpt lat="45.3728117" lon="7.5867817"><ele>718.0</ele><time>2026-04-25T09:03:56.743Z</time></trkpt><trkpt lat="45.3727967" lon="7.58666"><ele>718.0</ele><time>2026-04-25T09:03:58.745Z</time></trkpt><trkpt lat="45.3727817" lon="7.586525"><ele>718.4</ele><time>2026-04-25T09:04:00.74Z</time></trkpt><trkpt lat="45.3727733" lon="7.5863817"><ele>718.8</ele><time>2026-04-25T09:04:02.74Z</time></trkpt><trkpt lat="45.3727833" lon="7.5862233"><ele>719.2</ele><time>2026-04-25T09:04:04.737Z</time></trkpt><trkpt lat="45.372845" lon="7.5860983"><ele>719.6</ele><time>2026-04-25T09:04:06.739Z</time></trkpt><trkpt lat="45.3729183" lon="7.5859717"><ele>720.0</ele><time>2026-04-25T09:04:08.741Z</time></trkpt><trkpt lat="45.3729817" lon="7.5858433"><ele>720.6666666666666</ele><time>2026-04-25T09:04:10.742Z</time></trkpt><trkpt lat="45.3730167" lon="7.5857083"><ele>721.3333333333334</ele><time>2026-04-25T09:04:12.741Z</time></trkpt><trkpt lat="45.37299" lon="7.5856017"><ele>722.0</ele><time>2026-04-25T09:04:14.742Z</time></trkpt><trkpt lat="45.3729283" lon="7.5855267"><ele>722.6666666666667</ele><time>2026-04-25T09:04:17.736Z</time></trkpt><trkpt lat="45.3728717" lon="7.58546"><ele>723.3333333333334</ele><time>2026-04-25T09:04:20.737Z</time></trkpt><trkpt lat="45.372855" lon="7.5853633"><ele>724.0</ele><time>2026-04-25T09:04:23.744Z</time></trkpt><trkpt lat="45.3728533" lon="7.5852567"><ele>726.4285714285714</ele><time>2026-04-25T09:04:26.741Z</time></trkpt><trkpt lat="45.3728333" lon="7.585145"><ele>728.8571428571429</ele><time>2026-04-25T09:04:29.741Z</time></trkpt><trkpt lat="45.37279" lon="7.58507"><ele>731.2857142857142</ele><time>2026-04-25T09:04:31.741Z</time></trkpt><trkpt lat="45.3727133" lon="7.5850717"><ele>733.7142857142858</ele><time>2026-04-25T09:04:34.738Z</time></trkpt><trkpt lat="45.3726567" lon="7.5851117"><ele>736.1428571428572</ele><time>2026-04-25T09:04:37.744Z</time></trkpt><trkpt lat="45.3725883" lon="7.585115"><ele>738.5714285714286</ele><time>2026-04-25T09:04:40.743Z</time></trkpt><trkpt lat="45.37252" lon="7.585065"><ele>741.0</ele><time>2026-04-25T09:04:43.738Z</time></trkpt><trkpt lat="45.3724417" lon="7.5850167"><ele>741.0</ele><time>2026-04-25T09:04:46.744Z</time></trkpt><trkpt lat="45.3723617" lon="7.5849683"><ele>741.0</ele><time>2026-04-25T09:04:49.744Z</time></trkpt><trkpt lat="45.3722833" lon="7.584935"><ele>741.0</ele><time>2026-04-25T09:04:52.739Z</time></trkpt><trkpt lat="45.3722" lon="7.5849033"><ele>741.0</ele><time>2026-04-25T09:04:55.737Z</time></trkpt><trkpt lat="45.372115" lon="7.5848917"><ele>741.0</ele><time>2026-04-25T09:04:58.738Z</time></trkpt><trkpt lat="45.3720367" lon="7.5848733"><ele>741.0</ele><time>2026-04-25T09:05:01.736Z</time></trkpt><trkpt lat="45.3719633" lon="7.5848417"><ele>740.1666666666666</ele><time>2026-04-25T09:05:04.74Z</time></trkpt><trkpt lat="45.3718933" lon="7.5848"><ele>739.3333333333334</ele><time>2026-04-25T09:05:07.743Z</time></trkpt><trkpt lat="45.371825" lon="7.5847567"><ele>738.5</ele><time>2026-04-25T09:05:10.739Z</time></trkpt><trkpt lat="45.3717433" lon="7.584715"><ele>737.6666666666667</ele><time>2026-04-25T09:05:13.742Z</time></trkpt><trkpt lat="45.3716667" lon="7.5846867"><ele>736.8333333333334</ele><time>2026-04-25T09:05:16.741Z</time></trkpt><trkpt lat="45.3715867" lon="7.5846567"><ele>736.0</ele><time>2026-04-25T09:05:19.74Z</time></trkpt><trkpt lat="45.37151" lon="7.584615"><ele>736.0</ele><time>2026-04-25T09:05:22.742Z</time></trkpt><trkpt lat="45.37144" lon="7.5845767"><ele>736.0</ele><time>2026-04-25T09:05:25.737Z</time></trkpt><trkpt lat="45.371395" lon="7.5844967"><ele>736.0</ele><time>2026-04-25T09:05:28.739Z</time></trkpt><trkpt lat="45.371395" lon="7.5843983"><ele>736.0</ele><time>2026-04-25T09:05:31.74Z</time></trkpt><trkpt lat="45.3714233" lon="7.5842983"><ele>736.0</ele><time>2026-04-25T09:05:34.742Z</time></trkpt><trkpt lat="45.3714733" lon="7.584205"><ele>736.0</ele><time>2026-04-25T09:05:37.739Z</time></trkpt><trkpt lat="45.3715367" lon="7.58415"><ele>736.0</ele><time>2026-04-25T09:05:40.735Z</time></trkpt><trkpt lat="45.3716117" lon="7.5841417"><ele>737.3333333333334</ele><time>2026-04-25T09:05:44.744Z</time></trkpt><trkpt lat="45.37168" lon="7.5841917"><ele>738.6666666666667</ele><time>2026-04-25T09:05:47.742Z</time></trkpt><trkpt lat="45.3717483" lon="7.5842433"><ele>740.0</ele><time>2026-04-25T09:05:50.742Z</time></trkpt><trkpt lat="45.3718283" lon="7.5842867"><ele>741.3333333333334</ele><time>2026-04-25T09:05:53.742Z</time></trkpt><trkpt lat="45.3719067" lon="7.5843317"><ele>742.6666666666666</ele><time>2026-04-25T09:05:56.742Z</time></trkpt><trkpt lat="45.3719917" lon="7.5843667"><ele>744.0</ele><time>2026-04-25T09:05:59.742Z</time></trkpt><trkpt lat="45.3720667" lon="7.58436"><ele>744.0000000000001</ele><time>2026-04-25T09:06:02.742Z</time></trkpt><trkpt lat="45.3721417" lon="7.5843433"><ele>744.0</ele><time>2026-04-25T09:06:05.749Z</time></trkpt><trkpt lat="45.3722083" lon="7.5843333"><ele>744.0</ele><time>2026-04-25T09:06:08.739Z</time></trkpt><trkpt lat="45.3722817" lon="7.584305"><ele>744.0</ele><time>2026-04-25T09:06:12.737Z</time></trkpt><trkpt lat="45.372355" lon="7.58429"><ele>744.0</ele><time>2026-04-25T09:06:15.748Z</time></trkpt><trkpt lat="45.3724217" lon="7.5842833"><ele>744.0000000000001</ele><time>2026-04-25T09:06:18.741Z</time></trkpt><trkpt lat="45.3724983" lon="7.5842833"><ele>744.0</ele><time>2026-04-25T09:06:22.738Z</time></trkpt><trkpt lat="45.3725733" lon="7.5842883"><ele>746.3333333333334</ele><time>2026-04-25T09:06:26.742Z</time></trkpt><trkpt lat="45.3726533" lon="7.5842833"><ele>748.6666666666666</ele><time>2026-04-25T09:06:30.743Z</time></trkpt><trkpt lat="45.3727333" lon="7.5842533"><ele>751.0</ele><time>2026-04-25T09:06:33.742Z</time></trkpt><trkpt lat="45.37281" lon="7.5841917"><ele>753.3333333333333</ele><time>2026-04-25T09:06:36.741Z</time></trkpt><trkpt lat="45.372855" lon="7.5841267"><ele>755.6666666666666</ele><time>2026-04-25T09:06:38.744Z</time></trkpt><trkpt lat="45.3729017" lon="7.584045"><ele>758.0</ele><time>2026-04-25T09:06:41.736Z</time></trkpt><trkpt lat="45.3729283" lon="7.583955"><ele>758.0000000000001</ele><time>2026-04-25T09:06:44.741Z</time></trkpt><trkpt lat="45.3729767" lon="7.5838783"><ele>758.0</ele><time>2026-04-25T09:06:47.749Z</time></trkpt><trkpt lat="45.3730367" lon="7.5838483"><ele>758.0</ele><time>2026-04-25T09:06:50.74Z</time></trkpt><trkpt lat="45.37311" lon="7.583875"><ele>758.0</ele><time>2026-04-25T09:06:53.75Z</time></trkpt><trkpt lat="45.3731783" lon="7.5839017"><ele>758.0</ele><time>2026-04-25T09:06:56.739Z</time></trkpt><trkpt lat="45.3732567" lon="7.5839267"><ele>758.0000000000001</ele><time>2026-04-25T09:06:59.748Z</time></trkpt><trkpt lat="45.37333" lon="7.5839433"><ele>758.0</ele><time>2026-04-25T09:07:02.747Z</time></trkpt><trkpt lat="45.3734083" lon="7.5839133"><ele>759.2857142857143</ele><time>2026-04-25T09:07:05.743Z</time></trkpt><trkpt lat="45.3734283" lon="7.5838167"><ele>760.5714285714286</ele><time>2026-04-25T09:07:08.742Z</time></trkpt><trkpt lat="45.3733883" lon="7.583735"><ele>761.8571428571429</ele><time>2026-04-25T09:07:11.742Z</time></trkpt><trkpt lat="45.3733367" lon="7.5836733"><ele>763.1428571428571</ele><time>2026-04-25T09:07:14.741Z</time></trkpt><trkpt lat="45.3732883" lon="7.583575"><ele>764.4285714285714</ele><time>2026-04-25T09:07:18.736Z</time></trkpt><trkpt lat="45.3732433" lon="7.5835083"><ele>765.7142857142858</ele><time>2026-04-25T09:07:21.742Z</time></trkpt><trkpt lat="45.37319" lon="7.5834417"><ele>767.0</ele><time>2026-04-25T09:07:24.742Z</time></trkpt><trkpt lat="45.3731233" lon="7.5833733"><ele>767.8571428571429</ele><time>2026-04-25T09:07:28.74Z</time></trkpt><trkpt lat="45.3730717" lon="7.5833183"><ele>768.7142857142858</ele><time>2026-04-25T09:07:31.746Z</time></trkpt><trkpt lat="45.3730683" lon="7.58321"><ele>769.5714285714286</ele><time>2026-04-25T09:07:35.741Z</time></trkpt><trkpt lat="45.3731317" lon="7.58315"><ele>770.4285714285714</ele><time>2026-04-25T09:07:39.735Z</time></trkpt><trkpt lat="45.3732" lon="7.5831167"><ele>771.2857142857142</ele><time>2026-04-25T09:07:42.737Z</time></trkpt><trkpt lat="45.3732717" lon="7.5831017"><ele>772.1428571428571</ele><time>2026-04-25T09:07:46.739Z</time></trkpt><trkpt lat="45.3733467" lon="7.5830817"><ele>773.0</ele><time>2026-04-25T09:07:50.741Z</time></trkpt><trkpt lat="45.37341" lon="7.5830733"><ele>773.0000000000001</ele><time>2026-04-25T09:07:53.743Z</time></trkpt><trkpt lat="45.3734767" lon="7.5830267"><ele>773.0</ele><time>2026-04-25T09:07:56.746Z</time></trkpt><trkpt lat="45.3735517" lon="7.582975"><ele>773.0</ele><time>2026-04-25T09:08:00.745Z</time></trkpt><trkpt lat="45.37362" lon="7.58293"><ele>773.0</ele><time>2026-04-25T09:08:04.744Z</time></trkpt><trkpt lat="45.3736833" lon="7.5828633"><ele>773.0000000000001</ele><time>2026-04-25T09:08:09.742Z</time></trkpt><trkpt lat="45.3737517" lon="7.5828083"><ele>773.0</ele><time>2026-04-25T09:08:13.74Z</time></trkpt><trkpt lat="45.3738333" lon="7.5827683"><ele>776.4285714285714</ele><time>2026-04-25T09:08:17.745Z</time></trkpt><trkpt lat="45.3739067" lon="7.582745"><ele>779.8571428571429</ele><time>2026-04-25T09:08:20.743Z</time></trkpt><trkpt lat="45.3739833" lon="7.582725"><ele>783.2857142857142</ele><time>2026-04-25T09:08:24.745Z</time></trkpt><trkpt lat="45.3740517" lon="7.58272"><ele>786.7142857142858</ele><time>2026-04-25T09:08:28.743Z</time></trkpt><trkpt lat="45.3741183" lon="7.5827417"><ele>790.1428571428572</ele><time>2026-04-25T09:08:32.744Z</time></trkpt><trkpt lat="45.3741967" lon="7.58278"><ele>793.5714285714286</ele><time>2026-04-25T09:08:36.745Z</time></trkpt><trkpt lat="45.3742633" lon="7.5827867"><ele>797.0</ele><time>2026-04-25T09:08:39.738Z</time></trkpt><trkpt lat="45.3743233" lon="7.5827433"><ele>797.0</ele><time>2026-04-25T09:08:43.748Z</time></trkpt><trkpt lat="45.3743117" lon="7.582645"><ele>797.0</ele><time>2026-04-25T09:08:48.74Z</time></trkpt><trkpt lat="45.3742717" lon="7.5825683"><ele>797.0</ele><time>2026-04-25T09:08:53.745Z</time></trkpt><trkpt lat="45.374235" lon="7.5824867"><ele>797.0</ele><time>2026-04-25T09:08:57.746Z</time></trkpt><trkpt lat="45.3741832" lon="7.5824037"><ele>797.0</ele><time>2026-04-25T09:09:03.743Z</time></trkpt><trkpt lat="45.3741529" lon="7.5822999"><ele>797.0</ele><time>2026-04-25T09:09:07.742Z</time></trkpt><trkpt lat="45.3741247" lon="7.5821995"><ele>797.0</ele><time>2026-04-25T09:09:11.752Z</time></trkpt><trkpt lat="45.3741645" lon="7.5821221"><ele>797.0</ele><time>2026-04-25T09:09:16.738Z</time></trkpt><trkpt lat="45.3742276" lon="7.5821211"><ele>797.0</ele><time>2026-04-25T09:09:20.752Z</time></trkpt><trkpt lat="45.3743057" lon="7.5821327"><ele>797.0</ele><time>2026-04-25T09:09:24.741Z</time></trkpt><trkpt lat="45.3743762" lon="7.5821309"><ele>797.0</ele><time>2026-04-25T09:09:28.751Z</time></trkpt><trkpt lat="45.3744412" lon="7.5820687"><ele>797.0</ele><time>2026-04-25T09:09:31.744Z</time></trkpt><trkpt lat="45.3744472" lon="7.5819657"><ele>797.0</ele><time>2026-04-25T09:09:34.739Z</time></trkpt><trkpt lat="45.3743876" lon="7.5819127"><ele>797.0</ele><time>2026-04-25T09:09:37.74Z</time></trkpt><trkpt lat="45.3743212" lon="7.5818994"><ele>798.4285714285714</ele><time>2026-04-25T09:09:40.738Z</time></trkpt><trkpt lat="45.3742534" lon="7.5818845"><ele>799.8571428571429</ele><time>2026-04-25T09:09:45.749Z</time></trkpt><trkpt lat="45.3742205" lon="7.5818069"><ele>801.2857142857143</ele><time>2026-04-25T09:09:50.747Z</time></trkpt><trkpt lat="45.3741869" lon="7.5817309"><ele>802.7142857142858</ele><time>2026-04-25T09:09:54.728Z</time></trkpt><trkpt lat="45.3742069" lon="7.5816366"><ele>804.1428571428571</ele><time>2026-04-25T09:09:58.728Z</time></trkpt><trkpt lat="45.3742753" lon="7.5815826"><ele>805.5714285714287</ele><time>2026-04-25T09:10:03.741Z</time></trkpt><trkpt lat="45.3743383" lon="7.5815517"><ele>807.0</ele><time>2026-04-25T09:10:05.74Z</time></trkpt><trkpt lat="45.374405" lon="7.581555"><ele>807.0000000000001</ele><time>2026-04-25T09:10:08.745Z</time></trkpt><trkpt lat="45.374485" lon="7.5815383"><ele>807.0</ele><time>2026-04-25T09:10:12.741Z</time></trkpt><trkpt lat="45.37456" lon="7.5815067"><ele>807.0</ele><time>2026-04-25T09:10:16.739Z</time></trkpt><trkpt lat="45.3746217" lon="7.58144"><ele>807.0</ele><time>2026-04-25T09:10:20.738Z</time></trkpt><trkpt lat="45.3746683" lon="7.58137"><ele>807.0</ele><time>2026-04-25T09:10:25.739Z</time></trkpt><trkpt lat="45.3747067" lon="7.5812783"><ele>807.0000000000001</ele><time>2026-04-25T09:10:29.743Z</time></trkpt><trkpt lat="45.3747517" lon="7.581205"><ele>807.0</ele><time>2026-04-25T09:10:33.744Z</time></trkpt><trkpt lat="45.3747867" lon="7.5811233"><ele>810.2857142857143</ele><time>2026-04-25T09:10:37.744Z</time></trkpt><trkpt lat="45.3748217" lon="7.5810217"><ele>813.5714285714286</ele><time>2026-04-25T09:10:42.737Z</time></trkpt><trkpt lat="45.3748517" lon="7.5809367"><ele>816.8571428571429</ele><time>2026-04-25T09:10:46.74Z</time></trkpt><trkpt lat="45.3748867" lon="7.58085"><ele>820.1428571428571</ele><time>2026-04-25T09:10:51.736Z</time></trkpt><trkpt lat="45.3749283" lon="7.5807717"><ele>823.4285714285714</ele><time>2026-04-25T09:10:55.745Z</time></trkpt><trkpt lat="45.3749733" lon="7.5806883"><ele>826.7142857142858</ele><time>2026-04-25T09:10:59.741Z</time></trkpt><trkpt lat="45.375005" lon="7.580585"><ele>830.0</ele><time>2026-04-25T09:11:03.74Z</time></trkpt><trkpt lat="45.3750283" lon="7.5804867"><ele>830.0</ele><time>2026-04-25T09:11:07.748Z</time></trkpt><trkpt lat="45.375045" lon="7.580395"><ele>830.0</ele><time>2026-04-25T09:11:11.741Z</time></trkpt><trkpt lat="45.3750433" lon="7.5802917"><ele>830.0</ele><time>2026-04-25T09:11:16.742Z</time></trkpt><trkpt lat="45.3750683" lon="7.5801867"><ele>830.0</ele><time>2026-04-25T09:11:21.745Z</time></trkpt><trkpt lat="45.375115" lon="7.5801033"><ele>830.0</ele><time>2026-04-25T09:11:26.74Z</time></trkpt><trkpt lat="45.3751867" lon="7.5800533"><ele>830.0</ele><time>2026-04-25T09:11:31.741Z</time></trkpt><trkpt lat="45.375245" lon="7.5800117"><ele>830.0</ele><time>2026-04-25T09:11:34.737Z</time></trkpt><trkpt lat="45.375315" lon="7.5799633"><ele>830.7142857142858</ele><time>2026-04-25T09:11:38.743Z</time></trkpt><trkpt lat="45.3753733" lon="7.5799133"><ele>831.4285714285714</ele><time>2026-04-25T09:11:41.74Z</time></trkpt><trkpt lat="45.3754283" lon="7.579855"><ele>832.1428571428571</ele><time>2026-04-25T09:11:44.737Z</time></trkpt><trkpt lat="45.3754917" lon="7.5797867"><ele>832.8571428571429</ele><time>2026-04-25T09:11:48.738Z</time></trkpt><trkpt lat="45.375545" lon="7.5797217"><ele>833.5714285714286</ele><time>2026-04-25T09:11:52.744Z</time></trkpt><trkpt lat="45.375605" lon="7.5796733"><ele>834.2857142857143</ele><time>2026-04-25T09:11:56.741Z</time></trkpt><trkpt lat="45.3756617" lon="7.57962"><ele>835.0</ele><time>2026-04-25T09:12:00.739Z</time></trkpt><trkpt lat="45.3757233" lon="7.57959"><ele>836.2857142857143</ele><time>2026-04-25T09:12:04.742Z</time></trkpt><trkpt lat="45.3758" lon="7.5795783"><ele>837.5714285714286</ele><time>2026-04-25T09:12:08.749Z</time></trkpt><trkpt lat="45.3758633" lon="7.5795717"><ele>838.8571428571429</ele><time>2026-04-25T09:12:11.742Z</time></trkpt><trkpt lat="45.375925" lon="7.5795533"><ele>840.1428571428571</ele><time>2026-04-25T09:12:14.745Z</time></trkpt><trkpt lat="45.375995" lon="7.5795417"><ele>841.4285714285714</ele><time>2026-04-25T09:12:17.749Z</time></trkpt><trkpt lat="45.3760717" lon="7.5795067"><ele>842.7142857142858</ele><time>2026-04-25T09:12:20.738Z</time></trkpt><trkpt lat="45.3761367" lon="7.5794583"><ele>844.0</ele><time>2026-04-25T09:12:23.735Z</time></trkpt><trkpt lat="45.376205" lon="7.5793933"><ele>846.9999999999999</ele><time>2026-04-25T09:12:27.739Z</time></trkpt><trkpt lat="45.3762633" lon="7.5793533"><ele>850.0</ele><time>2026-04-25T09:12:30.741Z</time></trkpt><trkpt lat="45.3763383" lon="7.5793067"><ele>853.0</ele><time>2026-04-25T09:12:33.742Z</time></trkpt><trkpt lat="45.3764167" lon="7.5792383"><ele>856.0</ele><time>2026-04-25T09:12:36.74Z</time></trkpt><trkpt lat="45.3764733" lon="7.579175"><ele>858.9999999999999</ele><time>2026-04-25T09:12:39.739Z</time></trkpt><trkpt lat="45.37655" lon="7.57912"><ele>862.0</ele><time>2026-04-25T09:12:42.74Z</time></trkpt><trkpt lat="45.3766283" lon="7.579085"><ele>862.7142857142858</ele><time>2026-04-25T09:12:46.742Z</time></trkpt><trkpt lat="45.3766967" lon="7.5790883"><ele>863.4285714285713</ele><time>2026-04-25T09:12:51.739Z</time></trkpt><trkpt lat="45.376775" lon="7.579075"><ele>864.1428571428571</ele><time>2026-04-25T09:12:55.743Z</time></trkpt><trkpt lat="45.3768483" lon="7.5790567"><ele>864.8571428571429</ele><time>2026-04-25T09:12:59.738Z</time></trkpt><trkpt lat="45.37692" lon="7.57904"><ele>865.5714285714287</ele><time>2026-04-25T09:13:02.74Z</time></trkpt><trkpt lat="45.3769833" lon="7.579035"><ele>866.2857142857142</ele><time>2026-04-25T09:13:05.743Z</time></trkpt><trkpt lat="45.3770617" lon="7.5789933"><ele>867.0</ele><time>2026-04-25T09:13:09.743Z</time></trkpt><trkpt lat="45.3771167" lon="7.578945"><ele>867.0</ele><time>2026-04-25T09:13:13.747Z</time></trkpt><trkpt lat="45.3771717" lon="7.57887"><ele>867.0</ele><time>2026-04-25T09:13:18.745Z</time></trkpt><trkpt lat="45.3772267" lon="7.578815"><ele>867.0</ele><time>2026-04-25T09:13:23.739Z</time></trkpt><trkpt lat="45.37733" lon="7.5787567"><ele>867.0</ele><time>2026-04-25T09:13:32.743Z</time></trkpt><trkpt lat="45.377392" lon="7.5787087"><ele>867.0</ele><time>2026-04-25T09:13:38.744Z</time></trkpt><trkpt lat="45.3774575" lon="7.5786527"><ele>867.0</ele><time>2026-04-25T09:13:42.742Z</time></trkpt><trkpt lat="45.3775181" lon="7.5786253"><ele>871.0</ele><time>2026-04-25T09:13:46.588Z</time></trkpt><trkpt lat="45.3775873" lon="7.5786146"><ele>875.0</ele><time>2026-04-25T09:13:50.747Z</time></trkpt><trkpt lat="45.3776687" lon="7.5785943"><ele>879.0</ele><time>2026-04-25T09:13:55.747Z</time></trkpt><trkpt lat="45.3777717" lon="7.5785633"><ele>883.0</ele><time>2026-04-25T09:13:59.747Z</time></trkpt><trkpt lat="45.3778483" lon="7.5785517"><ele>887.0</ele><time>2026-04-25T09:14:04.742Z</time></trkpt><trkpt lat="45.3779333" lon="7.57854"><ele>891.0</ele><time>2026-04-25T09:14:09.741Z</time></trkpt><trkpt lat="45.3780033" lon="7.5785583"><ele>890.8571428571429</ele><time>2026-04-25T09:14:13.742Z</time></trkpt><trkpt lat="45.3780783" lon="7.578565"><ele>890.7142857142858</ele><time>2026-04-25T09:14:18.745Z</time></trkpt><trkpt lat="45.3781317" lon="7.5785017"><ele>890.5714285714287</ele><time>2026-04-25T09:14:21.737Z</time></trkpt><trkpt lat="45.3781767" lon="7.5784267"><ele>890.4285714285714</ele><time>2026-04-25T09:14:26.74Z</time></trkpt><trkpt lat="45.378225" lon="7.5783617"><ele>890.2857142857142</ele><time>2026-04-25T09:14:31.737Z</time></trkpt><trkpt lat="45.37828" lon="7.57831"><ele>890.1428571428572</ele><time>2026-04-25T09:14:36.743Z</time></trkpt><trkpt lat="45.37836" lon="7.5782933"><ele>890.0</ele><time>2026-04-25T09:14:42.741Z</time></trkpt><trkpt lat="45.378425" lon="7.5782683"><ele>890.0</ele><time>2026-04-25T09:14:45.736Z</time></trkpt><trkpt lat="45.378505" lon="7.5782517"><ele>890.0</ele><time>2026-04-25T09:14:49.742Z</time></trkpt><trkpt lat="45.3785667" lon="7.57821"><ele>890.0</ele><time>2026-04-25T09:14:53.741Z</time></trkpt><trkpt lat="45.378635" lon="7.57816"><ele>890.0</ele><time>2026-04-25T09:14:57.74Z</time></trkpt><trkpt lat="45.3787067" lon="7.5781167"><ele>890.0</ele><time>2026-04-25T09:15:01.745Z</time></trkpt><trkpt lat="45.378775" lon="7.5780633"><ele>890.0</ele><time>2026-04-25T09:15:05.741Z</time></trkpt><trkpt lat="45.3788333" lon="7.5780267"><ele>890.0</ele><time>2026-04-25T09:15:08.74Z</time></trkpt><trkpt lat="45.378895" lon="7.5780033"><ele>890.2857142857143</ele><time>2026-04-25T09:15:11.739Z</time></trkpt><trkpt lat="45.3789667" lon="7.57799"><ele>890.5714285714286</ele><time>2026-04-25T09:15:15.738Z</time></trkpt><trkpt lat="45.3790467" lon="7.578005"><ele>890.8571428571429</ele><time>2026-04-25T09:15:20.739Z</time></trkpt><trkpt lat="45.3791183" lon="7.5780167"><ele>891.1428571428571</ele><time>2026-04-25T09:15:24.745Z</time></trkpt><trkpt lat="45.3791867" lon="7.5780333"><ele>891.4285714285713</ele><time>2026-04-25T09:15:28.743Z</time></trkpt><trkpt lat="45.3792617" lon="7.57806"><ele>891.7142857142857</ele><time>2026-04-25T09:15:34.741Z</time></trkpt><trkpt lat="45.3793283" lon="7.5780583"><ele>892.0</ele><time>2026-04-25T09:15:38.747Z</time></trkpt><trkpt lat="45.3794067" lon="7.5780383"><ele>892.0</ele><time>2026-04-25T09:15:42.744Z</time></trkpt><trkpt lat="45.3794767" lon="7.57802"><ele>892.0</ele><time>2026-04-25T09:15:45.742Z</time></trkpt><trkpt lat="45.3795483" lon="7.5779817"><ele>892.0</ele><time>2026-04-25T09:15:49.739Z</time></trkpt><trkpt lat="45.3796033" lon="7.5779317"><ele>892.0</ele><time>2026-04-25T09:15:53.74Z</time></trkpt><trkpt lat="45.3796683" lon="7.57789"><ele>892.0</ele><time>2026-04-25T09:15:58.74Z</time></trkpt><trkpt lat="45.37973" lon="7.5778533"><ele>892.0</ele><time>2026-04-25T09:16:02.739Z</time></trkpt><trkpt lat="45.3797933" lon="7.5778417"><ele>892.0</ele><time>2026-04-25T09:16:07.741Z</time></trkpt><trkpt lat="45.3798567" lon="7.577815"><ele>897.4285714285714</ele><time>2026-04-25T09:16:12.738Z</time></trkpt><trkpt lat="45.37993" lon="7.5777817"><ele>902.8571428571429</ele><time>2026-04-25T09:16:16.74Z</time></trkpt><trkpt lat="45.3799983" lon="7.577755"><ele>908.2857142857142</ele><time>2026-04-25T09:16:21.739Z</time></trkpt><trkpt lat="45.3800617" lon="7.5777367"><ele>913.7142857142858</ele><time>2026-04-25T09:16:25.738Z</time></trkpt><trkpt lat="45.38013" lon="7.5777183"><ele>919.1428571428572</ele><time>2026-04-25T09:16:29.738Z</time></trkpt><trkpt lat="45.3802" lon="7.5776967"><ele>924.5714285714286</ele><time>2026-04-25T09:16:33.742Z</time></trkpt><trkpt lat="45.38027" lon="7.5776967"><ele>930.0</ele><time>2026-04-25T09:16:37.738Z</time></trkpt><trkpt lat="45.3803467" lon="7.5777183"><ele>930.0</ele><time>2026-04-25T09:16:42.738Z</time></trkpt><trkpt lat="45.3804167" lon="7.5777733"><ele>930.0</ele><time>2026-04-25T09:16:47.745Z</time></trkpt><trkpt lat="45.3804933" lon="7.5778067"><ele>930.0</ele><time>2026-04-25T09:16:52.738Z</time></trkpt><trkpt lat="45.3805583" lon="7.5778167"><ele>930.0</ele><time>2026-04-25T09:16:56.74Z</time></trkpt><trkpt lat="45.3806267" lon="7.5778033"><ele>930.0</ele><time>2026-04-25T09:17:00.741Z</time></trkpt><trkpt lat="45.3806817" lon="7.5777567"><ele>930.0</ele><time>2026-04-25T09:17:04.741Z</time></trkpt><trkpt lat="45.38073" lon="7.5776983"><ele>930.0</ele><time>2026-04-25T09:17:08.744Z</time></trkpt><trkpt lat="45.3807267" lon="7.5776083"><ele>929.8333333333334</ele><time>2026-04-25T09:17:12.741Z</time></trkpt><trkpt lat="45.3806667" lon="7.577565"><ele>929.6666666666667</ele><time>2026-04-25T09:17:16.75Z</time></trkpt><trkpt lat="45.3805933" lon="7.5775467"><ele>929.5</ele><time>2026-04-25T09:17:21.739Z</time></trkpt><trkpt lat="45.38053" lon="7.5775267"><ele>929.3333333333334</ele><time>2026-04-25T09:17:26.741Z</time></trkpt><trkpt lat="45.3805567" lon="7.57741"><ele>929.1666666666667</ele><time>2026-04-25T09:17:35.739Z</time></trkpt><trkpt lat="45.38063" lon="7.5773583"><ele>929.0</ele><time>2026-04-25T09:17:39.738Z</time></trkpt><trkpt lat="45.3807017" lon="7.5773267"><ele>929.0</ele><time>2026-04-25T09:17:43.747Z</time></trkpt><trkpt lat="45.38077" lon="7.5772783"><ele>929.0000000000001</ele><time>2026-04-25T09:17:47.739Z</time></trkpt><trkpt lat="45.380825" lon="7.5772317"><ele>929.0</ele><time>2026-04-25T09:17:52.738Z</time></trkpt><trkpt lat="45.380875" lon="7.5771617"><ele>929.0</ele><time>2026-04-25T09:17:57.741Z</time></trkpt><trkpt lat="45.380915" lon="7.5770833"><ele>929.0000000000001</ele><time>2026-04-25T09:18:02.741Z</time></trkpt><trkpt lat="45.3809433" lon="7.5769933"><ele>929.0</ele><time>2026-04-25T09:18:06.74Z</time></trkpt><trkpt lat="45.38097" lon="7.5769067"><ele>929.0</ele><time>2026-04-25T09:18:10.743Z</time></trkpt><trkpt lat="45.380985" lon="7.5768183"><ele>932.2857142857143</ele><time>2026-04-25T09:18:14.741Z</time></trkpt><trkpt lat="45.3810061" lon="7.5767294"><ele>935.5714285714287</ele><time>2026-04-25T09:18:19.647Z</time></trkpt><trkpt lat="45.3810326" lon="7.5766391"><ele>938.8571428571429</ele><time>2026-04-25T09:18:23.739Z</time></trkpt><trkpt lat="45.3810473" lon="7.5765424"><ele>942.1428571428571</ele><time>2026-04-25T09:18:27.743Z</time></trkpt><trkpt lat="45.3810518" lon="7.5764477"><ele>945.4285714285714</ele><time>2026-04-25T09:18:32.738Z</time></trkpt><trkpt lat="45.3810574" lon="7.5763416"><ele>948.7142857142858</ele><time>2026-04-25T09:18:38.741Z</time></trkpt><trkpt lat="45.3810616" lon="7.5762517"><ele>952.0</ele><time>2026-04-25T09:18:42.741Z</time></trkpt><trkpt lat="45.3810712" lon="7.5761611"><ele>955.4999999999999</ele><time>2026-04-25T09:18:46.739Z</time></trkpt><trkpt lat="45.3810923" lon="7.5760522"><ele>959.0</ele><time>2026-04-25T09:18:51.74Z</time></trkpt><trkpt lat="45.3811133" lon="7.5759578"><ele>962.5</ele><time>2026-04-25T09:18:55.737Z</time></trkpt><trkpt lat="45.3811506" lon="7.5758668"><ele>966.0</ele><time>2026-04-25T09:18:59.736Z</time></trkpt><trkpt lat="45.3811964" lon="7.5757688"><ele>969.4999999999999</ele><time>2026-04-25T09:19:03.742Z</time></trkpt><trkpt lat="45.3812297" lon="7.5756726"><ele>973.0</ele><time>2026-04-25T09:19:07.737Z</time></trkpt><trkpt lat="45.3812079" lon="7.5755763"><ele>973.0</ele><time>2026-04-25T09:19:11.743Z</time></trkpt><trkpt lat="45.3811375" lon="7.5756081"><ele>973.0</ele><time>2026-04-25T09:19:16.74Z</time></trkpt><trkpt lat="45.3810907" lon="7.5756763"><ele>973.0</ele><time>2026-04-25T09:19:22.741Z</time></trkpt><trkpt lat="45.3810471" lon="7.5757416"><ele>973.0</ele><time>2026-04-25T09:19:27.741Z</time></trkpt><trkpt lat="45.380997" lon="7.5757983"><ele>973.0</ele><time>2026-04-25T09:19:32.739Z</time></trkpt><trkpt lat="45.3809388" lon="7.5758441"><ele>973.0</ele><time>2026-04-25T09:19:37.741Z</time></trkpt><trkpt lat="45.3808763" lon="7.5758833"><ele>973.0</ele><time>2026-04-25T09:19:42.743Z</time></trkpt><trkpt lat="45.3808045" lon="7.5759185"><ele>972.9999999999999</ele><time>2026-04-25T09:19:51.74Z</time></trkpt><trkpt lat="45.3807454" lon="7.5759552"><ele>973.0</ele><time>2026-04-25T09:19:54.74Z</time></trkpt><trkpt lat="45.3806835" lon="7.5760045"><ele>973.0</ele><time>2026-04-25T09:19:57.738Z</time></trkpt><trkpt lat="45.3806163" lon="7.5760512"><ele>973.0</ele><time>2026-04-25T09:20:00.74Z</time></trkpt><trkpt lat="45.380525" lon="7.5761067"><ele>972.9999999999999</ele><time>2026-04-25T09:20:04.741Z</time></trkpt><trkpt lat="45.3804583" lon="7.5760933"><ele>973.0</ele><time>2026-04-25T09:20:09.738Z</time></trkpt><trkpt lat="45.3804617" lon="7.575985"><ele>973.0</ele><time>2026-04-25T09:20:18.74Z</time></trkpt><trkpt lat="45.38053" lon="7.5759317"><ele>973.0</ele><time>2026-04-25T09:20:23.739Z</time></trkpt><trkpt lat="45.38057" lon="7.575855"><ele>973.0</ele><time>2026-04-25T09:20:28.741Z</time></trkpt><trkpt lat="45.3806133" lon="7.5757783"><ele>973.0</ele><time>2026-04-25T09:20:32.739Z</time></trkpt><trkpt lat="45.3806483" lon="7.5757"><ele>973.0</ele><time>2026-04-25T09:20:36.741Z</time></trkpt><trkpt lat="45.3807" lon="7.57562"><ele>973.0</ele><time>2026-04-25T09:20:40.739Z</time></trkpt><trkpt lat="45.3807533" lon="7.575565"><ele>973.0</ele><time>2026-04-25T09:20:44.74Z</time></trkpt><trkpt lat="45.3807867" lon="7.5754817"><ele>972.9999999999999</ele><time>2026-04-25T09:20:49.738Z</time></trkpt><trkpt lat="45.3808144" lon="7.5753871"><ele>973.0</ele><time>2026-04-25T09:20:54.739Z</time></trkpt><trkpt lat="45.3808252" lon="7.5752848"><ele>973.0</ele><time>2026-04-25T09:20:58.74Z</time></trkpt><trkpt lat="45.3808404" lon="7.5751906"><ele>973.0</ele><time>2026-04-25T09:21:01.744Z</time></trkpt><trkpt lat="45.3808339" lon="7.5750924"><ele>972.9999999999999</ele><time>2026-04-25T09:21:05.758Z</time></trkpt><trkpt lat="45.3808417" lon="7.5749367"><ele>973.0</ele><time>2026-04-25T09:21:10.743Z</time></trkpt><trkpt lat="45.380865" lon="7.5748383"><ele>974.8571428571429</ele><time>2026-04-25T09:21:14.74Z</time></trkpt><trkpt lat="45.3809033" lon="7.574745"><ele>976.7142857142858</ele><time>2026-04-25T09:21:18.742Z</time></trkpt><trkpt lat="45.3809467" lon="7.574665"><ele>978.5714285714286</ele><time>2026-04-25T09:21:22.738Z</time></trkpt><trkpt lat="45.38099" lon="7.5745883"><ele>980.4285714285714</ele><time>2026-04-25T09:21:25.739Z</time></trkpt><trkpt lat="45.3810283" lon="7.5744883"><ele>982.2857142857143</ele><time>2026-04-25T09:21:28.742Z</time></trkpt><trkpt lat="45.3810633" lon="7.5743883"><ele>984.1428571428571</ele><time>2026-04-25T09:21:32.74Z</time></trkpt><trkpt lat="45.3810833" lon="7.5742867"><ele>986.0</ele><time>2026-04-25T09:21:36.742Z</time></trkpt><trkpt lat="45.3811083" lon="7.5742033"><ele>984.7142857142857</ele><time>2026-04-25T09:21:39.74Z</time></trkpt><trkpt lat="45.38114" lon="7.5741"><ele>983.4285714285716</ele><time>2026-04-25T09:21:43.739Z</time></trkpt><trkpt lat="45.38119" lon="7.5740117"><ele>982.1428571428572</ele><time>2026-04-25T09:21:48.742Z</time></trkpt><trkpt lat="45.381245" lon="7.573945"><ele>980.8571428571429</ele><time>2026-04-25T09:21:52.739Z</time></trkpt><trkpt lat="45.381285" lon="7.573875"><ele>979.5714285714287</ele><time>2026-04-25T09:21:56.746Z</time></trkpt><trkpt lat="45.3813317" lon="7.5738133"><ele>978.2857142857144</ele><time>2026-04-25T09:22:01.744Z</time></trkpt><trkpt lat="45.38137" lon="7.57373"><ele>977.0000000000001</ele><time>2026-04-25T09:22:05.739Z</time></trkpt><trkpt lat="45.3814067" lon="7.57364"><ele>981.0000000000001</ele><time>2026-04-25T09:22:09.74Z</time></trkpt><trkpt lat="45.3814333" lon="7.5735583"><ele>985.0</ele><time>2026-04-25T09:22:13.741Z</time></trkpt><trkpt lat="45.3814733" lon="7.5734867"><ele>989.0</ele><time>2026-04-25T09:22:17.743Z</time></trkpt><trkpt lat="45.3815433" lon="7.5734167"><ele>993.0</ele><time>2026-04-25T09:22:23.74Z</time></trkpt><trkpt lat="45.381615" lon="7.5733083"><ele>997.0000000000001</ele><time>2026-04-25T09:22:29.743Z</time></trkpt><trkpt lat="45.38167" lon="7.57323"><ele>1001.0</ele><time>2026-04-25T09:22:32.741Z</time></trkpt><trkpt lat="45.38172" lon="7.57317"><ele>1001.0000000000001</ele><time>2026-04-25T09:22:36.739Z</time></trkpt><trkpt lat="45.3817683" lon="7.5730967"><ele>1001.0</ele><time>2026-04-25T09:22:39.743Z</time></trkpt><trkpt lat="45.3818267" lon="7.5730117"><ele>1001.0</ele><time>2026-04-25T09:22:44.743Z</time></trkpt><trkpt lat="45.3818783" lon="7.572945"><ele>1001.0</ele><time>2026-04-25T09:22:47.741Z</time></trkpt><trkpt lat="45.381937" lon="7.572896"><ele>1001.0000000000001</ele><time>2026-04-25T09:22:52.739Z</time></trkpt><trkpt lat="45.3819931" lon="7.5728178"><ele>1001.0</ele><time>2026-04-25T09:22:57.741Z</time></trkpt><trkpt lat="45.382038" lon="7.5727234"><ele>1004.4285714285714</ele><time>2026-04-25T09:23:01.775Z</time></trkpt><trkpt lat="45.3820631" lon="7.5726167"><ele>1007.8571428571429</ele><time>2026-04-25T09:23:05.741Z</time></trkpt><trkpt lat="45.3820673" lon="7.5725216"><ele>1011.2857142857142</ele><time>2026-04-25T09:23:09.74Z</time></trkpt><trkpt lat="45.382055" lon="7.5724282"><ele>1014.7142857142857</ele><time>2026-04-25T09:23:14.795Z</time></trkpt><trkpt lat="45.3820912" lon="7.5723227"><ele>1018.1428571428571</ele><time>2026-04-25T09:23:18.739Z</time></trkpt><trkpt lat="45.3821158" lon="7.5722119"><ele>1021.5714285714284</ele><time>2026-04-25T09:23:23.739Z</time></trkpt><trkpt lat="45.3821425" lon="7.5721275"><ele>1025.0</ele><time>2026-04-25T09:23:27.674Z</time></trkpt><trkpt lat="45.3821647" lon="7.5720291"><ele>1024.5714285714284</ele><time>2026-04-25T09:23:32.75Z</time></trkpt><trkpt lat="45.3821629" lon="7.5719264"><ele>1024.142857142857</ele><time>2026-04-25T09:23:36.79Z</time></trkpt><trkpt lat="45.3821534" lon="7.5718272"><ele>1023.7142857142857</ele><time>2026-04-25T09:23:40.765Z</time></trkpt><trkpt lat="45.3821524" lon="7.571719"><ele>1023.2857142857142</ele><time>2026-04-25T09:23:45.741Z</time></trkpt><trkpt lat="45.3821705" lon="7.5716263"><ele>1022.8571428571429</ele><time>2026-04-25T09:23:50.745Z</time></trkpt><trkpt lat="45.3822024" lon="7.5715287"><ele>1022.4285714285714</ele><time>2026-04-25T09:23:56.739Z</time></trkpt><trkpt lat="45.382233" lon="7.5714396"><ele>1022.0</ele><time>2026-04-25T09:24:03.692Z</time></trkpt><trkpt lat="45.3821886" lon="7.5713598"><ele>1025.7142857142858</ele><time>2026-04-25T09:24:08.741Z</time></trkpt><trkpt lat="45.3821248" lon="7.5713167"><ele>1029.4285714285716</ele><time>2026-04-25T09:24:13.794Z</time></trkpt><trkpt lat="45.3820791" lon="7.5713824"><ele>1033.142857142857</ele><time>2026-04-25T09:24:26.74Z</time></trkpt><trkpt lat="45.3820287" lon="7.5714426"><ele>1036.857142857143</ele><time>2026-04-25T09:24:31.753Z</time></trkpt><trkpt lat="45.3820327" lon="7.5715792"><ele>1040.5714285714287</ele><time>2026-04-25T09:24:32.741Z</time></trkpt><trkpt lat="45.3819878" lon="7.5716556"><ele>1044.2857142857142</ele><time>2026-04-25T09:24:35.739Z</time></trkpt><trkpt lat="45.3819358" lon="7.5717318"><ele>1048.0</ele><time>2026-04-25T09:24:39.741Z</time></trkpt><trkpt lat="45.38188" lon="7.57181"><ele>1048.0</ele><time>2026-04-25T09:24:42.741Z</time></trkpt><trkpt lat="45.38184" lon="7.5718833"><ele>1048.0</ele><time>2026-04-25T09:24:46.742Z</time></trkpt><trkpt lat="45.3817917" lon="7.57195"><ele>1048.0</ele><time>2026-04-25T09:27:46.744Z</time></trkpt><trkpt lat="45.3817383" lon="7.5719983"><ele>1048.0</ele><time>2026-04-25T09:27:50.737Z</time></trkpt><trkpt lat="45.381665" lon="7.5720583"><ele>1048.0</ele><time>2026-04-25T09:27:56.742Z</time></trkpt><trkpt lat="45.3816167" lon="7.57213"><ele>1048.0</ele><time>2026-04-25T09:28:00.741Z</time></trkpt><trkpt lat="45.3815467" lon="7.5721817"><ele>1048.0</ele><time>2026-04-25T09:28:05.741Z</time></trkpt><trkpt lat="45.3814633" lon="7.5721733"><ele>1048.2857142857142</ele><time>2026-04-25T09:28:09.741Z</time></trkpt><trkpt lat="45.38139" lon="7.572165"><ele>1048.5714285714287</ele><time>2026-04-25T09:28:13.743Z</time></trkpt><trkpt lat="45.3813267" lon="7.5721783"><ele>1048.857142857143</ele><time>2026-04-25T09:28:16.741Z</time></trkpt><trkpt lat="45.3812617" lon="7.5721817"><ele>1049.142857142857</ele><time>2026-04-25T09:28:20.745Z</time></trkpt><trkpt lat="45.3811983" lon="7.5721967"><ele>1049.4285714285716</ele><time>2026-04-25T09:28:24.741Z</time></trkpt><trkpt lat="45.38113" lon="7.572215"><ele>1049.7142857142858</ele><time>2026-04-25T09:28:28.742Z</time></trkpt><trkpt lat="45.3810683" lon="7.5722483"><ele>1050.0</ele><time>2026-04-25T09:28:32.742Z</time></trkpt><trkpt lat="45.3810133" lon="7.572295"><ele>1050.0</ele><time>2026-04-25T09:28:35.743Z</time></trkpt><trkpt lat="45.3809517" lon="7.5723483"><ele>1050.0</ele><time>2026-04-25T09:28:38.745Z</time></trkpt><trkpt lat="45.3808983" lon="7.5724117"><ele>1050.0</ele><time>2026-04-25T09:28:41.742Z</time></trkpt><trkpt lat="45.38084" lon="7.5724883"><ele>1050.0</ele><time>2026-04-25T09:28:45.739Z</time></trkpt><trkpt lat="45.3808" lon="7.57256"><ele>1050.0</ele><time>2026-04-25T09:28:49.745Z</time></trkpt><trkpt lat="45.3807467" lon="7.5726217"><ele>1050.0</ele><time>2026-04-25T09:28:53.736Z</time></trkpt><trkpt lat="45.3807" lon="7.5727017"><ele>1050.0</ele><time>2026-04-25T09:28:57.745Z</time></trkpt><trkpt lat="45.38065" lon="7.5727667"><ele>1050.0</ele><time>2026-04-25T09:29:01.745Z</time></trkpt><trkpt lat="45.3805967" lon="7.5728283"><ele>1050.0</ele><time>2026-04-25T09:29:06.745Z</time></trkpt><trkpt lat="45.3805283" lon="7.5728917"><ele>1050.0</ele><time>2026-04-25T09:29:10.738Z</time></trkpt><trkpt lat="45.380455" lon="7.57294"><ele>1050.0</ele><time>2026-04-25T09:29:14.742Z</time></trkpt><trkpt lat="45.3803817" lon="7.5729767"><ele>1050.0</ele><time>2026-04-25T09:29:18.738Z</time></trkpt><trkpt lat="45.3803183" lon="7.573025"><ele>1050.0</ele><time>2026-04-25T09:29:22.738Z</time></trkpt><trkpt lat="45.3802467" lon="7.5730783"><ele>1050.4285714285713</ele><time>2026-04-25T09:29:27.739Z</time></trkpt><trkpt lat="45.3801833" lon="7.5731233"><ele>1050.857142857143</ele><time>2026-04-25T09:29:31.743Z</time></trkpt><trkpt lat="45.3801117" lon="7.5731717"><ele>1051.2857142857142</ele><time>2026-04-25T09:29:36.738Z</time></trkpt><trkpt lat="45.380045" lon="7.573215"><ele>1051.7142857142858</ele><time>2026-04-25T09:29:40.738Z</time></trkpt><trkpt lat="45.3799883" lon="7.5732583"><ele>1052.142857142857</ele><time>2026-04-25T09:29:44.742Z</time></trkpt><trkpt lat="45.3799217" lon="7.5733133"><ele>1052.5714285714284</ele><time>2026-04-25T09:29:49.745Z</time></trkpt><trkpt lat="45.3798617" lon="7.5733583"><ele>1053.0</ele><time>2026-04-25T09:29:53.74Z</time></trkpt><trkpt lat="45.379805" lon="7.5734133"><ele>1052.9999999999998</ele><time>2026-04-25T09:29:57.745Z</time></trkpt><trkpt lat="45.3797317" lon="7.5734533"><ele>1053.0</ele><time>2026-04-25T09:30:01.742Z</time></trkpt><trkpt lat="45.3796633" lon="7.5734283"><ele>1053.0</ele><time>2026-04-25T09:30:05.74Z</time></trkpt><trkpt lat="45.3796633" lon="7.5733317"><ele>1053.0</ele><time>2026-04-25T09:30:10.741Z</time></trkpt><trkpt lat="45.379685" lon="7.573245"><ele>1053.0</ele><time>2026-04-25T09:30:15.739Z</time></trkpt><trkpt lat="45.37972" lon="7.57317"><ele>1052.9999999999998</ele><time>2026-04-25T09:30:19.745Z</time></trkpt><trkpt lat="45.37976" lon="7.57309"><ele>1053.0</ele><time>2026-04-25T09:30:23.738Z</time></trkpt><trkpt lat="45.3798033" lon="7.5730117"><ele>1052.9999999999998</ele><time>2026-04-25T09:30:27.738Z</time></trkpt><trkpt lat="45.3798367" lon="7.5729233"><ele>1053.0</ele><time>2026-04-25T09:30:31.746Z</time></trkpt><trkpt lat="45.3798733" lon="7.572835"><ele>1053.0</ele><time>2026-04-25T09:30:37.74Z</time></trkpt><trkpt lat="45.3799242" lon="7.572752"><ele>1053.0</ele><time>2026-04-25T09:30:42.741Z</time></trkpt><trkpt lat="45.3799773" lon="7.5726887"><ele>1053.0</ele><time>2026-04-25T09:30:46.738Z</time></trkpt><trkpt lat="45.3800318" lon="7.5726286"><ele>1052.9999999999998</ele><time>2026-04-25T09:30:50.491Z</time></trkpt><trkpt lat="45.3800782" lon="7.5725525"><ele>1053.0</ele><time>2026-04-25T09:30:54.744Z</time></trkpt><trkpt lat="45.3801236" lon="7.572475"><ele>1055.8571428571427</ele><time>2026-04-25T09:30:59.589Z</time></trkpt><trkpt lat="45.3801477" lon="7.572384"><ele>1058.7142857142858</ele><time>2026-04-25T09:31:03.745Z</time></trkpt><trkpt lat="45.3801779" lon="7.5722876"><ele>1061.5714285714284</ele><time>2026-04-25T09:31:07.747Z</time></trkpt><trkpt lat="45.3801983" lon="7.5721883"><ele>1064.4285714285713</ele><time>2026-04-25T09:31:11.742Z</time></trkpt><trkpt lat="45.3802133" lon="7.5720883"><ele>1067.2857142857142</ele><time>2026-04-25T09:31:15.739Z</time></trkpt><trkpt lat="45.38023" lon="7.5719867"><ele>1070.142857142857</ele><time>2026-04-25T09:31:19.742Z</time></trkpt><trkpt lat="45.3802317" lon="7.57188"><ele>1073.0</ele><time>2026-04-25T09:31:24.744Z</time></trkpt><trkpt lat="45.38024" lon="7.5717783"><ele>1075.0</ele><time>2026-04-25T09:31:28.745Z</time></trkpt><trkpt lat="45.3802483" lon="7.571685"><ele>1077.0</ele><time>2026-04-25T09:31:33.744Z</time></trkpt><trkpt lat="45.3802383" lon="7.571585"><ele>1079.0</ele><time>2026-04-25T09:31:38.739Z</time></trkpt><trkpt lat="45.380235" lon="7.57149"><ele>1081.0</ele><time>2026-04-25T09:31:43.741Z</time></trkpt><trkpt lat="45.3801883" lon="7.571425"><ele>1083.0</ele><time>2026-04-25T09:31:50.738Z</time></trkpt><trkpt lat="45.3801267" lon="7.57149"><ele>1085.0</ele><time>2026-04-25T09:31:58.74Z</time></trkpt><trkpt lat="45.38009" lon="7.5715633"><ele>1087.0</ele><time>2026-04-25T09:32:03.741Z</time></trkpt><trkpt lat="45.3800483" lon="7.5716317"><ele>1087.0</ele><time>2026-04-25T09:32:08.745Z</time></trkpt><trkpt lat="45.3799867" lon="7.571715"><ele>1087.0</ele><time>2026-04-25T09:32:12.741Z</time></trkpt><trkpt lat="45.3799367" lon="7.5718117"><ele>1087.0</ele><time>2026-04-25T09:32:17.741Z</time></trkpt><trkpt lat="45.3798917" lon="7.571885"><ele>1087.0</ele><time>2026-04-25T09:32:21.738Z</time></trkpt><trkpt lat="45.37983" lon="7.5719467"><ele>1087.0</ele><time>2026-04-25T09:32:25.738Z</time></trkpt><trkpt lat="45.3797667" lon="7.5719083"><ele>1087.0</ele><time>2026-04-25T09:32:29.748Z</time></trkpt><trkpt lat="45.3797067" lon="7.5718383"><ele>1087.5714285714284</ele><time>2026-04-25T09:32:34.738Z</time></trkpt><trkpt lat="45.3796517" lon="7.5717933"><ele>1088.142857142857</ele><time>2026-04-25T09:32:38.737Z</time></trkpt><trkpt lat="45.3795733" lon="7.57175"><ele>1088.7142857142858</ele><time>2026-04-25T09:32:42.747Z</time></trkpt><trkpt lat="45.379505" lon="7.57172"><ele>1089.2857142857142</ele><time>2026-04-25T09:32:46.741Z</time></trkpt><trkpt lat="45.37944" lon="7.57165"><ele>1089.857142857143</ele><time>2026-04-25T09:32:51.738Z</time></trkpt><trkpt lat="45.3794017" lon="7.5715717"><ele>1090.4285714285713</ele><time>2026-04-25T09:32:54.737Z</time></trkpt><trkpt lat="45.3793683" lon="7.5714833"><ele>1091.0</ele><time>2026-04-25T09:32:57.737Z</time></trkpt><trkpt lat="45.37934" lon="7.5713717"><ele>1091.0</ele><time>2026-04-25T09:33:01.741Z</time></trkpt><trkpt lat="45.3793517" lon="7.5712483"><ele>1091.0</ele><time>2026-04-25T09:33:05.742Z</time></trkpt><trkpt lat="45.3793633" lon="7.57114"><ele>1091.0</ele><time>2026-04-25T09:33:09.74Z</time></trkpt><trkpt lat="45.3793717" lon="7.5710367"><ele>1091.0</ele><time>2026-04-25T09:33:12.74Z</time></trkpt><trkpt lat="45.3793633" lon="7.570935"><ele>1091.0</ele><time>2026-04-25T09:33:15.741Z</time></trkpt><trkpt lat="45.3793583" lon="7.57083"><ele>1091.0</ele><time>2026-04-25T09:33:19.738Z</time></trkpt><trkpt lat="45.3793583" lon="7.5707117"><ele>1091.8333333333335</ele><time>2026-04-25T09:33:23.738Z</time></trkpt><trkpt lat="45.3793733" lon="7.5706067"><ele>1092.6666666666667</ele><time>2026-04-25T09:33:27.74Z</time></trkpt><trkpt lat="45.3793717" lon="7.5705083"><ele>1093.5</ele><time>2026-04-25T09:33:31.736Z</time></trkpt><trkpt lat="45.3793283" lon="7.5704183"><ele>1094.3333333333333</ele><time>2026-04-25T09:33:35.744Z</time></trkpt><trkpt lat="45.3792833" lon="7.5703317"><ele>1095.1666666666665</ele><time>2026-04-25T09:33:39.74Z</time></trkpt><trkpt lat="45.37923" lon="7.5702483"><ele>1096.0</ele><time>2026-04-25T09:33:43.742Z</time></trkpt><trkpt lat="45.3791683" lon="7.5701833"><ele>1098.3333333333333</ele><time>2026-04-25T09:33:47.743Z</time></trkpt><trkpt lat="45.379115" lon="7.5701167"><ele>1100.6666666666665</ele><time>2026-04-25T09:33:51.744Z</time></trkpt><trkpt lat="45.3790567" lon="7.5700383"><ele>1103.0</ele><time>2026-04-25T09:33:55.739Z</time></trkpt><trkpt lat="45.3790183" lon="7.5699367"><ele>1105.3333333333333</ele><time>2026-04-25T09:33:59.741Z</time></trkpt><trkpt lat="45.3789717" lon="7.5698417"><ele>1107.6666666666667</ele><time>2026-04-25T09:34:03.738Z</time></trkpt><trkpt lat="45.3789417" lon="7.5697617"><ele>1110.0</ele><time>2026-04-25T09:34:06.739Z</time></trkpt><trkpt lat="45.3788967" lon="7.5696767"><ele>1109.0000000000002</ele><time>2026-04-25T09:34:10.743Z</time></trkpt><trkpt lat="45.3788467" lon="7.5695867"><ele>1108.0</ele><time>2026-04-25T09:34:14.738Z</time></trkpt><trkpt lat="45.3787867" lon="7.56952"><ele>1107.0</ele><time>2026-04-25T09:34:17.744Z</time></trkpt><trkpt lat="45.3787533" lon="7.5694267"><ele>1106.0</ele><time>2026-04-25T09:34:21.749Z</time></trkpt><trkpt lat="45.378735" lon="7.569315"><ele>1105.0</ele><time>2026-04-25T09:34:25.736Z</time></trkpt><trkpt lat="45.3787433" lon="7.56922"><ele>1104.0000000000002</ele><time>2026-04-25T09:34:28.74Z</time></trkpt><trkpt lat="45.37876" lon="7.5691317"><ele>1103.0</ele><time>2026-04-25T09:34:30.741Z</time></trkpt><trkpt lat="45.3787667" lon="7.56904"><ele>1103.0000000000002</ele><time>2026-04-25T09:34:32.739Z</time></trkpt><trkpt lat="45.3787717" lon="7.5689483"><ele>1103.0</ele><time>2026-04-25T09:34:34.736Z</time></trkpt><trkpt lat="45.3787617" lon="7.5688533"><ele>1103.0</ele><time>2026-04-25T09:34:36.74Z</time></trkpt><trkpt lat="45.3787333" lon="7.5687633"><ele>1103.0</ele><time>2026-04-25T09:34:38.745Z</time></trkpt><trkpt lat="45.3786883" lon="7.5686917"><ele>1103.0</ele><time>2026-04-25T09:34:40.743Z</time></trkpt><trkpt lat="45.378615" lon="7.5686217"><ele>1103.0000000000002</ele><time>2026-04-25T09:34:43.743Z</time></trkpt><trkpt lat="45.3785517" lon="7.5685867"><ele>1103.0</ele><time>2026-04-25T09:34:45.741Z</time></trkpt><trkpt lat="45.3784733" lon="7.5685633"><ele>1104.4285714285716</ele><time>2026-04-25T09:34:48.743Z</time></trkpt><trkpt lat="45.3784017" lon="7.5685467"><ele>1105.857142857143</ele><time>2026-04-25T09:34:51.745Z</time></trkpt><trkpt lat="45.3783317" lon="7.5684983"><ele>1107.2857142857142</ele><time>2026-04-25T09:34:55.743Z</time></trkpt><trkpt lat="45.3782767" lon="7.5684333"><ele>1108.7142857142858</ele><time>2026-04-25T09:34:59.742Z</time></trkpt><trkpt lat="45.378275" lon="7.56833"><ele>1110.142857142857</ele><time>2026-04-25T09:35:03.741Z</time></trkpt><trkpt lat="45.3782917" lon="7.5682117"><ele>1111.5714285714287</ele><time>2026-04-25T09:35:07.744Z</time></trkpt><trkpt lat="45.3783033" lon="7.568115"><ele>1113.0</ele><time>2026-04-25T09:35:10.742Z</time></trkpt><trkpt lat="45.3783367" lon="7.5680083"><ele>1113.0</ele><time>2026-04-25T09:35:14.738Z</time></trkpt><trkpt lat="45.378375" lon="7.5679117"><ele>1113.0</ele><time>2026-04-25T09:35:17.744Z</time></trkpt><trkpt lat="45.3784083" lon="7.5678317"><ele>1113.0</ele><time>2026-04-25T09:35:20.741Z</time></trkpt><trkpt lat="45.3784483" lon="7.5677617"><ele>1113.0</ele><time>2026-04-25T09:35:24.743Z</time></trkpt><trkpt lat="45.3784883" lon="7.5676883"><ele>1113.0</ele><time>2026-04-25T09:35:28.74Z</time></trkpt><trkpt lat="45.3785167" lon="7.567585"><ele>1113.0</ele><time>2026-04-25T09:35:32.74Z</time></trkpt><trkpt lat="45.3785517" lon="7.5675"><ele>1113.0</ele><time>2026-04-25T09:35:35.742Z</time></trkpt><trkpt lat="45.3785767" lon="7.56741"><ele>1112.2857142857142</ele><time>2026-04-25T09:35:38.738Z</time></trkpt><trkpt lat="45.3786067" lon="7.5673267"><ele>1111.5714285714284</ele><time>2026-04-25T09:35:41.74Z</time></trkpt><trkpt lat="45.3786733" lon="7.5672667"><ele>1110.857142857143</ele><time>2026-04-25T09:35:45.742Z</time></trkpt><trkpt lat="45.378695" lon="7.567355"><ele>1110.142857142857</ele><time>2026-04-25T09:35:49.743Z</time></trkpt><trkpt lat="45.3786533" lon="7.5674367"><ele>1109.4285714285713</ele><time>2026-04-25T09:35:52.737Z</time></trkpt><trkpt lat="45.3786217" lon="7.5675383"><ele>1108.7142857142858</ele><time>2026-04-25T09:35:56.737Z</time></trkpt><trkpt lat="45.3786117" lon="7.5676317"><ele>1108.0</ele><time>2026-04-25T09:36:00.738Z</time></trkpt><trkpt lat="45.3786067" lon="7.5677467"><ele>1108.0</ele><time>2026-04-25T09:36:05.742Z</time></trkpt><trkpt lat="45.3786267" lon="7.5678367"><ele>1108.0</ele><time>2026-04-25T09:36:08.739Z</time></trkpt><trkpt lat="45.3786933" lon="7.5678767"><ele>1108.0</ele><time>2026-04-25T09:36:13.741Z</time></trkpt><trkpt lat="45.3787683" lon="7.56786"><ele>1108.0</ele><time>2026-04-25T09:36:17.739Z</time></trkpt><trkpt lat="45.3788367" lon="7.567875"><ele>1108.0</ele><time>2026-04-25T09:36:22.737Z</time></trkpt><trkpt lat="45.3789146" lon="7.5678777"><ele>1108.0</ele><time>2026-04-25T09:36:28.741Z</time></trkpt><trkpt lat="45.3789901" lon="7.5678792"><ele>1108.0</ele><time>2026-04-25T09:36:33.741Z</time></trkpt><trkpt lat="45.379059" lon="7.5678634"><ele>1111.5714285714284</ele><time>2026-04-25T09:36:37.745Z</time></trkpt><trkpt lat="45.3791251" lon="7.5678472"><ele>1115.142857142857</ele><time>2026-04-25T09:36:41.742Z</time></trkpt><trkpt lat="45.3791884" lon="7.5678574"><ele>1118.7142857142858</ele><time>2026-04-25T09:36:45.735Z</time></trkpt><trkpt lat="45.3792574" lon="7.5678672"><ele>1122.2857142857142</ele><time>2026-04-25T09:36:49.711Z</time></trkpt><trkpt lat="45.3793319" lon="7.567916"><ele>1125.857142857143</ele><time>2026-04-25T09:36:53.772Z</time></trkpt><trkpt lat="45.3793853" lon="7.5679669"><ele>1129.4285714285713</ele><time>2026-04-25T09:36:58.741Z</time></trkpt><trkpt lat="45.3794366" lon="7.5680215"><ele>1133.0</ele><time>2026-04-25T09:37:02.769Z</time></trkpt><trkpt lat="45.3795034" lon="7.5680871"><ele>1133.0</ele><time>2026-04-25T09:37:07.739Z</time></trkpt><trkpt lat="45.3795665" lon="7.5681385"><ele>1133.0</ele><time>2026-04-25T09:37:11.765Z</time></trkpt><trkpt lat="45.3796263" lon="7.5681859"><ele>1133.0</ele><time>2026-04-25T09:37:15.739Z</time></trkpt><trkpt lat="45.379688" lon="7.5682269"><ele>1133.0</ele><time>2026-04-25T09:37:18.737Z</time></trkpt><trkpt lat="45.3797462" lon="7.5682701"><ele>1133.0</ele><time>2026-04-25T09:37:22.777Z</time></trkpt><trkpt lat="45.3798117" lon="7.5682783"><ele>1133.0</ele><time>2026-04-25T09:37:26.74Z</time></trkpt><trkpt lat="45.3798717" lon="7.56834"><ele>1133.0</ele><time>2026-04-25T09:37:31.738Z</time></trkpt><trkpt lat="45.379945" lon="7.5683767"><ele>1137.0</ele><time>2026-04-25T09:37:36.738Z</time></trkpt><trkpt lat="45.3800083" lon="7.5684333"><ele>1141.0</ele><time>2026-04-25T09:37:40.74Z</time></trkpt><trkpt lat="45.380065" lon="7.5684783"><ele>1145.0</ele><time>2026-04-25T09:37:43.736Z</time></trkpt><trkpt lat="45.3801233" lon="7.568525"><ele>1149.0</ele><time>2026-04-25T09:37:46.741Z</time></trkpt><trkpt lat="45.3801767" lon="7.56858"><ele>1153.0</ele><time>2026-04-25T09:37:49.74Z</time></trkpt><trkpt lat="45.3802467" lon="7.5686267"><ele>1157.0</ele><time>2026-04-25T09:37:53.735Z</time></trkpt><trkpt lat="45.38031" lon="7.5686317"><ele>1161.0</ele><time>2026-04-25T09:37:56.738Z</time></trkpt><trkpt lat="45.3803883" lon="7.568655"><ele>1161.0</ele><time>2026-04-25T09:38:01.741Z</time></trkpt><trkpt lat="45.3804517" lon="7.56864"><ele>1161.0</ele><time>2026-04-25T09:38:05.741Z</time></trkpt><trkpt lat="45.3805167" lon="7.5685917"><ele>1161.0</ele><time>2026-04-25T09:38:09.744Z</time></trkpt><trkpt lat="45.3805753" lon="7.5685395"><ele>1161.0</ele><time>2026-04-25T09:38:13.74Z</time></trkpt><trkpt lat="45.3806359" lon="7.5684671"><ele>1161.0</ele><time>2026-04-25T09:38:17.752Z</time></trkpt><trkpt lat="45.3806916" lon="7.568418"><ele>1161.0</ele><time>2026-04-25T09:38:20.749Z</time></trkpt><trkpt lat="45.3807549" lon="7.56834"><ele>1161.0</ele><time>2026-04-25T09:38:24.738Z</time></trkpt><trkpt lat="45.3808017" lon="7.568275"><ele>1161.857142857143</ele><time>2026-04-25T09:38:28.738Z</time></trkpt><trkpt lat="45.38085" lon="7.568215"><ele>1162.7142857142858</ele><time>2026-04-25T09:38:32.739Z</time></trkpt><trkpt lat="45.3809033" lon="7.5681467"><ele>1163.5714285714287</ele><time>2026-04-25T09:38:36.738Z</time></trkpt><trkpt lat="45.3809567" lon="7.568075"><ele>1164.4285714285716</ele><time>2026-04-25T09:38:39.739Z</time></trkpt><trkpt lat="45.3809783" lon="7.5679733"><ele>1165.2857142857144</ele><time>2026-04-25T09:38:44.745Z</time></trkpt><trkpt lat="45.3809883" lon="7.5678817"><ele>1166.142857142857</ele><time>2026-04-25T09:38:48.74Z</time></trkpt><trkpt lat="45.3810017" lon="7.56777"><ele>1167.0</ele><time>2026-04-25T09:38:53.746Z</time></trkpt><trkpt lat="45.38102" lon="7.5676783"><ele>1169.4285714285716</ele><time>2026-04-25T09:38:55.739Z</time></trkpt><trkpt lat="45.38104" lon="7.5675767"><ele>1171.857142857143</ele><time>2026-04-25T09:38:58.742Z</time></trkpt><trkpt lat="45.38105" lon="7.567455"><ele>1174.2857142857142</ele><time>2026-04-25T09:39:02.742Z</time></trkpt><trkpt lat="45.3810517" lon="7.5673633"><ele>1176.7142857142858</ele><time>2026-04-25T09:39:05.745Z</time></trkpt><trkpt lat="45.3810617" lon="7.5672567"><ele>1179.142857142857</ele><time>2026-04-25T09:39:09.74Z</time></trkpt><trkpt lat="45.3810867" lon="7.5671733"><ele>1181.5714285714287</ele><time>2026-04-25T09:39:13.741Z</time></trkpt><trkpt lat="45.3811133" lon="7.5670883"><ele>1184.0</ele><time>2026-04-25T09:39:16.74Z</time></trkpt><trkpt lat="45.3811367" lon="7.567"><ele>1185.142857142857</ele><time>2026-04-25T09:39:19.745Z</time></trkpt><trkpt lat="45.381155" lon="7.5669117"><ele>1186.2857142857142</ele><time>2026-04-25T09:39:22.74Z</time></trkpt><trkpt lat="45.3811667" lon="7.5668017"><ele>1187.4285714285713</ele><time>2026-04-25T09:39:26.739Z</time></trkpt><trkpt lat="45.3811733" lon="7.5667"><ele>1188.5714285714284</ele><time>2026-04-25T09:39:31.746Z</time></trkpt><trkpt lat="45.3812067" lon="7.5666083"><ele>1189.7142857142856</ele><time>2026-04-25T09:39:36.741Z</time></trkpt><trkpt lat="45.3812467" lon="7.566515"><ele>1190.857142857143</ele><time>2026-04-25T09:39:40.739Z</time></trkpt><trkpt lat="45.3812917" lon="7.5664367"><ele>1192.0</ele><time>2026-04-25T09:39:43.74Z</time></trkpt><trkpt lat="45.3813333" lon="7.5663383"><ele>1192.0</ele><time>2026-04-25T09:39:49.742Z</time></trkpt><trkpt lat="45.3813097" lon="7.5662449"><ele>1192.0</ele><time>2026-04-25T09:39:53.74Z</time></trkpt><trkpt lat="45.3812468" lon="7.5662248"><ele>1192.0</ele><time>2026-04-25T09:39:57.739Z</time></trkpt><trkpt lat="45.3811896" lon="7.5662753"><ele>1192.0</ele><time>2026-04-25T09:40:01.765Z</time></trkpt><trkpt lat="45.381126" lon="7.5663423"><ele>1192.0</ele><time>2026-04-25T09:40:06.74Z</time></trkpt><trkpt lat="45.3810691" lon="7.5663942"><ele>1192.0</ele><time>2026-04-25T09:40:10.763Z</time></trkpt><trkpt lat="45.3810171" lon="7.5664574"><ele>1192.0</ele><time>2026-04-25T09:40:14.742Z</time></trkpt><trkpt lat="45.3809657" lon="7.5665285"><ele>1192.0</ele><time>2026-04-25T09:40:18.743Z</time></trkpt><trkpt lat="45.3809173" lon="7.5665981"><ele>1192.0</ele><time>2026-04-25T09:40:23.744Z</time></trkpt><trkpt lat="45.3808697" lon="7.5666648"><ele>1192.0</ele><time>2026-04-25T09:40:27.738Z</time></trkpt><trkpt lat="45.3808065" lon="7.5666145"><ele>1192.0</ele><time>2026-04-25T09:40:33.67Z</time></trkpt><trkpt lat="45.380822" lon="7.5665009"><ele>1192.0</ele><time>2026-04-25T09:40:36.741Z</time></trkpt><trkpt lat="45.3808183" lon="7.5663917"><ele>1192.0</ele><time>2026-04-25T09:40:40.743Z</time></trkpt><trkpt lat="45.3808283" lon="7.5663017"><ele>1192.0</ele><time>2026-04-25T09:40:43.741Z</time></trkpt><trkpt lat="45.38083" lon="7.56621"><ele>1193.4285714285713</ele><time>2026-04-25T09:40:47.742Z</time></trkpt><trkpt lat="45.3808117" lon="7.5661067"><ele>1194.8571428571427</ele><time>2026-04-25T09:40:52.74Z</time></trkpt><trkpt lat="45.3807983" lon="7.565995"><ele>1196.2857142857142</ele><time>2026-04-25T09:40:57.742Z</time></trkpt><trkpt lat="45.3808038" lon="7.5658924"><ele>1197.7142857142858</ele><time>2026-04-25T09:41:03.773Z</time></trkpt><trkpt lat="45.3808253" lon="7.5658033"><ele>1199.1428571428573</ele><time>2026-04-25T09:41:06.738Z</time></trkpt><trkpt lat="45.3808404" lon="7.5657138"><ele>1200.5714285714284</ele><time>2026-04-25T09:41:10.711Z</time></trkpt><trkpt lat="45.3808665" lon="7.5656205"><ele>1202.0</ele><time>2026-04-25T09:41:14.741Z</time></trkpt><trkpt lat="45.3809018" lon="7.5655396"><ele>1202.0</ele><time>2026-04-25T09:41:18.742Z</time></trkpt><trkpt lat="45.3809767" lon="7.5654883"><ele>1202.0</ele><time>2026-04-25T09:41:22.742Z</time></trkpt><trkpt lat="45.381055" lon="7.5654833"><ele>1202.0</ele><time>2026-04-25T09:41:26.741Z</time></trkpt><trkpt lat="45.3811283" lon="7.565495"><ele>1202.0</ele><time>2026-04-25T09:41:29.741Z</time></trkpt><trkpt lat="45.381195" lon="7.5655267"><ele>1202.0</ele><time>2026-04-25T09:41:32.741Z</time></trkpt><trkpt lat="45.3812717" lon="7.565575"><ele>1202.0</ele><time>2026-04-25T09:41:36.738Z</time></trkpt><trkpt lat="45.3813433" lon="7.565625"><ele>1204.0</ele><time>2026-04-25T09:41:40.74Z</time></trkpt><trkpt lat="45.3814033" lon="7.5656667"><ele>1206.0</ele><time>2026-04-25T09:41:43.739Z</time></trkpt><trkpt lat="45.3814683" lon="7.5656967"><ele>1208.0</ele><time>2026-04-25T09:41:46.742Z</time></trkpt><trkpt lat="45.381535" lon="7.5657367"><ele>1210.0</ele><time>2026-04-25T09:41:49.746Z</time></trkpt><trkpt lat="45.381615" lon="7.565765"><ele>1212.0</ele><time>2026-04-25T09:41:52.741Z</time></trkpt><trkpt lat="45.3816983" lon="7.5658083"><ele>1214.0</ele><time>2026-04-25T09:41:55.74Z</time></trkpt><trkpt lat="45.38176" lon="7.565865"><ele>1213.9999999999998</ele><time>2026-04-25T09:41:58.743Z</time></trkpt><trkpt lat="45.3818167" lon="7.5659283"><ele>1214.0</ele><time>2026-04-25T09:42:01.743Z</time></trkpt><trkpt lat="45.38189" lon="7.5659733"><ele>1214.0</ele><time>2026-04-25T09:42:04.743Z</time></trkpt><trkpt lat="45.3819517" lon="7.5659983"><ele>1214.0</ele><time>2026-04-25T09:42:07.744Z</time></trkpt><trkpt lat="45.3820233" lon="7.566025"><ele>1214.0</ele><time>2026-04-25T09:42:10.747Z</time></trkpt><trkpt lat="45.3820883" lon="7.56606"><ele>1213.9999999999998</ele><time>2026-04-25T09:42:13.741Z</time></trkpt><trkpt lat="45.382155" lon="7.5660633"><ele>1214.0</ele><time>2026-04-25T09:42:16.743Z</time></trkpt><trkpt lat="45.382225" lon="7.56605"><ele>1214.8333333333335</ele><time>2026-04-25T09:42:19.738Z</time></trkpt><trkpt lat="45.3823067" lon="7.5660233"><ele>1215.6666666666667</ele><time>2026-04-25T09:42:23.742Z</time></trkpt><trkpt lat="45.382395" lon="7.5660067"><ele>1216.5</ele><time>2026-04-25T09:42:26.739Z</time></trkpt><trkpt lat="45.3824717" lon="7.5659933"><ele>1217.3333333333333</ele><time>2026-04-25T09:42:29.741Z</time></trkpt><trkpt lat="45.3825483" lon="7.5659817"><ele>1218.1666666666665</ele><time>2026-04-25T09:42:32.739Z</time></trkpt><trkpt lat="45.38264" lon="7.565975"><ele>1219.0</ele><time>2026-04-25T09:42:35.743Z</time></trkpt><trkpt lat="45.3827233" lon="7.5659567"><ele>1219.0</ele><time>2026-04-25T09:42:38.738Z</time></trkpt><trkpt lat="45.3827967" lon="7.5659283"><ele>1219.0</ele><time>2026-04-25T09:42:41.743Z</time></trkpt><trkpt lat="45.3828683" lon="7.5658867"><ele>1219.0</ele><time>2026-04-25T09:42:45.739Z</time></trkpt><trkpt lat="45.3829367" lon="7.5658367"><ele>1219.0</ele><time>2026-04-25T09:42:48.74Z</time></trkpt><trkpt lat="45.38301" lon="7.5657817"><ele>1219.0</ele><time>2026-04-25T09:42:51.741Z</time></trkpt><trkpt lat="45.3830683" lon="7.5657117"><ele>1219.0</ele><time>2026-04-25T09:42:54.739Z</time></trkpt><trkpt lat="45.3831317" lon="7.5656367"><ele>1217.5714285714287</ele><time>2026-04-25T09:42:58.738Z</time></trkpt><trkpt lat="45.383165" lon="7.5655583"><ele>1216.142857142857</ele><time>2026-04-25T09:43:01.739Z</time></trkpt><trkpt lat="45.383205" lon="7.5654783"><ele>1214.7142857142858</ele><time>2026-04-25T09:43:05.742Z</time></trkpt><trkpt lat="45.3832517" lon="7.5653833"><ele>1213.2857142857142</ele><time>2026-04-25T09:43:09.74Z</time></trkpt><trkpt lat="45.3832917" lon="7.5653067"><ele>1211.857142857143</ele><time>2026-04-25T09:43:12.748Z</time></trkpt><trkpt lat="45.3833283" lon="7.5652233"><ele>1210.4285714285713</ele><time>2026-04-25T09:43:17.74Z</time></trkpt><trkpt lat="45.3833667" lon="7.5651283"><ele>1209.0</ele><time>2026-04-25T09:43:21.738Z</time></trkpt><trkpt lat="45.38341" lon="7.5650533"><ele>1213.3333333333333</ele><time>2026-04-25T09:43:24.743Z</time></trkpt><trkpt lat="45.3834667" lon="7.5649583"><ele>1217.6666666666667</ele><time>2026-04-25T09:43:28.74Z</time></trkpt><trkpt lat="45.383525" lon="7.56489"><ele>1222.0</ele><time>2026-04-25T09:43:31.739Z</time></trkpt><trkpt lat="45.383585" lon="7.5648417"><ele>1226.3333333333335</ele><time>2026-04-25T09:43:34.739Z</time></trkpt><trkpt lat="45.3836467" lon="7.564795"><ele>1230.6666666666667</ele><time>2026-04-25T09:43:37.736Z</time></trkpt><trkpt lat="45.3837167" lon="7.5647317"><ele>1235.0</ele><time>2026-04-25T09:43:41.742Z</time></trkpt><trkpt lat="45.3837867" lon="7.5646733"><ele>1236.8571428571427</ele><time>2026-04-25T09:43:45.746Z</time></trkpt><trkpt lat="45.3838483" lon="7.5646283"><ele>1238.7142857142858</ele><time>2026-04-25T09:43:49.743Z</time></trkpt><trkpt lat="45.3839183" lon="7.5645883"><ele>1240.5714285714284</ele><time>2026-04-25T09:43:53.742Z</time></trkpt><trkpt lat="45.3839917" lon="7.564535"><ele>1242.4285714285713</ele><time>2026-04-25T09:43:57.74Z</time></trkpt><trkpt lat="45.384045" lon="7.5644783"><ele>1244.2857142857142</ele><time>2026-04-25T09:44:02.743Z</time></trkpt><trkpt lat="45.3840883" lon="7.5643933"><ele>1246.142857142857</ele><time>2026-04-25T09:44:06.74Z</time></trkpt><trkpt lat="45.3841533" lon="7.5643267"><ele>1248.0</ele><time>2026-04-25T09:44:10.737Z</time></trkpt><trkpt lat="45.384215" lon="7.56427"><ele>1248.0</ele><time>2026-04-25T09:44:14.741Z</time></trkpt><trkpt lat="45.384275" lon="7.564235"><ele>1248.0</ele><time>2026-04-25T09:44:18.74Z</time></trkpt><trkpt lat="45.3843417" lon="7.56421"><ele>1248.0</ele><time>2026-04-25T09:44:22.742Z</time></trkpt><trkpt lat="45.38441" lon="7.5641917"><ele>1248.0</ele><time>2026-04-25T09:44:27.739Z</time></trkpt><trkpt lat="45.384475" lon="7.5641667"><ele>1248.0</ele><time>2026-04-25T09:44:32.742Z</time></trkpt><trkpt lat="45.3845417" lon="7.56415"><ele>1248.0</ele><time>2026-04-25T09:44:36.739Z</time></trkpt><trkpt lat="45.3846083" lon="7.5641217"><ele>1248.0</ele><time>2026-04-25T09:44:40.739Z</time></trkpt><trkpt lat="45.3846783" lon="7.5640767"><ele>1246.4285714285716</ele><time>2026-04-25T09:44:44.74Z</time></trkpt><trkpt lat="45.3847267" lon="7.56401"><ele>1244.8571428571427</ele><time>2026-04-25T09:44:48.739Z</time></trkpt><trkpt lat="45.3847767" lon="7.563935"><ele>1243.2857142857142</ele><time>2026-04-25T09:44:52.74Z</time></trkpt><trkpt lat="45.3848217" lon="7.5638667"><ele>1241.7142857142858</ele><time>2026-04-25T09:44:56.74Z</time></trkpt><trkpt lat="45.3848867" lon="7.5638167"><ele>1240.1428571428573</ele><time>2026-04-25T09:45:00.75Z</time></trkpt><trkpt lat="45.3849083" lon="7.56373"><ele>1238.5714285714284</ele><time>2026-04-25T09:45:04.74Z</time></trkpt><trkpt lat="45.3848467" lon="7.5637033"><ele>1237.0</ele><time>2026-04-25T09:45:09.741Z</time></trkpt><trkpt lat="45.38478" lon="7.5637483"><ele>1237.0</ele><time>2026-04-25T09:45:14.74Z</time></trkpt><trkpt lat="45.38471" lon="7.56379"><ele>1237.0</ele><time>2026-04-25T09:45:19.739Z</time></trkpt><trkpt lat="45.3846333" lon="7.563815"><ele>1237.0</ele><time>2026-04-25T09:45:23.739Z</time></trkpt><trkpt lat="45.38457" lon="7.5638183"><ele>1237.0</ele><time>2026-04-25T09:45:26.741Z</time></trkpt><trkpt lat="45.3845017" lon="7.5638067"><ele>1237.0</ele><time>2026-04-25T09:45:30.74Z</time></trkpt><trkpt lat="45.384435" lon="7.5637883"><ele>1237.0</ele><time>2026-04-25T09:45:34.741Z</time></trkpt><trkpt lat="45.3843617" lon="7.5637483"><ele>1237.0</ele><time>2026-04-25T09:45:38.74Z</time></trkpt><trkpt lat="45.3843017" lon="7.56372"><ele>1243.142857142857</ele><time>2026-04-25T09:45:42.74Z</time></trkpt><trkpt lat="45.384245" lon="7.56368"><ele>1249.2857142857144</ele><time>2026-04-25T09:45:46.751Z</time></trkpt><trkpt lat="45.384175" lon="7.563655"><ele>1255.4285714285716</ele><time>2026-04-25T09:45:50.741Z</time></trkpt><trkpt lat="45.38411" lon="7.56366"><ele>1261.5714285714284</ele><time>2026-04-25T09:45:54.739Z</time></trkpt><trkpt lat="45.3840317" lon="7.56366"><ele>1267.7142857142858</ele><time>2026-04-25T09:45:59.742Z</time></trkpt><trkpt lat="45.3839567" lon="7.56366"><ele>1273.857142857143</ele><time>2026-04-25T09:46:04.74Z</time></trkpt><trkpt lat="45.3838933" lon="7.56366"><ele>1280.0</ele><time>2026-04-25T09:46:08.74Z</time></trkpt><trkpt lat="45.3838285" lon="7.5636862"><ele>1277.2857142857142</ele><time>2026-04-25T09:46:13.74Z</time></trkpt><trkpt lat="45.3837591" lon="7.5637042"><ele>1274.5714285714287</ele><time>2026-04-25T09:46:17.736Z</time></trkpt><trkpt lat="45.3836856" lon="7.5637221"><ele>1271.857142857143</ele><time>2026-04-25T09:46:21.745Z</time></trkpt><trkpt lat="45.3836168" lon="7.5637272"><ele>1269.142857142857</ele><time>2026-04-25T09:46:25.74Z</time></trkpt><trkpt lat="45.3835526" lon="7.5637271"><ele>1266.4285714285713</ele><time>2026-04-25T09:46:29.751Z</time></trkpt><trkpt lat="45.3834826" lon="7.5637416"><ele>1263.7142857142858</ele><time>2026-04-25T09:46:33.712Z</time></trkpt><trkpt lat="45.3834188" lon="7.563737"><ele>1261.0</ele><time>2026-04-25T09:46:36.671Z</time></trkpt><trkpt lat="45.3833566" lon="7.5637125"><ele>1264.7142857142858</ele><time>2026-04-25T09:46:40.737Z</time></trkpt><trkpt lat="45.3832923" lon="7.5636879"><ele>1268.4285714285713</ele><time>2026-04-25T09:46:45.742Z</time></trkpt><trkpt lat="45.3832252" lon="7.5636603"><ele>1272.142857142857</ele><time>2026-04-25T09:46:49.742Z</time></trkpt><trkpt lat="45.38326" lon="7.563575"><ele>1275.857142857143</ele><time>2026-04-25T09:46:54.736Z</time></trkpt><trkpt lat="45.3833217" lon="7.5635317"><ele>1279.5714285714287</ele><time>2026-04-25T09:46:59.74Z</time></trkpt><trkpt lat="45.3833917" lon="7.5634817"><ele>1283.2857142857142</ele><time>2026-04-25T09:47:04.741Z</time></trkpt><trkpt lat="45.38345" lon="7.5634417"><ele>1287.0</ele><time>2026-04-25T09:47:08.745Z</time></trkpt><trkpt lat="45.3835083" lon="7.5633983"><ele>1287.0</ele><time>2026-04-25T09:47:12.737Z</time></trkpt><trkpt lat="45.3835767" lon="7.5633483"><ele>1287.0</ele><time>2026-04-25T09:47:16.738Z</time></trkpt><trkpt lat="45.38364" lon="7.5632933"><ele>1287.0</ele><time>2026-04-25T09:47:20.741Z</time></trkpt><trkpt lat="45.3837033" lon="7.563235"><ele>1287.0</ele><time>2026-04-25T09:47:25.743Z</time></trkpt><trkpt lat="45.3837733" lon="7.5631817"><ele>1287.0</ele><time>2026-04-25T09:47:29.741Z</time></trkpt><trkpt lat="45.3838417" lon="7.5631217"><ele>1287.0</ele><time>2026-04-25T09:47:33.742Z</time></trkpt><trkpt lat="45.3839033" lon="7.56306"><ele>1286.0</ele><time>2026-04-25T09:47:37.742Z</time></trkpt><trkpt lat="45.3839617" lon="7.5629983"><ele>1285.0</ele><time>2026-04-25T09:47:41.738Z</time></trkpt><trkpt lat="45.3840267" lon="7.5629583"><ele>1284.0</ele><time>2026-04-25T09:47:45.741Z</time></trkpt><trkpt lat="45.3841" lon="7.5629433"><ele>1283.0</ele><time>2026-04-25T09:47:49.744Z</time></trkpt><trkpt lat="45.3841767" lon="7.5629417"><ele>1282.0</ele><time>2026-04-25T09:47:53.746Z</time></trkpt><trkpt lat="45.3842467" lon="7.5629317"><ele>1281.0</ele><time>2026-04-25T09:47:56.74Z</time></trkpt><trkpt lat="45.38432" lon="7.562925"><ele>1280.0</ele><time>2026-04-25T09:48:00.741Z</time></trkpt><trkpt lat="45.3843917" lon="7.5628983"><ele>1280.0</ele><time>2026-04-25T09:48:04.74Z</time></trkpt><trkpt lat="45.38446" lon="7.5628833"><ele>1280.0</ele><time>2026-04-25T09:48:08.75Z</time></trkpt><trkpt lat="45.3845317" lon="7.5628667"><ele>1280.0</ele><time>2026-04-25T09:48:12.739Z</time></trkpt><trkpt lat="45.3846" lon="7.5628367"><ele>1280.0</ele><time>2026-04-25T09:48:16.742Z</time></trkpt><trkpt lat="45.3846783" lon="7.5627917"><ele>1280.0</ele><time>2026-04-25T09:48:20.741Z</time></trkpt><trkpt lat="45.3847433" lon="7.56276"><ele>1280.0</ele><time>2026-04-25T09:48:24.737Z</time></trkpt><trkpt lat="45.3848" lon="7.5627133"><ele>1280.0</ele><time>2026-04-25T09:48:28.745Z</time></trkpt><trkpt lat="45.3848633" lon="7.5626883"><ele>1284.4285714285713</ele><time>2026-04-25T09:48:32.739Z</time></trkpt><trkpt lat="45.38493" lon="7.5626933"><ele>1288.857142857143</ele><time>2026-04-25T09:48:35.741Z</time></trkpt><trkpt lat="45.3849917" lon="7.5626467"><ele>1293.2857142857142</ele><time>2026-04-25T09:48:39.736Z</time></trkpt><trkpt lat="45.384935" lon="7.5625833"><ele>1297.7142857142858</ele><time>2026-04-25T09:48:44.738Z</time></trkpt><trkpt lat="45.3848583" lon="7.5625933"><ele>1302.142857142857</ele><time>2026-04-25T09:48:49.736Z</time></trkpt><trkpt lat="45.3847867" lon="7.562595"><ele>1306.5714285714287</ele><time>2026-04-25T09:48:53.743Z</time></trkpt><trkpt lat="45.3847217" lon="7.5625817"><ele>1311.0</ele><time>2026-04-25T09:48:57.741Z</time></trkpt><trkpt lat="45.384645" lon="7.5625633"><ele>1311.0</ele><time>2026-04-25T09:49:02.74Z</time></trkpt><trkpt lat="45.3845817" lon="7.5625283"><ele>1311.0</ele><time>2026-04-25T09:49:06.739Z</time></trkpt><trkpt lat="45.3845217" lon="7.5624967"><ele>1311.0</ele><time>2026-04-25T09:49:10.745Z</time></trkpt><trkpt lat="45.384455" lon="7.5624817"><ele>1311.0</ele><time>2026-04-25T09:49:14.739Z</time></trkpt><trkpt lat="45.38439" lon="7.56243"><ele>1311.0</ele><time>2026-04-25T09:49:19.738Z</time></trkpt><trkpt lat="45.3843346" lon="7.5623774"><ele>1311.0</ele><time>2026-04-25T09:49:23.741Z</time></trkpt><trkpt lat="45.384268" lon="7.5623528"><ele>1311.0</ele><time>2026-04-25T09:49:27.737Z</time></trkpt><trkpt lat="45.3842051" lon="7.5623063"><ele>1311.0</ele><time>2026-04-25T09:49:32.743Z</time></trkpt><trkpt lat="45.384145" lon="7.56226"><ele>1311.0</ele><time>2026-04-25T09:49:36.739Z</time></trkpt><trkpt lat="45.38408" lon="7.5622017"><ele>1311.0</ele><time>2026-04-25T09:49:42.736Z</time></trkpt><trkpt lat="45.3840117" lon="7.562185"><ele>1311.0</ele><time>2026-04-25T09:49:46.743Z</time></trkpt><trkpt lat="45.3839433" lon="7.5621467"><ele>1311.0</ele><time>2026-04-25T09:49:50.74Z</time></trkpt><trkpt lat="45.3838727" lon="7.5621055"><ele>1311.0</ele><time>2026-04-25T09:49:55.711Z</time></trkpt><trkpt lat="45.3838084" lon="7.5620981"><ele>1311.0</ele><time>2026-04-25T09:49:59.739Z</time></trkpt><trkpt lat="45.3837432" lon="7.5620393"><ele>1311.857142857143</ele><time>2026-04-25T09:50:03.743Z</time></trkpt><trkpt lat="45.38369" lon="7.5619683"><ele>1312.7142857142856</ele><time>2026-04-25T09:50:07.742Z</time></trkpt><trkpt lat="45.3836733" lon="7.5618767"><ele>1313.5714285714284</ele><time>2026-04-25T09:50:11.747Z</time></trkpt><trkpt lat="45.3836633" lon="7.5617767"><ele>1314.4285714285716</ele><time>2026-04-25T09:50:15.734Z</time></trkpt><trkpt lat="45.3836883" lon="7.5616917"><ele>1315.2857142857142</ele><time>2026-04-25T09:50:19.746Z</time></trkpt><trkpt lat="45.38373" lon="7.561605"><ele>1316.142857142857</ele><time>2026-04-25T09:50:23.742Z</time></trkpt><trkpt lat="45.3837983" lon="7.5615567"><ele>1317.0</ele><time>2026-04-25T09:50:27.741Z</time></trkpt><trkpt lat="45.3838533" lon="7.5615033"><ele>1319.0</ele><time>2026-04-25T09:50:30.743Z</time></trkpt><trkpt lat="45.3839283" lon="7.5614617"><ele>1321.0</ele><time>2026-04-25T09:50:34.741Z</time></trkpt><trkpt lat="45.3839867" lon="7.56141"><ele>1323.0</ele><time>2026-04-25T09:50:37.741Z</time></trkpt><trkpt lat="45.384045" lon="7.5613567"><ele>1325.0</ele><time>2026-04-25T09:50:40.736Z</time></trkpt><trkpt lat="45.3841067" lon="7.5613167"><ele>1327.0</ele><time>2026-04-25T09:50:43.745Z</time></trkpt><trkpt lat="45.3841767" lon="7.561265"><ele>1329.0</ele><time>2026-04-25T09:50:48.738Z</time></trkpt><trkpt lat="45.384235" lon="7.5612083"><ele>1331.0</ele><time>2026-04-25T09:50:52.736Z</time></trkpt><trkpt lat="45.38429" lon="7.561135"><ele>1331.142857142857</ele><time>2026-04-25T09:50:56.739Z</time></trkpt><trkpt lat="45.3843333" lon="7.561045"><ele>1331.2857142857142</ele><time>2026-04-25T09:51:00.739Z</time></trkpt><trkpt lat="45.3843683" lon="7.5609667"><ele>1331.4285714285716</ele><time>2026-04-25T09:51:03.741Z</time></trkpt><trkpt lat="45.38441" lon="7.5608817"><ele>1331.5714285714284</ele><time>2026-04-25T09:51:06.783Z</time></trkpt><trkpt lat="45.3844567" lon="7.5608083"><ele>1331.7142857142856</ele><time>2026-04-25T09:51:09.736Z</time></trkpt><trkpt lat="45.3844867" lon="7.5607283"><ele>1331.857142857143</ele><time>2026-04-25T09:51:12.749Z</time></trkpt><trkpt lat="45.384525" lon="7.5606367"><ele>1332.0</ele><time>2026-04-25T09:51:15.746Z</time></trkpt><trkpt lat="45.3845667" lon="7.5605517"><ele>1332.0</ele><time>2026-04-25T09:51:18.742Z</time></trkpt><trkpt lat="45.3846017" lon="7.560475"><ele>1332.0</ele><time>2026-04-25T09:51:21.738Z</time></trkpt><trkpt lat="45.38462" lon="7.5603717"><ele>1332.0</ele><time>2026-04-25T09:51:25.75Z</time></trkpt><trkpt lat="45.3846217" lon="7.560275"><ele>1332.0</ele><time>2026-04-25T09:51:30.737Z</time></trkpt><trkpt lat="45.3846417" lon="7.5601767"><ele>1332.0</ele><time>2026-04-25T09:51:34.745Z</time></trkpt><trkpt lat="45.38466" lon="7.5600783"><ele>1332.0</ele><time>2026-04-25T09:51:38.745Z</time></trkpt><trkpt lat="45.3847067" lon="7.559995"><ele>1332.0</ele><time>2026-04-25T09:51:42.74Z</time></trkpt><trkpt lat="45.3847467" lon="7.5599183"><ele>1337.2857142857144</ele><time>2026-04-25T09:51:46.738Z</time></trkpt><trkpt lat="45.3847817" lon="7.5598267"><ele>1342.5714285714284</ele><time>2026-04-25T09:51:50.739Z</time></trkpt><trkpt lat="45.3848167" lon="7.5597367"><ele>1347.857142857143</ele><time>2026-04-25T09:51:54.741Z</time></trkpt><trkpt lat="45.38485" lon="7.5596417"><ele>1353.1428571428573</ele><time>2026-04-25T09:51:58.744Z</time></trkpt><trkpt lat="45.3848783" lon="7.5595517"><ele>1358.4285714285716</ele><time>2026-04-25T09:52:02.739Z</time></trkpt><trkpt lat="45.3849083" lon="7.5594717"><ele>1363.7142857142858</ele><time>2026-04-25T09:52:05.741Z</time></trkpt><trkpt lat="45.3849133" lon="7.5593767"><ele>1369.0</ele><time>2026-04-25T09:52:09.737Z</time></trkpt><trkpt lat="45.384915" lon="7.55927"><ele>1370.0000000000002</ele><time>2026-04-25T09:52:13.743Z</time></trkpt><trkpt lat="45.3848983" lon="7.5591817"><ele>1371.0</ele><time>2026-04-25T09:52:16.739Z</time></trkpt><trkpt lat="45.3848567" lon="7.5590933"><ele>1372.0</ele><time>2026-04-25T09:52:20.738Z</time></trkpt><trkpt lat="45.3848367" lon="7.5590083"><ele>1373.0</ele><time>2026-04-25T09:52:24.736Z</time></trkpt><trkpt lat="45.3848133" lon="7.5589217"><ele>1374.0</ele><time>2026-04-25T09:52:28.738Z</time></trkpt><trkpt lat="45.384785" lon="7.558835"><ele>1375.0000000000002</ele><time>2026-04-25T09:52:32.739Z</time></trkpt><trkpt lat="45.3847483" lon="7.55875"><ele>1376.0</ele><time>2026-04-25T09:52:36.742Z</time></trkpt><trkpt lat="45.3847117" lon="7.55867"><ele>1376.0000000000002</ele><time>2026-04-25T09:52:40.741Z</time></trkpt><trkpt lat="45.3847317" lon="7.558585"><ele>1376.0</ele><time>2026-04-25T09:52:44.741Z</time></trkpt><trkpt lat="45.3847917" lon="7.5586283"><ele>1376.0</ele><time>2026-04-25T09:52:48.736Z</time></trkpt><trkpt lat="45.3848133" lon="7.55872"><ele>1376.0</ele><time>2026-04-25T09:52:52.739Z</time></trkpt><trkpt lat="45.384855" lon="7.55879"><ele>1376.0</ele><time>2026-04-25T09:52:56.744Z</time></trkpt><trkpt lat="45.3849167" lon="7.5588583"><ele>1376.0000000000002</ele><time>2026-04-25T09:53:00.738Z</time></trkpt><trkpt lat="45.384955" lon="7.5589383"><ele>1376.0</ele><time>2026-04-25T09:53:03.745Z</time></trkpt><trkpt lat="45.3850117" lon="7.5590067"><ele>1376.0000000000002</ele><time>2026-04-25T09:53:07.745Z</time></trkpt><trkpt lat="45.3850733" lon="7.559055"><ele>1376.0</ele><time>2026-04-25T09:53:10.743Z</time></trkpt><trkpt lat="45.3851417" lon="7.5591067"><ele>1376.0</ele><time>2026-04-25T09:53:13.745Z</time></trkpt><trkpt lat="45.3851933" lon="7.559165"><ele>1376.0</ele><time>2026-04-25T09:53:16.747Z</time></trkpt><trkpt lat="45.385255" lon="7.5592133"><ele>1376.0</ele><time>2026-04-25T09:53:19.739Z</time></trkpt><trkpt lat="45.3853133" lon="7.5592683"><ele>1376.0000000000002</ele><time>2026-04-25T09:53:22.738Z</time></trkpt><trkpt lat="45.3853817" lon="7.5593467"><ele>1376.0</ele><time>2026-04-25T09:53:26.746Z</time></trkpt><trkpt lat="45.3854333" lon="7.559425"><ele>1376.0000000000002</ele><time>2026-04-25T09:53:30.742Z</time></trkpt><trkpt lat="45.3854883" lon="7.5595083"><ele>1376.0</ele><time>2026-04-25T09:53:34.74Z</time></trkpt><trkpt lat="45.3855217" lon="7.5596033"><ele>1376.0</ele><time>2026-04-25T09:53:38.744Z</time></trkpt><trkpt lat="45.3855283" lon="7.559715"><ele>1376.0</ele><time>2026-04-25T09:53:42.74Z</time></trkpt><trkpt lat="45.38554" lon="7.5598233"><ele>1376.0</ele><time>2026-04-25T09:53:46.742Z</time></trkpt><trkpt lat="45.3855317" lon="7.5599267"><ele>1376.0000000000002</ele><time>2026-04-25T09:53:50.746Z</time></trkpt><trkpt lat="45.38553" lon="7.56002"><ele>1376.0</ele><time>2026-04-25T09:53:54.748Z</time></trkpt><trkpt lat="45.3854883" lon="7.5601233"><ele>1375.0000000000002</ele><time>2026-04-25T09:53:58.74Z</time></trkpt><trkpt lat="45.385495" lon="7.560215"><ele>1374.0</ele><time>2026-04-25T09:54:01.742Z</time></trkpt><trkpt lat="45.3855583" lon="7.5602117"><ele>1373.0</ele><time>2026-04-25T09:54:06.74Z</time></trkpt><trkpt lat="45.3856217" lon="7.560145"><ele>1372.0</ele><time>2026-04-25T09:54:10.75Z</time></trkpt><trkpt lat="45.3856683" lon="7.5600817"><ele>1371.0</ele><time>2026-04-25T09:54:13.738Z</time></trkpt><trkpt lat="45.3857217" lon="7.5600017"><ele>1370.0000000000002</ele><time>2026-04-25T09:54:17.738Z</time></trkpt><trkpt lat="45.3857583" lon="7.5599267"><ele>1369.0</ele><time>2026-04-25T09:54:20.74Z</time></trkpt><trkpt lat="45.3858033" lon="7.5598517"><ele>1371.7142857142858</ele><time>2026-04-25T09:54:23.74Z</time></trkpt><trkpt lat="45.3858467" lon="7.559775"><ele>1374.4285714285716</ele><time>2026-04-25T09:54:26.744Z</time></trkpt><trkpt lat="45.385845" lon="7.5596633"><ele>1377.1428571428573</ele><time>2026-04-25T09:54:30.741Z</time></trkpt><trkpt lat="45.3858433" lon="7.5595717"><ele>1379.857142857143</ele><time>2026-04-25T09:54:34.739Z</time></trkpt><trkpt lat="45.385845" lon="7.5594617"><ele>1382.5714285714284</ele><time>2026-04-25T09:54:39.746Z</time></trkpt><trkpt lat="45.38583" lon="7.5593483"><ele>1385.2857142857144</ele><time>2026-04-25T09:54:43.741Z</time></trkpt><trkpt lat="45.38582" lon="7.5592433"><ele>1388.0</ele><time>2026-04-25T09:54:47.739Z</time></trkpt><trkpt lat="45.3858067" lon="7.559155"><ele>1390.857142857143</ele><time>2026-04-25T09:54:51.738Z</time></trkpt><trkpt lat="45.3857817" lon="7.5590717"><ele>1393.7142857142856</ele><time>2026-04-25T09:54:55.739Z</time></trkpt><trkpt lat="45.3857283" lon="7.55898"><ele>1396.5714285714284</ele><time>2026-04-25T09:55:00.745Z</time></trkpt><trkpt lat="45.3856833" lon="7.558905"><ele>1399.4285714285716</ele><time>2026-04-25T09:55:04.737Z</time></trkpt><trkpt lat="45.3856383" lon="7.5588133"><ele>1402.2857142857142</ele><time>2026-04-25T09:55:08.741Z</time></trkpt><trkpt lat="45.3856083" lon="7.558715"><ele>1405.142857142857</ele><time>2026-04-25T09:55:12.743Z</time></trkpt><trkpt lat="45.3855683" lon="7.5586367"><ele>1408.0</ele><time>2026-04-25T09:55:16.741Z</time></trkpt><trkpt lat="45.3855317" lon="7.5585567"><ele>1410.2857142857142</ele><time>2026-04-25T09:55:19.738Z</time></trkpt><trkpt lat="45.3854917" lon="7.5584783"><ele>1412.5714285714284</ele><time>2026-04-25T09:55:23.738Z</time></trkpt><trkpt lat="45.38546" lon="7.558375"><ele>1414.8571428571427</ele><time>2026-04-25T09:55:27.745Z</time></trkpt><trkpt lat="45.3854617" lon="7.55827"><ele>1417.142857142857</ele><time>2026-04-25T09:55:31.739Z</time></trkpt><trkpt lat="45.3854983" lon="7.5581817"><ele>1419.4285714285713</ele><time>2026-04-25T09:55:35.742Z</time></trkpt><trkpt lat="45.3855317" lon="7.5581"><ele>1421.7142857142856</ele><time>2026-04-25T09:55:40.739Z</time></trkpt><trkpt lat="45.3855867" lon="7.5580167"><ele>1424.0</ele><time>2026-04-25T09:55:45.736Z</time></trkpt><trkpt lat="45.3856417" lon="7.5579333"><ele>1423.5714285714284</ele><time>2026-04-25T09:55:51.738Z</time></trkpt><trkpt lat="45.3857017" lon="7.5578633"><ele>1423.142857142857</ele><time>2026-04-25T09:55:57.74Z</time></trkpt><trkpt lat="45.3857533" lon="7.5578117"><ele>1422.7142857142858</ele><time>2026-04-25T09:56:01.737Z</time></trkpt><trkpt lat="45.3858083" lon="7.5577583"><ele>1422.2857142857142</ele><time>2026-04-25T09:56:06.741Z</time></trkpt><trkpt lat="45.385865" lon="7.5577167"><ele>1421.857142857143</ele><time>2026-04-25T09:56:10.74Z</time></trkpt><trkpt lat="45.3859267" lon="7.5576617"><ele>1421.4285714285713</ele><time>2026-04-25T09:56:15.739Z</time></trkpt><trkpt lat="45.3859817" lon="7.557595"><ele>1421.0</ele><time>2026-04-25T09:56:19.74Z</time></trkpt><trkpt lat="45.3860417" lon="7.5575317"><ele>1421.0</ele><time>2026-04-25T09:56:24.738Z</time></trkpt><trkpt lat="45.3860967" lon="7.5574567"><ele>1421.0</ele><time>2026-04-25T09:56:29.736Z</time></trkpt><trkpt lat="45.3861383" lon="7.557385"><ele>1421.0</ele><time>2026-04-25T09:56:34.737Z</time></trkpt><trkpt lat="45.386185" lon="7.55731"><ele>1421.0</ele><time>2026-04-25T09:56:39.737Z</time></trkpt><trkpt lat="45.38623" lon="7.5572367"><ele>1421.0</ele><time>2026-04-25T09:56:44.744Z</time></trkpt><trkpt lat="45.3862558" lon="7.5571528"><ele>1421.0</ele><time>2026-04-25T09:56:49.743Z</time></trkpt><trkpt lat="45.3862935" lon="7.5570674"><ele>1421.0</ele><time>2026-04-25T09:56:55.75Z</time></trkpt><trkpt lat="45.3863288" lon="7.5569781"><ele>1428.0</ele><time>2026-04-25T09:57:00.736Z</time></trkpt><trkpt lat="45.3863742" lon="7.5568881"><ele>1435.0</ele><time>2026-04-25T09:57:05.742Z</time></trkpt><trkpt lat="45.3863909" lon="7.5567858"><ele>1442.0</ele><time>2026-04-25T09:57:09.739Z</time></trkpt><trkpt lat="45.3864127" lon="7.5566749"><ele>1449.0</ele><time>2026-04-25T09:57:13.745Z</time></trkpt><trkpt lat="45.386438" lon="7.556569"><ele>1456.0</ele><time>2026-04-25T09:57:17.598Z</time></trkpt><trkpt lat="45.3864409" lon="7.5564592"><ele>1463.0</ele><time>2026-04-25T09:57:21.756Z</time></trkpt><trkpt lat="45.3864697" lon="7.5563691"><ele>1463.0</ele><time>2026-04-25T09:57:25.715Z</time></trkpt><trkpt lat="45.3864543" lon="7.5562727"><ele>1463.0</ele><time>2026-04-25T09:57:30.742Z</time></trkpt><trkpt lat="45.3864272" lon="7.5561855"><ele>1463.0</ele><time>2026-04-25T09:57:34.738Z</time></trkpt><trkpt lat="45.3864015" lon="7.5561035"><ele>1463.0</ele><time>2026-04-25T09:57:38.739Z</time></trkpt><trkpt lat="45.3863758" lon="7.5560103"><ele>1463.0</ele><time>2026-04-25T09:57:43.771Z</time></trkpt><trkpt lat="45.3863395" lon="7.55592"><ele>1463.0</ele><time>2026-04-25T09:57:47.736Z</time></trkpt><trkpt lat="45.3862855" lon="7.5558608"><ele>1463.0</ele><time>2026-04-25T09:57:50.741Z</time></trkpt><trkpt lat="45.386255" lon="7.5557583"><ele>1461.3333333333335</ele><time>2026-04-25T09:57:53.744Z</time></trkpt><trkpt lat="45.386175" lon="7.5556317"><ele>1459.6666666666667</ele><time>2026-04-25T09:58:00.739Z</time></trkpt><trkpt lat="45.386125" lon="7.555545"><ele>1458.0</ele><time>2026-04-25T09:58:04.739Z</time></trkpt><trkpt lat="45.3860733" lon="7.555455"><ele>1456.3333333333333</ele><time>2026-04-25T09:58:08.74Z</time></trkpt><trkpt lat="45.3860283" lon="7.5553733"><ele>1454.6666666666665</ele><time>2026-04-25T09:58:12.737Z</time></trkpt><trkpt lat="45.3859783" lon="7.5553083"><ele>1453.0</ele><time>2026-04-25T09:58:16.739Z</time></trkpt><trkpt lat="45.3859317" lon="7.555235"><ele>1453.0000000000002</ele><time>2026-04-25T09:58:21.741Z</time></trkpt><trkpt lat="45.38589" lon="7.55516"><ele>1453.0</ele><time>2026-04-25T09:58:25.738Z</time></trkpt><trkpt lat="45.38587" lon="7.5550683"><ele>1453.0</ele><time>2026-04-25T09:58:29.736Z</time></trkpt><trkpt lat="45.3858767" lon="7.554975"><ele>1453.0</ele><time>2026-04-25T09:58:33.739Z</time></trkpt><trkpt lat="45.3859133" lon="7.5549"><ele>1453.0</ele><time>2026-04-25T09:58:37.74Z</time></trkpt><trkpt lat="45.385955" lon="7.5548317"><ele>1453.0000000000002</ele><time>2026-04-25T09:58:41.74Z</time></trkpt><trkpt lat="45.38598" lon="7.554725"><ele>1453.0</ele><time>2026-04-25T09:58:45.74Z</time></trkpt><trkpt lat="45.3859967" lon="7.5546167"><ele>1455.5714285714287</ele><time>2026-04-25T09:58:50.742Z</time></trkpt><trkpt lat="45.3860083" lon="7.5545117"><ele>1458.142857142857</ele><time>2026-04-25T09:58:54.742Z</time></trkpt><trkpt lat="45.3860033" lon="7.5543967"><ele>1460.7142857142858</ele><time>2026-04-25T09:58:58.74Z</time></trkpt><trkpt lat="45.3859867" lon="7.5542883"><ele>1463.2857142857142</ele><time>2026-04-25T09:59:02.738Z</time></trkpt><trkpt lat="45.3859733" lon="7.5542"><ele>1465.857142857143</ele><time>2026-04-25T09:59:05.736Z</time></trkpt><trkpt lat="45.3859417" lon="7.5541083"><ele>1468.4285714285716</ele><time>2026-04-25T09:59:08.739Z</time></trkpt><trkpt lat="45.3859167" lon="7.5540217"><ele>1471.0</ele><time>2026-04-25T09:59:11.744Z</time></trkpt><trkpt lat="45.38588" lon="7.5539283"><ele>1471.0</ele><time>2026-04-25T09:59:14.741Z</time></trkpt><trkpt lat="45.385835" lon="7.5538617"><ele>1471.0</ele><time>2026-04-25T09:59:17.737Z</time></trkpt><trkpt lat="45.38577" lon="7.5538017"><ele>1471.0</ele><time>2026-04-25T09:59:21.74Z</time></trkpt><trkpt lat="45.3857383" lon="7.55372"><ele>1471.0</ele><time>2026-04-25T09:59:24.741Z</time></trkpt><trkpt lat="45.3857167" lon="7.5536317"><ele>1471.0</ele><time>2026-04-25T09:59:27.741Z</time></trkpt><trkpt lat="45.38567" lon="7.5535533"><ele>1471.0</ele><time>2026-04-25T09:59:30.745Z</time></trkpt><trkpt lat="45.385595" lon="7.5535133"><ele>1471.0</ele><time>2026-04-25T09:59:33.74Z</time></trkpt><trkpt lat="45.3855133" lon="7.5534933"><ele>1469.6666666666665</ele><time>2026-04-25T09:59:36.736Z</time></trkpt><trkpt lat="45.3854517" lon="7.553455"><ele>1468.3333333333333</ele><time>2026-04-25T09:59:39.739Z</time></trkpt><trkpt lat="45.3853717" lon="7.5534133"><ele>1467.0</ele><time>2026-04-25T09:59:43.739Z</time></trkpt><trkpt lat="45.3853033" lon="7.55337"><ele>1465.6666666666667</ele><time>2026-04-25T09:59:46.74Z</time></trkpt><trkpt lat="45.3852283" lon="7.553285"><ele>1464.3333333333335</ele><time>2026-04-25T09:59:49.74Z</time></trkpt><trkpt lat="45.3851683" lon="7.5531817"><ele>1463.0</ele><time>2026-04-25T09:59:52.739Z</time></trkpt><trkpt lat="45.3851117" lon="7.5530867"><ele>1463.0</ele><time>2026-04-25T09:59:55.743Z</time></trkpt><trkpt lat="45.3850633" lon="7.55302"><ele>1463.0</ele><time>2026-04-25T09:59:58.74Z</time></trkpt><trkpt lat="45.3850383" lon="7.5529217"><ele>1463.0</ele><time>2026-04-25T10:00:01.74Z</time></trkpt><trkpt lat="45.3850183" lon="7.5528117"><ele>1463.0</ele><time>2026-04-25T10:00:04.739Z</time></trkpt><trkpt lat="45.3849883" lon="7.55273"><ele>1463.0</ele><time>2026-04-25T10:00:08.739Z</time></trkpt><trkpt lat="45.3849417" lon="7.5526633"><ele>1463.0</ele><time>2026-04-25T10:00:12.747Z</time></trkpt><trkpt lat="45.3850267" lon="7.5526617"><ele>1463.0</ele><time>2026-04-25T10:00:20.739Z</time></trkpt><trkpt lat="45.3850717" lon="7.5527283"><ele>1463.0</ele><time>2026-04-25T10:00:22.738Z</time></trkpt><trkpt lat="45.3851117" lon="7.552805"><ele>1463.0</ele><time>2026-04-25T10:00:25.741Z</time></trkpt><trkpt lat="45.3851667" lon="7.552865"><ele>1463.0</ele><time>2026-04-25T10:00:29.739Z</time></trkpt><trkpt lat="45.38523" lon="7.5529133"><ele>1463.0</ele><time>2026-04-25T10:00:33.738Z</time></trkpt><trkpt lat="45.3853083" lon="7.55293"><ele>1463.0</ele><time>2026-04-25T10:00:37.741Z</time></trkpt><trkpt lat="45.38537" lon="7.5529533"><ele>1463.0</ele><time>2026-04-25T10:00:40.738Z</time></trkpt><trkpt lat="45.3854433" lon="7.5529933"><ele>1463.0</ele><time>2026-04-25T10:00:44.736Z</time></trkpt><trkpt lat="45.3855083" lon="7.5530233"><ele>1467.857142857143</ele><time>2026-04-25T10:00:47.741Z</time></trkpt><trkpt lat="45.3855733" lon="7.5530733"><ele>1472.7142857142858</ele><time>2026-04-25T10:00:51.738Z</time></trkpt><trkpt lat="45.385645" lon="7.553105"><ele>1477.5714285714284</ele><time>2026-04-25T10:00:55.737Z</time></trkpt><trkpt lat="45.3857067" lon="7.55313"><ele>1482.4285714285716</ele><time>2026-04-25T10:00:59.739Z</time></trkpt><trkpt lat="45.3857733" lon="7.553175"><ele>1487.2857142857142</ele><time>2026-04-25T10:01:03.739Z</time></trkpt><trkpt lat="45.3858467" lon="7.553225"><ele>1492.142857142857</ele><time>2026-04-25T10:01:07.74Z</time></trkpt><trkpt lat="45.385915" lon="7.5532817"><ele>1497.0</ele><time>2026-04-25T10:01:10.741Z</time></trkpt><trkpt lat="45.3859733" lon="7.5533583"><ele>1497.0</ele><time>2026-04-25T10:01:13.74Z</time></trkpt><trkpt lat="45.3860283" lon="7.55341"><ele>1497.0</ele><time>2026-04-25T10:01:16.735Z</time></trkpt><trkpt lat="45.3861067" lon="7.5534433"><ele>1497.0</ele><time>2026-04-25T10:01:20.738Z</time></trkpt><trkpt lat="45.3861917" lon="7.5534683"><ele>1497.0</ele><time>2026-04-25T10:01:23.738Z</time></trkpt><trkpt lat="45.3862533" lon="7.5535217"><ele>1497.0</ele><time>2026-04-25T10:01:27.738Z</time></trkpt><trkpt lat="45.386325" lon="7.5535833"><ele>1497.0</ele><time>2026-04-25T10:01:31.739Z</time></trkpt><trkpt lat="45.3863867" lon="7.5536617"><ele>1500.0</ele><time>2026-04-25T10:01:34.737Z</time></trkpt><trkpt lat="45.3864133" lon="7.5537567"><ele>1503.0</ele><time>2026-04-25T10:01:37.741Z</time></trkpt><trkpt lat="45.3864133" lon="7.5538617"><ele>1506.0</ele><time>2026-04-25T10:01:40.739Z</time></trkpt><trkpt lat="45.3864217" lon="7.55396"><ele>1509.0</ele><time>2026-04-25T10:01:43.744Z</time></trkpt><trkpt lat="45.3864467" lon="7.55406"><ele>1512.0</ele><time>2026-04-25T10:01:47.741Z</time></trkpt><trkpt lat="45.3864683" lon="7.55415"><ele>1515.0</ele><time>2026-04-25T10:01:51.737Z</time></trkpt><trkpt lat="45.3864833" lon="7.554255"><ele>1518.0</ele><time>2026-04-25T10:01:55.736Z</time></trkpt><trkpt lat="45.3865317" lon="7.5543417"><ele>1518.0</ele><time>2026-04-25T10:01:59.742Z</time></trkpt><trkpt lat="45.3865767" lon="7.5544217"><ele>1518.0</ele><time>2026-04-25T10:02:02.738Z</time></trkpt><trkpt lat="45.3866217" lon="7.554505"><ele>1518.0</ele><time>2026-04-25T10:02:06.742Z</time></trkpt><trkpt lat="45.3866717" lon="7.5545917"><ele>1518.0</ele><time>2026-04-25T10:02:10.739Z</time></trkpt><trkpt lat="45.3867367" lon="7.55467"><ele>1518.0</ele><time>2026-04-25T10:02:14.738Z</time></trkpt><trkpt lat="45.3868" lon="7.5547167"><ele>1518.0</ele><time>2026-04-25T10:02:17.739Z</time></trkpt><trkpt lat="45.3868633" lon="7.5547767"><ele>1515.4285714285713</ele><time>2026-04-25T10:02:21.745Z</time></trkpt><trkpt lat="45.3869183" lon="7.5548383"><ele>1512.8571428571427</ele><time>2026-04-25T10:02:24.739Z</time></trkpt><trkpt lat="45.3869617" lon="7.5549033"><ele>1510.2857142857142</ele><time>2026-04-25T10:02:27.741Z</time></trkpt><trkpt lat="45.3870217" lon="7.554975"><ele>1507.7142857142858</ele><time>2026-04-25T10:02:31.739Z</time></trkpt><trkpt lat="45.3870783" lon="7.5550417"><ele>1505.142857142857</ele><time>2026-04-25T10:02:35.741Z</time></trkpt><trkpt lat="45.38714" lon="7.555115"><ele>1502.5714285714287</ele><time>2026-04-25T10:02:39.742Z</time></trkpt><trkpt lat="45.387175" lon="7.55519"><ele>1500.0</ele><time>2026-04-25T10:02:42.74Z</time></trkpt><trkpt lat="45.3871883" lon="7.55529"><ele>1503.142857142857</ele><time>2026-04-25T10:02:46.745Z</time></trkpt><trkpt lat="45.3872267" lon="7.5553633"><ele>1506.2857142857142</ele><time>2026-04-25T10:02:49.739Z</time></trkpt><trkpt lat="45.3872983" lon="7.5554083"><ele>1509.4285714285713</ele><time>2026-04-25T10:02:53.738Z</time></trkpt><trkpt lat="45.387365" lon="7.5554533"><ele>1512.5714285714284</ele><time>2026-04-25T10:02:57.739Z</time></trkpt><trkpt lat="45.3874133" lon="7.5555133"><ele>1515.7142857142858</ele><time>2026-04-25T10:03:00.741Z</time></trkpt><trkpt lat="45.3874517" lon="7.5555983"><ele>1518.8571428571427</ele><time>2026-04-25T10:03:03.743Z</time></trkpt><trkpt lat="45.3874833" lon="7.555685"><ele>1522.0</ele><time>2026-04-25T10:03:06.74Z</time></trkpt><trkpt lat="45.3874967" lon="7.5557967"><ele>1522.0</ele><time>2026-04-25T10:03:10.739Z</time></trkpt><trkpt lat="45.3875233" lon="7.5559033"><ele>1522.0</ele><time>2026-04-25T10:03:14.74Z</time></trkpt><trkpt lat="45.3875533" lon="7.5560133"><ele>1522.0</ele><time>2026-04-25T10:03:17.746Z</time></trkpt><trkpt lat="45.387575" lon="7.5561167"><ele>1522.0</ele><time>2026-04-25T10:03:20.743Z</time></trkpt><trkpt lat="45.3876083" lon="7.5561983"><ele>1522.0</ele><time>2026-04-25T10:03:22.736Z</time></trkpt><trkpt lat="45.3876467" lon="7.5562733"><ele>1522.0</ele><time>2026-04-25T10:03:24.741Z</time></trkpt><trkpt lat="45.3877" lon="7.5563733"><ele>1524.142857142857</ele><time>2026-04-25T10:03:27.739Z</time></trkpt><trkpt lat="45.387755" lon="7.556455"><ele>1526.2857142857142</ele><time>2026-04-25T10:03:30.74Z</time></trkpt><trkpt lat="45.3878033" lon="7.556525"><ele>1528.4285714285716</ele><time>2026-04-25T10:03:32.744Z</time></trkpt><trkpt lat="45.3878583" lon="7.55659"><ele>1530.5714285714284</ele><time>2026-04-25T10:03:34.736Z</time></trkpt><trkpt lat="45.3879183" lon="7.5566567"><ele>1532.7142857142858</ele><time>2026-04-25T10:03:36.738Z</time></trkpt><trkpt lat="45.3879683" lon="7.5567167"><ele>1534.857142857143</ele><time>2026-04-25T10:03:38.734Z</time></trkpt><trkpt lat="45.38802" lon="7.5567783"><ele>1537.0</ele><time>2026-04-25T10:03:40.738Z</time></trkpt><trkpt lat="45.388075" lon="7.55685"><ele>1537.0000000000002</ele><time>2026-04-25T10:03:42.737Z</time></trkpt><trkpt lat="45.3881367" lon="7.5569333"><ele>1537.0</ele><time>2026-04-25T10:03:44.739Z</time></trkpt><trkpt lat="45.3881883" lon="7.55701"><ele>1537.0</ele><time>2026-04-25T10:03:46.739Z</time></trkpt><trkpt lat="45.38823" lon="7.55708"><ele>1537.0</ele><time>2026-04-25T10:03:48.738Z</time></trkpt><trkpt lat="45.3882917" lon="7.5571283"><ele>1537.0</ele><time>2026-04-25T10:03:51.74Z</time></trkpt><trkpt lat="45.3883583" lon="7.5571533"><ele>1537.0000000000002</ele><time>2026-04-25T10:03:54.737Z</time></trkpt><trkpt lat="45.3884383" lon="7.5571483"><ele>1537.0</ele><time>2026-04-25T10:03:57.745Z</time></trkpt><trkpt lat="45.3885017" lon="7.5571733"><ele>1536.1428571428573</ele><time>2026-04-25T10:04:00.739Z</time></trkpt><trkpt lat="45.3885817" lon="7.557215"><ele>1535.2857142857142</ele><time>2026-04-25T10:04:04.782Z</time></trkpt><trkpt lat="45.3886417" lon="7.5572483"><ele>1534.4285714285716</ele><time>2026-04-25T10:04:07.74Z</time></trkpt><trkpt lat="45.3887" lon="7.5572867"><ele>1533.5714285714287</ele><time>2026-04-25T10:04:10.74Z</time></trkpt><trkpt lat="45.3887617" lon="7.5573183"><ele>1532.7142857142858</ele><time>2026-04-25T10:04:13.74Z</time></trkpt><trkpt lat="45.3888417" lon="7.5573467"><ele>1531.857142857143</ele><time>2026-04-25T10:04:18.739Z</time></trkpt><trkpt lat="45.388925" lon="7.5573567"><ele>1531.0</ele><time>2026-04-25T10:04:22.743Z</time></trkpt><trkpt lat="45.3889883" lon="7.5573583"><ele>1531.0</ele><time>2026-04-25T10:04:25.74Z</time></trkpt><trkpt lat="45.3890567" lon="7.557395"><ele>1531.0</ele><time>2026-04-25T10:04:29.74Z</time></trkpt><trkpt lat="45.389115" lon="7.55744"><ele>1531.0</ele><time>2026-04-25T10:04:33.741Z</time></trkpt><trkpt lat="45.3891817" lon="7.5574367"><ele>1531.0</ele><time>2026-04-25T10:04:37.74Z</time></trkpt><trkpt lat="45.3892633" lon="7.5574283"><ele>1531.0</ele><time>2026-04-25T10:04:41.741Z</time></trkpt><trkpt lat="45.3893367" lon="7.5574033"><ele>1531.0</ele><time>2026-04-25T10:04:45.738Z</time></trkpt><trkpt lat="45.3894133" lon="7.5573917"><ele>1531.0</ele><time>2026-04-25T10:04:51.743Z</time></trkpt><trkpt lat="45.3894983" lon="7.5574017"><ele>1531.0</ele><time>2026-04-25T10:04:55.742Z</time></trkpt><trkpt lat="45.3895667" lon="7.5573967"><ele>1531.0</ele><time>2026-04-25T10:04:58.737Z</time></trkpt><trkpt lat="45.3896433" lon="7.5574067"><ele>1531.0</ele><time>2026-04-25T10:05:02.738Z</time></trkpt><trkpt lat="45.3897133" lon="7.557405"><ele>1531.0</ele><time>2026-04-25T10:05:05.741Z</time></trkpt><trkpt lat="45.3897783" lon="7.5573983"><ele>1531.0</ele><time>2026-04-25T10:05:08.739Z</time></trkpt><trkpt lat="45.3898433" lon="7.5573967"><ele>1531.0</ele><time>2026-04-25T10:05:11.74Z</time></trkpt><trkpt lat="45.3899083" lon="7.5573967"><ele>1531.0</ele><time>2026-04-25T10:05:14.745Z</time></trkpt><trkpt lat="45.3899767" lon="7.5574"><ele>1533.0</ele><time>2026-04-25T10:05:17.741Z</time></trkpt><trkpt lat="45.3900467" lon="7.5574033"><ele>1535.0</ele><time>2026-04-25T10:05:20.737Z</time></trkpt><trkpt lat="45.3901317" lon="7.5574217"><ele>1537.0</ele><time>2026-04-25T10:05:24.74Z</time></trkpt><trkpt lat="45.390205" lon="7.55742"><ele>1539.0</ele><time>2026-04-25T10:05:27.739Z</time></trkpt><trkpt lat="45.3902767" lon="7.5574183"><ele>1541.0000000000002</ele><time>2026-04-25T10:05:30.738Z</time></trkpt><trkpt lat="45.3903583" lon="7.55742"><ele>1543.0</ele><time>2026-04-25T10:05:33.745Z</time></trkpt><trkpt lat="45.3904367" lon="7.5574167"><ele>1542.9999999999998</ele><time>2026-04-25T10:05:36.74Z</time></trkpt><trkpt lat="45.3905017" lon="7.5574083"><ele>1543.0</ele><time>2026-04-25T10:05:39.74Z</time></trkpt><trkpt lat="45.3905733" lon="7.557395"><ele>1543.0</ele><time>2026-04-25T10:05:42.739Z</time></trkpt><trkpt lat="45.3906417" lon="7.5573833"><ele>1543.0</ele><time>2026-04-25T10:05:45.746Z</time></trkpt><trkpt lat="45.39072" lon="7.5573717"><ele>1543.0</ele><time>2026-04-25T10:05:48.744Z</time></trkpt><trkpt lat="45.3908" lon="7.5573467"><ele>1542.9999999999998</ele><time>2026-04-25T10:05:51.744Z</time></trkpt><trkpt lat="45.39087" lon="7.5573017"><ele>1543.0</ele><time>2026-04-25T10:05:54.747Z</time></trkpt><trkpt lat="45.390945" lon="7.5572633"><ele>1543.7142857142856</ele><time>2026-04-25T10:05:57.742Z</time></trkpt><trkpt lat="45.39102" lon="7.5572367"><ele>1544.4285714285713</ele><time>2026-04-25T10:06:00.739Z</time></trkpt><trkpt lat="45.3910867" lon="7.5572133"><ele>1545.142857142857</ele><time>2026-04-25T10:06:04.739Z</time></trkpt><trkpt lat="45.3911683" lon="7.5571967"><ele>1545.8571428571427</ele><time>2026-04-25T10:06:07.738Z</time></trkpt><trkpt lat="45.39123" lon="7.55716"><ele>1546.5714285714287</ele><time>2026-04-25T10:06:09.737Z</time></trkpt><trkpt lat="45.391295" lon="7.5571417"><ele>1547.2857142857142</ele><time>2026-04-25T10:06:11.741Z</time></trkpt><trkpt lat="45.3913767" lon="7.5571267"><ele>1548.0</ele><time>2026-04-25T10:06:14.736Z</time></trkpt><trkpt lat="45.39146" lon="7.5570983"><ele>1547.6666666666667</ele><time>2026-04-25T10:06:17.741Z</time></trkpt><trkpt lat="45.3915317" lon="7.55708"><ele>1547.3333333333335</ele><time>2026-04-25T10:06:20.737Z</time></trkpt><trkpt lat="45.3916067" lon="7.557045"><ele>1547.0</ele><time>2026-04-25T10:06:23.741Z</time></trkpt><trkpt lat="45.39168" lon="7.5570167"><ele>1546.6666666666667</ele><time>2026-04-25T10:06:26.738Z</time></trkpt><trkpt lat="45.391755" lon="7.5569733"><ele>1546.3333333333335</ele><time>2026-04-25T10:06:29.738Z</time></trkpt><trkpt lat="45.391835" lon="7.5569433"><ele>1546.0</ele><time>2026-04-25T10:06:32.737Z</time></trkpt><trkpt lat="45.3919133" lon="7.556905"><ele>1546.0000000000002</ele><time>2026-04-25T10:06:35.739Z</time></trkpt><trkpt lat="45.3919833" lon="7.556875"><ele>1546.0</ele><time>2026-04-25T10:06:38.739Z</time></trkpt><trkpt lat="45.3920517" lon="7.55684"><ele>1546.0</ele><time>2026-04-25T10:06:41.74Z</time></trkpt><trkpt lat="45.3921317" lon="7.5567917"><ele>1546.0</ele><time>2026-04-25T10:06:44.739Z</time></trkpt><trkpt lat="45.3922083" lon="7.5567583"><ele>1546.0000000000002</ele><time>2026-04-25T10:06:47.745Z</time></trkpt><trkpt lat="45.3922917" lon="7.556725"><ele>1546.0</ele><time>2026-04-25T10:06:50.742Z</time></trkpt><trkpt lat="45.3923617" lon="7.5566967"><ele>1547.1666666666667</ele><time>2026-04-25T10:06:52.738Z</time></trkpt><trkpt lat="45.39243" lon="7.556665"><ele>1548.3333333333335</ele><time>2026-04-25T10:06:54.737Z</time></trkpt><trkpt lat="45.392515" lon="7.5566417"><ele>1549.5</ele><time>2026-04-25T10:06:57.745Z</time></trkpt><trkpt lat="45.3926017" lon="7.556625"><ele>1550.6666666666665</ele><time>2026-04-25T10:07:00.746Z</time></trkpt><trkpt lat="45.39269" lon="7.5566183"><ele>1551.8333333333333</ele><time>2026-04-25T10:07:03.744Z</time></trkpt><trkpt lat="45.39277" lon="7.55661"><ele>1553.0</ele><time>2026-04-25T10:07:07.742Z</time></trkpt><trkpt lat="45.3928333" lon="7.5565867"><ele>1553.0</ele><time>2026-04-25T10:07:10.744Z</time></trkpt><trkpt lat="45.39292" lon="7.55659"><ele>1553.0</ele><time>2026-04-25T10:07:14.742Z</time></trkpt><trkpt lat="45.392995" lon="7.5565967"><ele>1553.0</ele><time>2026-04-25T10:07:17.743Z</time></trkpt><trkpt lat="45.3929433" lon="7.5566483"><ele>1553.0</ele><time>2026-04-25T10:08:13.741Z</time></trkpt><trkpt lat="45.3928783" lon="7.556655"><ele>1553.0</ele><time>2026-04-25T10:08:16.743Z</time></trkpt><trkpt lat="45.3928083" lon="7.5566483"><ele>1553.0</ele><time>2026-04-25T10:08:19.738Z</time></trkpt><trkpt lat="45.3927217" lon="7.556655"><ele>1553.0</ele><time>2026-04-25T10:08:22.743Z</time></trkpt><trkpt lat="45.3926583" lon="7.55666"><ele>1552.9999999999998</ele><time>2026-04-25T10:08:24.744Z</time></trkpt><trkpt lat="45.3925717" lon="7.5566633"><ele>1553.0</ele><time>2026-04-25T10:08:27.744Z</time></trkpt><trkpt lat="45.3924883" lon="7.5566717"><ele>1553.0</ele><time>2026-04-25T10:08:30.743Z</time></trkpt><trkpt lat="45.3924017" lon="7.556685"><ele>1553.0</ele><time>2026-04-25T10:08:33.744Z</time></trkpt><trkpt lat="45.3923183" lon="7.5567117"><ele>1552.9999999999998</ele><time>2026-04-25T10:08:36.739Z</time></trkpt><trkpt lat="45.39223" lon="7.55674"><ele>1553.0</ele><time>2026-04-25T10:08:39.742Z</time></trkpt><trkpt lat="45.3921617" lon="7.556765"><ele>1551.8333333333333</ele><time>2026-04-25T10:08:41.743Z</time></trkpt><trkpt lat="45.3921" lon="7.5567917"><ele>1550.6666666666665</ele><time>2026-04-25T10:08:43.741Z</time></trkpt><trkpt lat="45.3920317" lon="7.5568333"><ele>1549.5</ele><time>2026-04-25T10:08:45.743Z</time></trkpt><trkpt lat="45.3919567" lon="7.5568783"><ele>1548.3333333333335</ele><time>2026-04-25T10:08:47.751Z</time></trkpt><trkpt lat="45.3918783" lon="7.5569067"><ele>1547.1666666666667</ele><time>2026-04-25T10:08:49.74Z</time></trkpt><trkpt lat="45.3917867" lon="7.5569433"><ele>1546.0</ele><time>2026-04-25T10:08:52.741Z</time></trkpt><trkpt lat="45.3917267" lon="7.5569733"><ele>1546.0000000000002</ele><time>2026-04-25T10:08:54.74Z</time></trkpt><trkpt lat="45.3916433" lon="7.5569917"><ele>1546.0</ele><time>2026-04-25T10:08:56.738Z</time></trkpt><trkpt lat="45.3915767" lon="7.5570017"><ele>1546.0</ele><time>2026-04-25T10:08:59.739Z</time></trkpt><trkpt lat="45.391505" lon="7.55704"><ele>1546.0</ele><time>2026-04-25T10:09:02.739Z</time></trkpt><trkpt lat="45.391435" lon="7.5570833"><ele>1546.0000000000002</ele><time>2026-04-25T10:09:04.738Z</time></trkpt><trkpt lat="45.39136" lon="7.557115"><ele>1546.0</ele><time>2026-04-25T10:09:06.741Z</time></trkpt><trkpt lat="45.3912717" lon="7.557155"><ele>1546.3333333333335</ele><time>2026-04-25T10:09:08.739Z</time></trkpt><trkpt lat="45.3912067" lon="7.5571967"><ele>1546.6666666666667</ele><time>2026-04-25T10:09:10.744Z</time></trkpt><trkpt lat="45.3911367" lon="7.5572267"><ele>1547.0</ele><time>2026-04-25T10:09:12.738Z</time></trkpt><trkpt lat="45.391055" lon="7.5572483"><ele>1547.3333333333335</ele><time>2026-04-25T10:09:15.745Z</time></trkpt><trkpt lat="45.3909817" lon="7.5572633"><ele>1547.6666666666667</ele><time>2026-04-25T10:09:17.743Z</time></trkpt><trkpt lat="45.3908967" lon="7.5573"><ele>1548.0</ele><time>2026-04-25T10:09:20.739Z</time></trkpt><trkpt lat="45.390835" lon="7.557325"><ele>1548.0</ele><time>2026-04-25T10:09:22.743Z</time></trkpt><trkpt lat="45.3907533" lon="7.557355"><ele>1548.0</ele><time>2026-04-25T10:09:25.743Z</time></trkpt><trkpt lat="45.39069" lon="7.5573683"><ele>1548.0</ele><time>2026-04-25T10:09:27.745Z</time></trkpt><trkpt lat="45.3905967" lon="7.5573867"><ele>1548.0</ele><time>2026-04-25T10:09:30.738Z</time></trkpt><trkpt lat="45.3905317" lon="7.557405"><ele>1548.0</ele><time>2026-04-25T10:09:32.741Z</time></trkpt><trkpt lat="45.3904617" lon="7.5574267"><ele>1548.0</ele><time>2026-04-25T10:09:34.745Z</time></trkpt><trkpt lat="45.39039" lon="7.5574417"><ele>1547.1666666666667</ele><time>2026-04-25T10:09:36.743Z</time></trkpt><trkpt lat="45.3903167" lon="7.5574533"><ele>1546.3333333333335</ele><time>2026-04-25T10:09:38.739Z</time></trkpt><trkpt lat="45.39024" lon="7.5574533"><ele>1545.5</ele><time>2026-04-25T10:09:40.74Z</time></trkpt><trkpt lat="45.39016" lon="7.5574483"><ele>1544.6666666666667</ele><time>2026-04-25T10:09:42.745Z</time></trkpt><trkpt lat="45.3900617" lon="7.55743"><ele>1543.8333333333335</ele><time>2026-04-25T10:09:44.739Z</time></trkpt><trkpt lat="45.3899667" lon="7.5574283"><ele>1543.0</ele><time>2026-04-25T10:09:46.74Z</time></trkpt><trkpt lat="45.3898517" lon="7.5574333"><ele>1543.0000000000002</ele><time>2026-04-25T10:09:48.742Z</time></trkpt><trkpt lat="45.3897483" lon="7.5574217"><ele>1543.0</ele><time>2026-04-25T10:09:50.741Z</time></trkpt><trkpt lat="45.38964" lon="7.5574167"><ele>1543.0</ele><time>2026-04-25T10:09:52.741Z</time></trkpt><trkpt lat="45.3895583" lon="7.5574167"><ele>1543.0</ele><time>2026-04-25T10:09:54.744Z</time></trkpt><trkpt lat="45.38949" lon="7.55742"><ele>1543.0000000000002</ele><time>2026-04-25T10:09:57.744Z</time></trkpt><trkpt lat="45.389425" lon="7.5574217"><ele>1543.0</ele><time>2026-04-25T10:10:00.745Z</time></trkpt><trkpt lat="45.3894" lon="7.5573367"><ele>1541.0000000000002</ele><time>2026-04-25T10:10:04.743Z</time></trkpt><trkpt lat="45.3893967" lon="7.5572383"><ele>1539.0</ele><time>2026-04-25T10:10:07.741Z</time></trkpt><trkpt lat="45.3893517" lon="7.5571483"><ele>1537.0</ele><time>2026-04-25T10:10:11.743Z</time></trkpt><trkpt lat="45.389265" lon="7.5571417"><ele>1535.0</ele><time>2026-04-25T10:11:53.74Z</time></trkpt><trkpt lat="45.3893017" lon="7.5572833"><ele>1533.0</ele><time>2026-04-25T10:14:44.744Z</time></trkpt><trkpt lat="45.38932" lon="7.5571567"><ele>1531.0</ele><time>2026-04-25T10:16:18.745Z</time></trkpt><trkpt lat="45.3893733" lon="7.5572083"><ele>1531.0</ele><time>2026-04-25T10:22:16.74Z</time></trkpt><trkpt lat="45.3893833" lon="7.5573167"><ele>1531.0</ele><time>2026-04-25T10:22:21.741Z</time></trkpt><trkpt lat="45.389325" lon="7.5574117"><ele>1531.0</ele><time>2026-04-25T10:22:24.738Z</time></trkpt><trkpt lat="45.3892617" lon="7.5574333"><ele>1531.0</ele><time>2026-04-25T10:22:26.742Z</time></trkpt><trkpt lat="45.3891733" lon="7.557425"><ele>1531.0</ele><time>2026-04-25T10:22:29.739Z</time></trkpt><trkpt lat="45.3890883" lon="7.55742"><ele>1531.0</ele><time>2026-04-25T10:22:32.742Z</time></trkpt><trkpt lat="45.38902" lon="7.5573867"><ele>1531.0</ele><time>2026-04-25T10:22:34.743Z</time></trkpt><trkpt lat="45.3889317" lon="7.5573567"><ele>1531.0</ele><time>2026-04-25T10:22:36.74Z</time></trkpt><trkpt lat="45.38885" lon="7.55734"><ele>1531.0</ele><time>2026-04-25T10:22:38.741Z</time></trkpt><trkpt lat="45.38878" lon="7.5573033"><ele>1531.0</ele><time>2026-04-25T10:22:40.737Z</time></trkpt><trkpt lat="45.3887033" lon="7.55727"><ele>1531.0</ele><time>2026-04-25T10:22:42.742Z</time></trkpt><trkpt lat="45.388605" lon="7.5572267"><ele>1531.0</ele><time>2026-04-25T10:22:44.745Z</time></trkpt><trkpt lat="45.3884983" lon="7.557185"><ele>1532.1999999999998</ele><time>2026-04-25T10:22:46.742Z</time></trkpt><trkpt lat="45.3884083" lon="7.5571533"><ele>1533.3999999999999</ele><time>2026-04-25T10:22:48.737Z</time></trkpt><trkpt lat="45.3883317" lon="7.55713"><ele>1534.6</ele><time>2026-04-25T10:22:50.739Z</time></trkpt><trkpt lat="45.3882517" lon="7.55708"><ele>1535.8</ele><time>2026-04-25T10:22:52.739Z</time></trkpt><trkpt lat="45.388165" lon="7.5569733"><ele>1537.0</ele><time>2026-04-25T10:22:54.739Z</time></trkpt><trkpt lat="45.38808" lon="7.5568467"><ele>1530.1999999999998</ele><time>2026-04-25T10:22:56.746Z</time></trkpt><trkpt lat="45.387995" lon="7.55673"><ele>1523.4</ele><time>2026-04-25T10:22:58.74Z</time></trkpt><trkpt lat="45.3879067" lon="7.556625"><ele>1516.6</ele><time>2026-04-25T10:23:00.74Z</time></trkpt><trkpt lat="45.3878283" lon="7.5565183"><ele>1509.8000000000002</ele><time>2026-04-25T10:23:02.738Z</time></trkpt><trkpt lat="45.3877633" lon="7.55642"><ele>1503.0</ele><time>2026-04-25T10:23:04.746Z</time></trkpt><trkpt lat="45.3877067" lon="7.5563267"><ele>1503.0</ele><time>2026-04-25T10:23:06.746Z</time></trkpt><trkpt lat="45.3876417" lon="7.556215"><ele>1503.0</ele><time>2026-04-25T10:23:08.736Z</time></trkpt><trkpt lat="45.38759" lon="7.5560983"><ele>1503.0</ele><time>2026-04-25T10:23:10.739Z</time></trkpt><trkpt lat="45.387555" lon="7.5559783"><ele>1503.0</ele><time>2026-04-25T10:23:12.741Z</time></trkpt><trkpt lat="45.3875333" lon="7.5558667"><ele>1503.0</ele><time>2026-04-25T10:23:14.739Z</time></trkpt><trkpt lat="45.3875083" lon="7.555745"><ele>1506.1666666666667</ele><time>2026-04-25T10:23:16.74Z</time></trkpt><trkpt lat="45.387465" lon="7.5556217"><ele>1509.3333333333333</ele><time>2026-04-25T10:23:18.737Z</time></trkpt><trkpt lat="45.3874133" lon="7.5555117"><ele>1512.5</ele><time>2026-04-25T10:23:20.739Z</time></trkpt><trkpt lat="45.3873617" lon="7.55543"><ele>1515.6666666666665</ele><time>2026-04-25T10:23:22.74Z</time></trkpt><trkpt lat="45.3872833" lon="7.5553667"><ele>1518.8333333333333</ele><time>2026-04-25T10:23:25.742Z</time></trkpt><trkpt lat="45.3872267" lon="7.555295"><ele>1522.0</ele><time>2026-04-25T10:23:28.741Z</time></trkpt><trkpt lat="45.38719" lon="7.555175"><ele>1517.6</ele><time>2026-04-25T10:23:31.742Z</time></trkpt><trkpt lat="45.3871367" lon="7.5550717"><ele>1513.1999999999998</ele><time>2026-04-25T10:23:33.742Z</time></trkpt><trkpt lat="45.3870583" lon="7.5549817"><ele>1508.8</ele><time>2026-04-25T10:23:35.741Z</time></trkpt><trkpt lat="45.38698" lon="7.5548683"><ele>1504.4</ele><time>2026-04-25T10:23:37.741Z</time></trkpt><trkpt lat="45.3868917" lon="7.5547683"><ele>1500.0</ele><time>2026-04-25T10:23:39.739Z</time></trkpt><trkpt lat="45.3868017" lon="7.55469"><ele>1500.0</ele><time>2026-04-25T10:23:41.739Z</time></trkpt><trkpt lat="45.3867167" lon="7.5546233"><ele>1500.0</ele><time>2026-04-25T10:23:43.742Z</time></trkpt><trkpt lat="45.386655" lon="7.55455"><ele>1500.0</ele><time>2026-04-25T10:23:45.737Z</time></trkpt><trkpt lat="45.3866067" lon="7.55445"><ele>1500.0</ele><time>2026-04-25T10:23:47.743Z</time></trkpt><trkpt lat="45.3865633" lon="7.5543317"><ele>1500.0</ele><time>2026-04-25T10:23:49.743Z</time></trkpt><trkpt lat="45.3865217" lon="7.55422"><ele>1500.0</ele><time>2026-04-25T10:23:51.741Z</time></trkpt><trkpt lat="45.386495" lon="7.554125"><ele>1499.5</ele><time>2026-04-25T10:23:53.739Z</time></trkpt><trkpt lat="45.3864667" lon="7.5540233"><ele>1499.0</ele><time>2026-04-25T10:23:55.744Z</time></trkpt><trkpt lat="45.3864333" lon="7.5539067"><ele>1498.5</ele><time>2026-04-25T10:23:57.74Z</time></trkpt><trkpt lat="45.3864083" lon="7.553785"><ele>1498.0</ele><time>2026-04-25T10:23:59.738Z</time></trkpt><trkpt lat="45.3863933" lon="7.553665"><ele>1497.5</ele><time>2026-04-25T10:24:01.738Z</time></trkpt><trkpt lat="45.38634" lon="7.55358"><ele>1497.0</ele><time>2026-04-25T10:24:03.743Z</time></trkpt><trkpt lat="45.3862717" lon="7.5535267"><ele>1497.0</ele><time>2026-04-25T10:24:05.739Z</time></trkpt><trkpt lat="45.3861983" lon="7.5534633"><ele>1497.0</ele><time>2026-04-25T10:24:07.742Z</time></trkpt><trkpt lat="45.3861183" lon="7.5534017"><ele>1497.0</ele><time>2026-04-25T10:24:09.74Z</time></trkpt><trkpt lat="45.3860267" lon="7.553355"><ele>1497.0</ele><time>2026-04-25T10:24:11.743Z</time></trkpt><trkpt lat="45.3859417" lon="7.5532783"><ele>1497.0</ele><time>2026-04-25T10:24:13.741Z</time></trkpt><trkpt lat="45.3858667" lon="7.55321"><ele>1497.0</ele><time>2026-04-25T10:24:15.737Z</time></trkpt><trkpt lat="45.3857917" lon="7.5531583"><ele>1497.0</ele><time>2026-04-25T10:24:17.738Z</time></trkpt><trkpt lat="45.3857217" lon="7.5531267"><ele>1497.0</ele><time>2026-04-25T10:24:19.74Z</time></trkpt><trkpt lat="45.3856467" lon="7.5531033"><ele>1497.0</ele><time>2026-04-25T10:24:21.742Z</time></trkpt><trkpt lat="45.3855683" lon="7.5530683"><ele>1497.0</ele><time>2026-04-25T10:24:23.744Z</time></trkpt><trkpt lat="45.38549" lon="7.5530267"><ele>1497.0</ele><time>2026-04-25T10:24:25.745Z</time></trkpt><trkpt lat="45.385415" lon="7.55298"><ele>1496.6666666666667</ele><time>2026-04-25T10:24:27.741Z</time></trkpt><trkpt lat="45.3853333" lon="7.55294"><ele>1496.3333333333333</ele><time>2026-04-25T10:24:29.738Z</time></trkpt><trkpt lat="45.3852567" lon="7.55291"><ele>1496.0</ele><time>2026-04-25T10:24:31.74Z</time></trkpt><trkpt lat="45.3851883" lon="7.552855"><ele>1495.6666666666665</ele><time>2026-04-25T10:24:33.737Z</time></trkpt><trkpt lat="45.3851183" lon="7.5527833"><ele>1495.3333333333333</ele><time>2026-04-25T10:24:35.745Z</time></trkpt><trkpt lat="45.38506" lon="7.5527"><ele>1495.0</ele><time>2026-04-25T10:24:37.736Z</time></trkpt><trkpt lat="45.3850167" lon="7.5526183"><ele>1495.0</ele><time>2026-04-25T10:24:39.742Z</time></trkpt><trkpt lat="45.38495" lon="7.5526533"><ele>1495.0</ele><time>2026-04-25T10:24:43.742Z</time></trkpt><trkpt lat="45.3849867" lon="7.55275"><ele>1495.0</ele><time>2026-04-25T10:24:46.739Z</time></trkpt><trkpt lat="45.3850317" lon="7.5528283"><ele>1495.0</ele><time>2026-04-25T10:24:48.737Z</time></trkpt><trkpt lat="45.3850767" lon="7.5529533"><ele>1495.0</ele><time>2026-04-25T10:24:50.741Z</time></trkpt><trkpt lat="45.3851367" lon="7.5530617"><ele>1495.0</ele><time>2026-04-25T10:24:52.744Z</time></trkpt><trkpt lat="45.3852117" lon="7.5531633"><ele>1495.4</ele><time>2026-04-25T10:24:54.739Z</time></trkpt><trkpt lat="45.3852967" lon="7.5532633"><ele>1495.8</ele><time>2026-04-25T10:24:56.742Z</time></trkpt><trkpt lat="45.3853867" lon="7.55335"><ele>1496.1999999999998</ele><time>2026-04-25T10:24:58.741Z</time></trkpt><trkpt lat="45.3854617" lon="7.5534267"><ele>1496.6</ele><time>2026-04-25T10:25:00.737Z</time></trkpt><trkpt lat="45.385535" lon="7.5535"><ele>1497.0</ele><time>2026-04-25T10:25:02.742Z</time></trkpt><trkpt lat="45.3855933" lon="7.55357"><ele>1497.0</ele><time>2026-04-25T10:25:04.743Z</time></trkpt><trkpt lat="45.3856533" lon="7.5536517"><ele>1497.0</ele><time>2026-04-25T10:25:06.74Z</time></trkpt><trkpt lat="45.3857233" lon="7.55375"><ele>1497.0</ele><time>2026-04-25T10:25:08.741Z</time></trkpt><trkpt lat="45.3857967" lon="7.5538417"><ele>1497.0</ele><time>2026-04-25T10:25:10.74Z</time></trkpt><trkpt lat="45.3858733" lon="7.5539517"><ele>1497.0</ele><time>2026-04-25T10:25:12.741Z</time></trkpt><trkpt lat="45.3859317" lon="7.5540733"><ele>1492.6666666666667</ele><time>2026-04-25T10:25:14.743Z</time></trkpt><trkpt lat="45.38597" lon="7.5541883"><ele>1488.3333333333333</ele><time>2026-04-25T10:25:16.759Z</time></trkpt><trkpt lat="45.3859867" lon="7.5543133"><ele>1484.0</ele><time>2026-04-25T10:25:18.743Z</time></trkpt><trkpt lat="45.3860017" lon="7.5544333"><ele>1479.6666666666665</ele><time>2026-04-25T10:25:20.739Z</time></trkpt><trkpt lat="45.38601" lon="7.5545567"><ele>1475.3333333333333</ele><time>2026-04-25T10:25:23.746Z</time></trkpt><trkpt lat="45.3859767" lon="7.5546633"><ele>1471.0</ele><time>2026-04-25T10:25:26.74Z</time></trkpt><trkpt lat="45.38595" lon="7.5547533"><ele>1468.0</ele><time>2026-04-25T10:25:28.743Z</time></trkpt><trkpt lat="45.3859183" lon="7.55486"><ele>1465.0</ele><time>2026-04-25T10:25:30.744Z</time></trkpt><trkpt lat="45.3858883" lon="7.5549533"><ele>1462.0</ele><time>2026-04-25T10:25:32.742Z</time></trkpt><trkpt lat="45.3858967" lon="7.5550817"><ele>1459.0</ele><time>2026-04-25T10:25:35.739Z</time></trkpt><trkpt lat="45.3859383" lon="7.5551667"><ele>1456.0</ele><time>2026-04-25T10:25:37.74Z</time></trkpt><trkpt lat="45.3859917" lon="7.5552767"><ele>1453.0</ele><time>2026-04-25T10:25:39.743Z</time></trkpt><trkpt lat="45.38607" lon="7.5554133"><ele>1450.3333333333333</ele><time>2026-04-25T10:25:41.742Z</time></trkpt><trkpt lat="45.3861183" lon="7.5554983"><ele>1447.6666666666665</ele><time>2026-04-25T10:25:42.742Z</time></trkpt><trkpt lat="45.38617" lon="7.55558"><ele>1445.0</ele><time>2026-04-25T10:25:43.742Z</time></trkpt><trkpt lat="45.3862183" lon="7.5556567"><ele>1442.3333333333333</ele><time>2026-04-25T10:25:44.739Z</time></trkpt><trkpt lat="45.386255" lon="7.5557317"><ele>1439.6666666666667</ele><time>2026-04-25T10:25:45.742Z</time></trkpt><trkpt lat="45.386305" lon="7.555865"><ele>1437.0</ele><time>2026-04-25T10:25:47.739Z</time></trkpt><trkpt lat="45.3863517" lon="7.5559683"><ele>1441.3333333333333</ele><time>2026-04-25T10:25:49.741Z</time></trkpt><trkpt lat="45.386395" lon="7.55608"><ele>1445.6666666666667</ele><time>2026-04-25T10:25:51.737Z</time></trkpt><trkpt lat="45.38643" lon="7.5561883"><ele>1450.0</ele><time>2026-04-25T10:25:53.738Z</time></trkpt><trkpt lat="45.3864667" lon="7.5562917"><ele>1454.3333333333335</ele><time>2026-04-25T10:25:55.743Z</time></trkpt><trkpt lat="45.3864933" lon="7.5564"><ele>1458.6666666666667</ele><time>2026-04-25T10:25:57.741Z</time></trkpt><trkpt lat="45.3864883" lon="7.5565117"><ele>1463.0</ele><time>2026-04-25T10:25:59.736Z</time></trkpt><trkpt lat="45.3864733" lon="7.5566283"><ele>1463.0</ele><time>2026-04-25T10:26:01.74Z</time></trkpt><trkpt lat="45.38646" lon="7.5567317"><ele>1463.0</ele><time>2026-04-25T10:26:03.741Z</time></trkpt><trkpt lat="45.3864383" lon="7.55682"><ele>1463.0</ele><time>2026-04-25T10:26:05.742Z</time></trkpt><trkpt lat="45.3864083" lon="7.5569433"><ele>1463.0</ele><time>2026-04-25T10:26:08.741Z</time></trkpt><trkpt lat="45.3863667" lon="7.5570183"><ele>1463.0</ele><time>2026-04-25T10:26:10.743Z</time></trkpt><trkpt lat="45.3863067" lon="7.5571267"><ele>1463.0</ele><time>2026-04-25T10:26:13.741Z</time></trkpt><trkpt lat="45.3862717" lon="7.5572067"><ele>1457.0</ele><time>2026-04-25T10:26:15.741Z</time></trkpt><trkpt lat="45.3862283" lon="7.5572833"><ele>1451.0</ele><time>2026-04-25T10:26:17.743Z</time></trkpt><trkpt lat="45.38618" lon="7.55736"><ele>1445.0</ele><time>2026-04-25T10:26:19.739Z</time></trkpt><trkpt lat="45.386135" lon="7.5574333"><ele>1439.0</ele><time>2026-04-25T10:26:21.739Z</time></trkpt><trkpt lat="45.386085" lon="7.5574983"><ele>1433.0</ele><time>2026-04-25T10:26:23.738Z</time></trkpt><trkpt lat="45.38603" lon="7.5575733"><ele>1427.0</ele><time>2026-04-25T10:26:25.741Z</time></trkpt><trkpt lat="45.3859683" lon="7.55764"><ele>1421.0</ele><time>2026-04-25T10:26:27.74Z</time></trkpt><trkpt lat="45.3858967" lon="7.5577"><ele>1421.0</ele><time>2026-04-25T10:26:29.738Z</time></trkpt><trkpt lat="45.3858283" lon="7.557755"><ele>1421.0</ele><time>2026-04-25T10:26:31.742Z</time></trkpt><trkpt lat="45.3857617" lon="7.55781"><ele>1421.0</ele><time>2026-04-25T10:26:33.74Z</time></trkpt><trkpt lat="45.3856967" lon="7.5578633"><ele>1421.0</ele><time>2026-04-25T10:26:35.74Z</time></trkpt><trkpt lat="45.38564" lon="7.5579183"><ele>1421.0</ele><time>2026-04-25T10:26:37.743Z</time></trkpt><trkpt lat="45.3855983" lon="7.5579867"><ele>1421.0</ele><time>2026-04-25T10:26:39.739Z</time></trkpt><trkpt lat="45.3855417" lon="7.5580833"><ele>1421.5</ele><time>2026-04-25T10:26:42.742Z</time></trkpt><trkpt lat="45.3854917" lon="7.55818"><ele>1422.0</ele><time>2026-04-25T10:26:45.741Z</time></trkpt><trkpt lat="45.3854717" lon="7.5582683"><ele>1422.5</ele><time>2026-04-25T10:26:47.745Z</time></trkpt><trkpt lat="45.385455" lon="7.5583933"><ele>1423.0</ele><time>2026-04-25T10:26:50.744Z</time></trkpt><trkpt lat="45.38549" lon="7.55848"><ele>1423.5</ele><time>2026-04-25T10:26:52.743Z</time></trkpt><trkpt lat="45.3855433" lon="7.5585817"><ele>1424.0</ele><time>2026-04-25T10:26:54.741Z</time></trkpt><trkpt lat="45.3856" lon="7.5586817"><ele>1421.3333333333335</ele><time>2026-04-25T10:26:56.742Z</time></trkpt><trkpt lat="45.3856517" lon="7.558795"><ele>1418.6666666666667</ele><time>2026-04-25T10:26:58.742Z</time></trkpt><trkpt lat="45.3856883" lon="7.5588917"><ele>1416.0</ele><time>2026-04-25T10:27:00.737Z</time></trkpt><trkpt lat="45.3857233" lon="7.5589683"><ele>1413.3333333333333</ele><time>2026-04-25T10:27:02.742Z</time></trkpt><trkpt lat="45.3857767" lon="7.5590583"><ele>1410.6666666666665</ele><time>2026-04-25T10:27:04.74Z</time></trkpt><trkpt lat="45.3858217" lon="7.5591683"><ele>1408.0</ele><time>2026-04-25T10:27:06.746Z</time></trkpt><trkpt lat="45.3858433" lon="7.5592833"><ele>1408.0</ele><time>2026-04-25T10:27:08.745Z</time></trkpt><trkpt lat="45.38585" lon="7.5594"><ele>1408.0</ele><time>2026-04-25T10:27:10.742Z</time></trkpt><trkpt lat="45.38586" lon="7.5595267"><ele>1408.0</ele><time>2026-04-25T10:27:12.738Z</time></trkpt><trkpt lat="45.3858583" lon="7.559655"><ele>1408.0</ele><time>2026-04-25T10:27:14.744Z</time></trkpt><trkpt lat="45.385845" lon="7.559785"><ele>1408.0</ele><time>2026-04-25T10:27:16.742Z</time></trkpt><trkpt lat="45.3858117" lon="7.5598883"><ele>1408.0</ele><time>2026-04-25T10:27:18.738Z</time></trkpt><trkpt lat="45.38576" lon="7.5599833"><ele>1405.142857142857</ele><time>2026-04-25T10:27:20.742Z</time></trkpt><trkpt lat="45.3857017" lon="7.56008"><ele>1402.2857142857142</ele><time>2026-04-25T10:27:22.743Z</time></trkpt><trkpt lat="45.3856483" lon="7.560155"><ele>1399.4285714285716</ele><time>2026-04-25T10:27:24.739Z</time></trkpt><trkpt lat="45.38559" lon="7.5602133"><ele>1396.5714285714284</ele><time>2026-04-25T10:27:26.741Z</time></trkpt><trkpt lat="45.3855333" lon="7.56026"><ele>1393.7142857142856</ele><time>2026-04-25T10:27:28.739Z</time></trkpt><trkpt lat="45.3854767" lon="7.5602067"><ele>1390.857142857143</ele><time>2026-04-25T10:27:31.746Z</time></trkpt><trkpt lat="45.3854983" lon="7.5601183"><ele>1388.0</ele><time>2026-04-25T10:27:34.74Z</time></trkpt><trkpt lat="45.38554" lon="7.5600033"><ele>1388.0</ele><time>2026-04-25T10:27:37.746Z</time></trkpt><trkpt lat="45.38555" lon="7.5599033"><ele>1388.0</ele><time>2026-04-25T10:27:39.743Z</time></trkpt><trkpt lat="45.3855467" lon="7.5598017"><ele>1388.0</ele><time>2026-04-25T10:27:41.744Z</time></trkpt><trkpt lat="45.3855433" lon="7.5596983"><ele>1388.0</ele><time>2026-04-25T10:27:43.742Z</time></trkpt><trkpt lat="45.38552" lon="7.5595983"><ele>1388.0</ele><time>2026-04-25T10:27:45.74Z</time></trkpt><trkpt lat="45.3854633" lon="7.5594983"><ele>1388.0</ele><time>2026-04-25T10:27:47.746Z</time></trkpt><trkpt lat="45.3853883" lon="7.559375"><ele>1386.0</ele><time>2026-04-25T10:27:49.742Z</time></trkpt><trkpt lat="45.3853417" lon="7.5593133"><ele>1384.0</ele><time>2026-04-25T10:27:50.746Z</time></trkpt><trkpt lat="45.38529" lon="7.5592583"><ele>1382.0</ele><time>2026-04-25T10:27:51.741Z</time></trkpt><trkpt lat="45.3852367" lon="7.5592083"><ele>1380.0</ele><time>2026-04-25T10:27:52.739Z</time></trkpt><trkpt lat="45.38513" lon="7.559125"><ele>1378.0</ele><time>2026-04-25T10:27:54.74Z</time></trkpt><trkpt lat="45.3850317" lon="7.559035"><ele>1376.0</ele><time>2026-04-25T10:27:56.749Z</time></trkpt><trkpt lat="45.3849367" lon="7.5589217"><ele>1376.0</ele><time>2026-04-25T10:27:58.738Z</time></trkpt><trkpt lat="45.384855" lon="7.5588033"><ele>1376.0</ele><time>2026-04-25T10:28:00.734Z</time></trkpt><trkpt lat="45.38481" lon="7.5587"><ele>1376.0</ele><time>2026-04-25T10:28:02.747Z</time></trkpt><trkpt lat="45.3847667" lon="7.5586"><ele>1376.0</ele><time>2026-04-25T10:28:05.745Z</time></trkpt><trkpt lat="45.3847217" lon="7.558665"><ele>1376.0</ele><time>2026-04-25T10:28:09.742Z</time></trkpt><trkpt lat="45.3847383" lon="7.5588183"><ele>1376.0</ele><time>2026-04-25T10:28:12.738Z</time></trkpt><trkpt lat="45.38478" lon="7.558945"><ele>1376.0</ele><time>2026-04-25T10:28:14.74Z</time></trkpt><trkpt lat="45.3848167" lon="7.5590717"><ele>1376.0</ele><time>2026-04-25T10:28:16.737Z</time></trkpt><trkpt lat="45.384865" lon="7.5591883"><ele>1376.0</ele><time>2026-04-25T10:28:18.742Z</time></trkpt><trkpt lat="45.384885" lon="7.5593167"><ele>1376.0</ele><time>2026-04-25T10:28:20.743Z</time></trkpt><trkpt lat="45.3848667" lon="7.559465"><ele>1374.8333333333335</ele><time>2026-04-25T10:28:22.741Z</time></trkpt><trkpt lat="45.3848367" lon="7.5596117"><ele>1373.6666666666667</ele><time>2026-04-25T10:28:24.743Z</time></trkpt><trkpt lat="45.3847967" lon="7.559745"><ele>1372.5</ele><time>2026-04-25T10:28:26.747Z</time></trkpt><trkpt lat="45.38475" lon="7.55986"><ele>1371.3333333333333</ele><time>2026-04-25T10:28:28.742Z</time></trkpt><trkpt lat="45.3847133" lon="7.55995"><ele>1370.1666666666665</ele><time>2026-04-25T10:28:30.747Z</time></trkpt><trkpt lat="45.38468" lon="7.5600267"><ele>1369.0</ele><time>2026-04-25T10:28:32.737Z</time></trkpt><trkpt lat="45.3846517" lon="7.5601567"><ele>1363.7142857142858</ele><time>2026-04-25T10:28:34.739Z</time></trkpt><trkpt lat="45.3846367" lon="7.5602533"><ele>1358.4285714285716</ele><time>2026-04-25T10:28:35.748Z</time></trkpt><trkpt lat="45.38462" lon="7.5603533"><ele>1353.1428571428573</ele><time>2026-04-25T10:28:36.741Z</time></trkpt><trkpt lat="45.3845983" lon="7.560455"><ele>1347.857142857143</ele><time>2026-04-25T10:28:37.745Z</time></trkpt><trkpt lat="45.38457" lon="7.56055"><ele>1342.5714285714284</ele><time>2026-04-25T10:28:38.74Z</time></trkpt><trkpt lat="45.384535" lon="7.5606417"><ele>1337.2857142857144</ele><time>2026-04-25T10:28:39.74Z</time></trkpt><trkpt lat="45.384495" lon="7.56073"><ele>1332.0</ele><time>2026-04-25T10:28:40.74Z</time></trkpt><trkpt lat="45.3844467" lon="7.5608217"><ele>1332.0</ele><time>2026-04-25T10:28:41.74Z</time></trkpt><trkpt lat="45.3844033" lon="7.5609133"><ele>1332.0</ele><time>2026-04-25T10:28:42.743Z</time></trkpt><trkpt lat="45.3843617" lon="7.561005"><ele>1332.0</ele><time>2026-04-25T10:28:43.741Z</time></trkpt><trkpt lat="45.38432" lon="7.56108"><ele>1332.0</ele><time>2026-04-25T10:28:44.74Z</time></trkpt><trkpt lat="45.38426" lon="7.5611817"><ele>1332.0</ele><time>2026-04-25T10:28:46.743Z</time></trkpt><trkpt lat="45.3842033" lon="7.5612517"><ele>1332.0</ele><time>2026-04-25T10:28:48.744Z</time></trkpt><trkpt lat="45.3841367" lon="7.5613217"><ele>1331.8333333333333</ele><time>2026-04-25T10:28:50.74Z</time></trkpt><trkpt lat="45.3840667" lon="7.561385"><ele>1331.6666666666667</ele><time>2026-04-25T10:28:52.742Z</time></trkpt><trkpt lat="45.3839933" lon="7.56143"><ele>1331.5</ele><time>2026-04-25T10:28:54.737Z</time></trkpt><trkpt lat="45.3839167" lon="7.5614767"><ele>1331.3333333333335</ele><time>2026-04-25T10:28:56.742Z</time></trkpt><trkpt lat="45.3838467" lon="7.5615233"><ele>1331.1666666666667</ele><time>2026-04-25T10:28:58.745Z</time></trkpt><trkpt lat="45.383785" lon="7.5615617"><ele>1331.0</ele><time>2026-04-25T10:29:00.737Z</time></trkpt><trkpt lat="45.3837033" lon="7.561615"><ele>1329.0</ele><time>2026-04-25T10:29:03.741Z</time></trkpt><trkpt lat="45.38367" lon="7.5617167"><ele>1327.0</ele><time>2026-04-25T10:29:06.74Z</time></trkpt><trkpt lat="45.383685" lon="7.561825"><ele>1325.0</ele><time>2026-04-25T10:29:10.737Z</time></trkpt><trkpt lat="45.383685" lon="7.5619167"><ele>1323.0</ele><time>2026-04-25T10:29:13.743Z</time></trkpt><trkpt lat="45.3837267" lon="7.5620017"><ele>1321.0</ele><time>2026-04-25T10:29:16.743Z</time></trkpt><trkpt lat="45.38379" lon="7.5620533"><ele>1319.0</ele><time>2026-04-25T10:29:19.741Z</time></trkpt><trkpt lat="45.3838617" lon="7.562075"><ele>1317.0</ele><time>2026-04-25T10:29:22.74Z</time></trkpt><trkpt lat="45.383935" lon="7.562115"><ele>1316.0</ele><time>2026-04-25T10:29:25.743Z</time></trkpt><trkpt lat="45.383995" lon="7.5621467"><ele>1315.0</ele><time>2026-04-25T10:29:27.738Z</time></trkpt><trkpt lat="45.3840783" lon="7.5622"><ele>1314.0</ele><time>2026-04-25T10:29:30.743Z</time></trkpt><trkpt lat="45.3841583" lon="7.5622533"><ele>1313.0</ele><time>2026-04-25T10:29:33.738Z</time></trkpt><trkpt lat="45.3842317" lon="7.562315"><ele>1312.0</ele><time>2026-04-25T10:29:36.739Z</time></trkpt><trkpt lat="45.38429" lon="7.562355"><ele>1311.0</ele><time>2026-04-25T10:29:38.74Z</time></trkpt><trkpt lat="45.3843567" lon="7.5623867"><ele>1311.0</ele><time>2026-04-25T10:29:40.741Z</time></trkpt><trkpt lat="45.38443" lon="7.56243"><ele>1311.0</ele><time>2026-04-25T10:29:42.74Z</time></trkpt><trkpt lat="45.384495" lon="7.5624833"><ele>1311.0</ele><time>2026-04-25T10:29:44.74Z</time></trkpt><trkpt lat="45.38457" lon="7.5625317"><ele>1311.0</ele><time>2026-04-25T10:29:46.744Z</time></trkpt><trkpt lat="45.3846433" lon="7.5625783"><ele>1311.0</ele><time>2026-04-25T10:29:48.739Z</time></trkpt><trkpt lat="45.3847083" lon="7.5626"><ele>1311.0</ele><time>2026-04-25T10:29:50.741Z</time></trkpt><trkpt lat="45.3847717" lon="7.5626217"><ele>1311.0</ele><time>2026-04-25T10:29:52.74Z</time></trkpt><trkpt lat="45.3848567" lon="7.5626217"><ele>1311.0</ele><time>2026-04-25T10:29:55.743Z</time></trkpt><trkpt lat="45.3849283" lon="7.5626217"><ele>1311.0</ele><time>2026-04-25T10:29:58.742Z</time></trkpt><trkpt lat="45.3849783" lon="7.56269"><ele>1311.0</ele><time>2026-04-25T10:30:02.74Z</time></trkpt><trkpt lat="45.38491" lon="7.5627217"><ele>1311.0</ele><time>2026-04-25T10:30:06.737Z</time></trkpt><trkpt lat="45.3848467" lon="7.562725"><ele>1311.0</ele><time>2026-04-25T10:30:08.738Z</time></trkpt><trkpt lat="45.3847633" lon="7.5627667"><ele>1311.0</ele><time>2026-04-25T10:30:10.748Z</time></trkpt><trkpt lat="45.3846733" lon="7.562815"><ele>1311.0</ele><time>2026-04-25T10:30:12.742Z</time></trkpt><trkpt lat="45.384555" lon="7.5628633"><ele>1311.0</ele><time>2026-04-25T10:30:14.737Z</time></trkpt><trkpt lat="45.38449" lon="7.5628867"><ele>1311.0</ele><time>2026-04-25T10:30:15.742Z</time></trkpt><trkpt lat="45.384415" lon="7.5629083"><ele>1311.0</ele><time>2026-04-25T10:30:16.741Z</time></trkpt><trkpt lat="45.3843383" lon="7.5629267"><ele>1311.0</ele><time>2026-04-25T10:30:17.74Z</time></trkpt><trkpt lat="45.3842583" lon="7.5629433"><ele>1311.0</ele><time>2026-04-25T10:30:18.749Z</time></trkpt><trkpt lat="45.3841883" lon="7.5629467"><ele>1306.1999999999998</ele><time>2026-04-25T10:30:19.74Z</time></trkpt><trkpt lat="45.3840717" lon="7.5629533"><ele>1301.3999999999999</ele><time>2026-04-25T10:30:21.742Z</time></trkpt><trkpt lat="45.3839783" lon="7.5629967"><ele>1296.6</ele><time>2026-04-25T10:30:23.741Z</time></trkpt><trkpt lat="45.3838967" lon="7.5630683"><ele>1291.8</ele><time>2026-04-25T10:30:25.747Z</time></trkpt><trkpt lat="45.383815" lon="7.5631367"><ele>1287.0</ele><time>2026-04-25T10:30:27.74Z</time></trkpt><trkpt lat="45.3837467" lon="7.5631917"><ele>1287.0</ele><time>2026-04-25T10:30:29.743Z</time></trkpt><trkpt lat="45.3836783" lon="7.5632533"><ele>1287.0</ele><time>2026-04-25T10:30:31.741Z</time></trkpt><trkpt lat="45.38362" lon="7.5633133"><ele>1287.0</ele><time>2026-04-25T10:30:33.741Z</time></trkpt><trkpt lat="45.3835567" lon="7.5633633"><ele>1287.0</ele><time>2026-04-25T10:30:35.738Z</time></trkpt><trkpt lat="45.3834783" lon="7.5634317"><ele>1287.0</ele><time>2026-04-25T10:30:38.741Z</time></trkpt><trkpt lat="45.3834017" lon="7.5634817"><ele>1287.0</ele><time>2026-04-25T10:30:41.744Z</time></trkpt><trkpt lat="45.3833267" lon="7.5635283"><ele>1287.0</ele><time>2026-04-25T10:30:44.746Z</time></trkpt><trkpt lat="45.3832433" lon="7.5635633"><ele>1287.0</ele><time>2026-04-25T10:30:47.74Z</time></trkpt><trkpt lat="45.38324" lon="7.5636533"><ele>1287.0</ele><time>2026-04-25T10:30:50.743Z</time></trkpt><trkpt lat="45.3833033" lon="7.5636717"><ele>1287.0</ele><time>2026-04-25T10:30:53.741Z</time></trkpt><trkpt lat="45.38339" lon="7.5636817"><ele>1287.0</ele><time>2026-04-25T10:30:56.741Z</time></trkpt><trkpt lat="45.3834633" lon="7.5636917"><ele>1287.0</ele><time>2026-04-25T10:30:58.74Z</time></trkpt><trkpt lat="45.3835317" lon="7.5636883"><ele>1287.0</ele><time>2026-04-25T10:31:00.74Z</time></trkpt><trkpt lat="45.383595" lon="7.5636717"><ele>1287.0</ele><time>2026-04-25T10:31:02.746Z</time></trkpt><trkpt lat="45.3836817" lon="7.563675"><ele>1287.0</ele><time>2026-04-25T10:31:05.736Z</time></trkpt><trkpt lat="45.3837483" lon="7.5636817"><ele>1287.0</ele><time>2026-04-25T10:31:07.744Z</time></trkpt><trkpt lat="45.3838217" lon="7.56368"><ele>1287.0</ele><time>2026-04-25T10:31:09.747Z</time></trkpt><trkpt lat="45.3839017" lon="7.563675"><ele>1287.0</ele><time>2026-04-25T10:31:11.749Z</time></trkpt><trkpt lat="45.3839867" lon="7.5636867"><ele>1287.0</ele><time>2026-04-25T10:31:13.739Z</time></trkpt><trkpt lat="45.3840867" lon="7.5637083"><ele>1279.1999999999998</ele><time>2026-04-25T10:31:15.737Z</time></trkpt><trkpt lat="45.3841833" lon="7.563745"><ele>1271.3999999999999</ele><time>2026-04-25T10:31:17.74Z</time></trkpt><trkpt lat="45.3842767" lon="7.5638"><ele>1263.6</ele><time>2026-04-25T10:31:19.744Z</time></trkpt><trkpt lat="45.3843733" lon="7.5638433"><ele>1255.8</ele><time>2026-04-25T10:31:21.742Z</time></trkpt><trkpt lat="45.3844517" lon="7.5638633"><ele>1248.0</ele><time>2026-04-25T10:31:23.741Z</time></trkpt><trkpt lat="45.3845233" lon="7.56386"><ele>1248.0</ele><time>2026-04-25T10:31:25.741Z</time></trkpt><trkpt lat="45.384615" lon="7.5638383"><ele>1248.0</ele><time>2026-04-25T10:31:28.742Z</time></trkpt><trkpt lat="45.3846967" lon="7.5638133"><ele>1248.0</ele><time>2026-04-25T10:31:31.739Z</time></trkpt><trkpt lat="45.3847583" lon="7.5637683"><ele>1248.0</ele><time>2026-04-25T10:31:33.742Z</time></trkpt><trkpt lat="45.3848433" lon="7.5637367"><ele>1248.0</ele><time>2026-04-25T10:31:36.745Z</time></trkpt><trkpt lat="45.38481" lon="7.563835"><ele>1248.0</ele><time>2026-04-25T10:32:05.736Z</time></trkpt><trkpt lat="45.3847433" lon="7.5639117"><ele>1248.0</ele><time>2026-04-25T10:32:07.745Z</time></trkpt><trkpt lat="45.3846767" lon="7.56401"><ele>1248.0</ele><time>2026-04-25T10:32:09.745Z</time></trkpt><trkpt lat="45.38463" lon="7.5640867"><ele>1248.0</ele><time>2026-04-25T10:32:11.743Z</time></trkpt><trkpt lat="45.3845517" lon="7.564125"><ele>1248.0</ele><time>2026-04-25T10:32:14.744Z</time></trkpt><trkpt lat="45.384475" lon="7.56415"><ele>1248.0</ele><time>2026-04-25T10:32:17.742Z</time></trkpt><trkpt lat="45.3844017" lon="7.5641967"><ele>1248.0</ele><time>2026-04-25T10:32:20.74Z</time></trkpt><trkpt lat="45.3843167" lon="7.56423"><ele>1248.0</ele><time>2026-04-25T10:32:23.745Z</time></trkpt><trkpt lat="45.3842533" lon="7.5642583"><ele>1248.0</ele><time>2026-04-25T10:32:25.74Z</time></trkpt><trkpt lat="45.3841733" lon="7.564315"><ele>1248.0</ele><time>2026-04-25T10:32:27.742Z</time></trkpt><trkpt lat="45.3840767" lon="7.5644183"><ele>1248.0</ele><time>2026-04-25T10:32:29.742Z</time></trkpt><trkpt lat="45.3840233" lon="7.564475"><ele>1248.0</ele><time>2026-04-25T10:32:30.744Z</time></trkpt><trkpt lat="45.3839667" lon="7.5645283"><ele>1248.0</ele><time>2026-04-25T10:32:31.741Z</time></trkpt><trkpt lat="45.383905" lon="7.5645817"><ele>1245.8333333333333</ele><time>2026-04-25T10:32:32.741Z</time></trkpt><trkpt lat="45.3838367" lon="7.564635"><ele>1243.6666666666667</ele><time>2026-04-25T10:32:33.743Z</time></trkpt><trkpt lat="45.3837633" lon="7.5646867"><ele>1241.5</ele><time>2026-04-25T10:32:34.74Z</time></trkpt><trkpt lat="45.3836883" lon="7.5647467"><ele>1239.3333333333335</ele><time>2026-04-25T10:32:35.737Z</time></trkpt><trkpt lat="45.383615" lon="7.56481"><ele>1237.1666666666667</ele><time>2026-04-25T10:32:36.745Z</time></trkpt><trkpt lat="45.383545" lon="7.5648717"><ele>1235.0</ele><time>2026-04-25T10:32:37.737Z</time></trkpt><trkpt lat="45.3834867" lon="7.564935"><ele>1235.0</ele><time>2026-04-25T10:32:38.742Z</time></trkpt><trkpt lat="45.38341" lon="7.5650417"><ele>1235.0</ele><time>2026-04-25T10:32:40.744Z</time></trkpt><trkpt lat="45.38335" lon="7.5651333"><ele>1235.0</ele><time>2026-04-25T10:32:42.739Z</time></trkpt><trkpt lat="45.38332" lon="7.5652333"><ele>1235.0</ele><time>2026-04-25T10:32:44.742Z</time></trkpt><trkpt lat="45.3832833" lon="7.5653483"><ele>1235.0</ele><time>2026-04-25T10:32:46.742Z</time></trkpt><trkpt lat="45.3832433" lon="7.5654583"><ele>1235.0</ele><time>2026-04-25T10:32:48.742Z</time></trkpt><trkpt lat="45.3831917" lon="7.56555"><ele>1232.3333333333335</ele><time>2026-04-25T10:32:50.746Z</time></trkpt><trkpt lat="45.3831417" lon="7.5656267"><ele>1229.6666666666667</ele><time>2026-04-25T10:32:52.742Z</time></trkpt><trkpt lat="45.3830883" lon="7.5657017"><ele>1227.0</ele><time>2026-04-25T10:32:54.74Z</time></trkpt><trkpt lat="45.3830267" lon="7.5657733"><ele>1224.3333333333333</ele><time>2026-04-25T10:32:56.742Z</time></trkpt><trkpt lat="45.3829667" lon="7.56584"><ele>1221.6666666666665</ele><time>2026-04-25T10:32:58.744Z</time></trkpt><trkpt lat="45.382905" lon="7.5658933"><ele>1219.0</ele><time>2026-04-25T10:33:00.741Z</time></trkpt><trkpt lat="45.3828133" lon="7.565955"><ele>1219.0</ele><time>2026-04-25T10:33:02.743Z</time></trkpt><trkpt lat="45.3827033" lon="7.566"><ele>1219.0</ele><time>2026-04-25T10:33:04.742Z</time></trkpt><trkpt lat="45.3825767" lon="7.5660317"><ele>1219.0</ele><time>2026-04-25T10:33:06.742Z</time></trkpt><trkpt lat="45.3825083" lon="7.5660483"><ele>1219.0</ele><time>2026-04-25T10:33:07.742Z</time></trkpt><trkpt lat="45.3824433" lon="7.5660583"><ele>1219.0</ele><time>2026-04-25T10:33:08.741Z</time></trkpt><trkpt lat="45.3823767" lon="7.56607"><ele>1219.0</ele><time>2026-04-25T10:33:09.739Z</time></trkpt><trkpt lat="45.382305" lon="7.5660833"><ele>1219.0</ele><time>2026-04-25T10:33:10.742Z</time></trkpt><trkpt lat="45.38224" lon="7.5660917"><ele>1219.0</ele><time>2026-04-25T10:33:11.736Z</time></trkpt><trkpt lat="45.3821283" lon="7.5660867"><ele>1219.0</ele><time>2026-04-25T10:33:13.737Z</time></trkpt><trkpt lat="45.3820367" lon="7.56605"><ele>1219.0</ele><time>2026-04-25T10:33:15.74Z</time></trkpt><trkpt lat="45.38193" lon="7.5659833"><ele>1219.0</ele><time>2026-04-25T10:33:17.743Z</time></trkpt><trkpt lat="45.381875" lon="7.5659383"><ele>1218.0</ele><time>2026-04-25T10:33:18.744Z</time></trkpt><trkpt lat="45.38177" lon="7.5658467"><ele>1217.0</ele><time>2026-04-25T10:33:20.74Z</time></trkpt><trkpt lat="45.3817133" lon="7.565805"><ele>1216.0</ele><time>2026-04-25T10:33:21.742Z</time></trkpt><trkpt lat="45.3816083" lon="7.5657467"><ele>1215.0</ele><time>2026-04-25T10:33:23.739Z</time></trkpt><trkpt lat="45.3815117" lon="7.5657033"><ele>1214.0</ele><time>2026-04-25T10:33:25.743Z</time></trkpt><trkpt lat="45.3814083" lon="7.5656583"><ele>1211.6000000000001</ele><time>2026-04-25T10:33:27.737Z</time></trkpt><trkpt lat="45.3813133" lon="7.565605"><ele>1209.2</ele><time>2026-04-25T10:33:29.746Z</time></trkpt><trkpt lat="45.3812083" lon="7.56554"><ele>1206.8000000000002</ele><time>2026-04-25T10:33:31.743Z</time></trkpt><trkpt lat="45.3811083" lon="7.5655"><ele>1204.4</ele><time>2026-04-25T10:33:33.742Z</time></trkpt><trkpt lat="45.3810233" lon="7.5654917"><ele>1202.0</ele><time>2026-04-25T10:33:35.743Z</time></trkpt><trkpt lat="45.3809567" lon="7.5655183"><ele>1202.0</ele><time>2026-04-25T10:33:37.742Z</time></trkpt><trkpt lat="45.3808983" lon="7.5656067"><ele>1202.0</ele><time>2026-04-25T10:33:39.742Z</time></trkpt><trkpt lat="45.3808567" lon="7.56572"><ele>1202.0</ele><time>2026-04-25T10:33:41.738Z</time></trkpt><trkpt lat="45.38084" lon="7.565835"><ele>1202.0</ele><time>2026-04-25T10:33:43.746Z</time></trkpt><trkpt lat="45.3808367" lon="7.565955"><ele>1202.0</ele><time>2026-04-25T10:33:45.742Z</time></trkpt><trkpt lat="45.3808317" lon="7.5660867"><ele>1202.0</ele><time>2026-04-25T10:33:47.741Z</time></trkpt><trkpt lat="45.38084" lon="7.5662233"><ele>1200.3333333333335</ele><time>2026-04-25T10:33:49.737Z</time></trkpt><trkpt lat="45.3808567" lon="7.5663467"><ele>1198.6666666666667</ele><time>2026-04-25T10:33:51.741Z</time></trkpt><trkpt lat="45.380855" lon="7.5664517"><ele>1197.0</ele><time>2026-04-25T10:33:53.741Z</time></trkpt><trkpt lat="45.380835" lon="7.5665383"><ele>1195.3333333333333</ele><time>2026-04-25T10:33:55.752Z</time></trkpt><trkpt lat="45.3808283" lon="7.5666567"><ele>1193.6666666666665</ele><time>2026-04-25T10:33:58.743Z</time></trkpt><trkpt lat="45.3809083" lon="7.5666433"><ele>1192.0</ele><time>2026-04-25T10:34:02.741Z</time></trkpt><trkpt lat="45.38095" lon="7.5665683"><ele>1192.0</ele><time>2026-04-25T10:34:04.743Z</time></trkpt><trkpt lat="45.3810067" lon="7.5664667"><ele>1192.0</ele><time>2026-04-25T10:34:06.743Z</time></trkpt><trkpt lat="45.3810733" lon="7.5663567"><ele>1192.0</ele><time>2026-04-25T10:34:08.744Z</time></trkpt><trkpt lat="45.38114" lon="7.56627"><ele>1192.0</ele><time>2026-04-25T10:34:10.735Z</time></trkpt><trkpt lat="45.3812033" lon="7.5661883"><ele>1192.0</ele><time>2026-04-25T10:34:12.742Z</time></trkpt><trkpt lat="45.3812617" lon="7.566145"><ele>1192.0</ele><time>2026-04-25T10:34:14.741Z</time></trkpt><trkpt lat="45.3813283" lon="7.5662233"><ele>1192.0</ele><time>2026-04-25T10:34:17.738Z</time></trkpt><trkpt lat="45.3813117" lon="7.5663517"><ele>1192.0</ele><time>2026-04-25T10:34:19.746Z</time></trkpt><trkpt lat="45.38126" lon="7.5665133"><ele>1192.0</ele><time>2026-04-25T10:34:21.737Z</time></trkpt><trkpt lat="45.3812333" lon="7.5666133"><ele>1192.0</ele><time>2026-04-25T10:34:22.74Z</time></trkpt><trkpt lat="45.3812083" lon="7.5667217"><ele>1192.0</ele><time>2026-04-25T10:34:23.738Z</time></trkpt><trkpt lat="45.3811817" lon="7.5668317"><ele>1192.0</ele><time>2026-04-25T10:34:24.742Z</time></trkpt><trkpt lat="45.3811567" lon="7.5669417"><ele>1192.0</ele><time>2026-04-25T10:34:25.742Z</time></trkpt><trkpt lat="45.3811317" lon="7.5670583"><ele>1192.0</ele><time>2026-04-25T10:34:26.739Z</time></trkpt><trkpt lat="45.3811133" lon="7.5671767"><ele>1192.0</ele><time>2026-04-25T10:34:27.737Z</time></trkpt><trkpt lat="45.3810933" lon="7.567305"><ele>1192.0</ele><time>2026-04-25T10:34:28.741Z</time></trkpt><trkpt lat="45.381075" lon="7.5674233"><ele>1192.0</ele><time>2026-04-25T10:34:29.738Z</time></trkpt><trkpt lat="45.3810567" lon="7.5675483"><ele>1190.6666666666665</ele><time>2026-04-25T10:34:30.742Z</time></trkpt><trkpt lat="45.3810433" lon="7.567665"><ele>1189.3333333333333</ele><time>2026-04-25T10:34:31.748Z</time></trkpt><trkpt lat="45.381025" lon="7.5677817"><ele>1188.0</ele><time>2026-04-25T10:34:32.738Z</time></trkpt><trkpt lat="45.38101" lon="7.5678783"><ele>1186.6666666666667</ele><time>2026-04-25T10:34:33.742Z</time></trkpt><trkpt lat="45.3809883" lon="7.5679683"><ele>1185.3333333333335</ele><time>2026-04-25T10:34:34.743Z</time></trkpt><trkpt lat="45.3809333" lon="7.568115"><ele>1184.0</ele><time>2026-04-25T10:34:36.745Z</time></trkpt><trkpt lat="45.380875" lon="7.5682067"><ele>1181.5714285714287</ele><time>2026-04-25T10:34:38.742Z</time></trkpt><trkpt lat="45.3808217" lon="7.568275"><ele>1179.142857142857</ele><time>2026-04-25T10:34:40.744Z</time></trkpt><trkpt lat="45.38077" lon="7.5683467"><ele>1176.7142857142858</ele><time>2026-04-25T10:34:42.742Z</time></trkpt><trkpt lat="45.380715" lon="7.5684133"><ele>1174.2857142857142</ele><time>2026-04-25T10:34:44.741Z</time></trkpt><trkpt lat="45.3806733" lon="7.5684867"><ele>1171.857142857143</ele><time>2026-04-25T10:34:46.743Z</time></trkpt><trkpt lat="45.38062" lon="7.568535"><ele>1169.4285714285716</ele><time>2026-04-25T10:34:48.741Z</time></trkpt><trkpt lat="45.3805517" lon="7.5685867"><ele>1167.0</ele><time>2026-04-25T10:34:50.743Z</time></trkpt><trkpt lat="45.38048" lon="7.5686267"><ele>1165.8</ele><time>2026-04-25T10:34:52.745Z</time></trkpt><trkpt lat="45.380405" lon="7.5686417"><ele>1164.6</ele><time>2026-04-25T10:34:54.737Z</time></trkpt><trkpt lat="45.3803117" lon="7.5686367"><ele>1163.3999999999999</ele><time>2026-04-25T10:34:56.735Z</time></trkpt><trkpt lat="45.380215" lon="7.5686017"><ele>1162.2</ele><time>2026-04-25T10:34:58.738Z</time></trkpt><trkpt lat="45.380125" lon="7.5685233"><ele>1161.0</ele><time>2026-04-25T10:35:00.737Z</time></trkpt><trkpt lat="45.3800267" lon="7.5684417"><ele>1161.0</ele><time>2026-04-25T10:35:02.751Z</time></trkpt><trkpt lat="45.37994" lon="7.5683833"><ele>1161.0</ele><time>2026-04-25T10:35:04.743Z</time></trkpt><trkpt lat="45.3798617" lon="7.5683433"><ele>1161.0</ele><time>2026-04-25T10:35:06.737Z</time></trkpt><trkpt lat="45.3797833" lon="7.5683"><ele>1161.0</ele><time>2026-04-25T10:35:08.739Z</time></trkpt><trkpt lat="45.3797017" lon="7.5682383"><ele>1161.0</ele><time>2026-04-25T10:35:10.74Z</time></trkpt><trkpt lat="45.3796133" lon="7.5681733"><ele>1155.3999999999999</ele><time>2026-04-25T10:35:12.744Z</time></trkpt><trkpt lat="45.3795267" lon="7.5681067"><ele>1149.8</ele><time>2026-04-25T10:35:14.741Z</time></trkpt><trkpt lat="45.3794433" lon="7.56803"><ele>1144.1999999999998</ele><time>2026-04-25T10:35:16.741Z</time></trkpt><trkpt lat="45.3793517" lon="7.56796"><ele>1138.6</ele><time>2026-04-25T10:35:18.743Z</time></trkpt><trkpt lat="45.3792617" lon="7.5679033"><ele>1133.0</ele><time>2026-04-25T10:35:20.74Z</time></trkpt><trkpt lat="45.3791917" lon="7.5678717"><ele>1133.0</ele><time>2026-04-25T10:35:22.739Z</time></trkpt><trkpt lat="45.3791267" lon="7.5678683"><ele>1133.0</ele><time>2026-04-25T10:35:24.739Z</time></trkpt><trkpt lat="45.379055" lon="7.567885"><ele>1133.0</ele><time>2026-04-25T10:35:26.742Z</time></trkpt><trkpt lat="45.3789817" lon="7.5678883"><ele>1133.0</ele><time>2026-04-25T10:35:28.74Z</time></trkpt><trkpt lat="45.378905" lon="7.5678883"><ele>1133.0</ele><time>2026-04-25T10:35:30.737Z</time></trkpt><trkpt lat="45.3788283" lon="7.5678733"><ele>1133.0</ele><time>2026-04-25T10:35:32.742Z</time></trkpt><trkpt lat="45.3787483" lon="7.56787"><ele>1133.0</ele><time>2026-04-25T10:35:34.737Z</time></trkpt><trkpt lat="45.3786817" lon="7.56785"><ele>1129.4285714285713</ele><time>2026-04-25T10:35:36.742Z</time></trkpt><trkpt lat="45.378635" lon="7.5677883"><ele>1125.857142857143</ele><time>2026-04-25T10:35:38.744Z</time></trkpt><trkpt lat="45.378625" lon="7.5676667"><ele>1122.2857142857142</ele><time>2026-04-25T10:35:41.744Z</time></trkpt><trkpt lat="45.3786333" lon="7.5675633"><ele>1118.7142857142858</ele><time>2026-04-25T10:35:43.744Z</time></trkpt><trkpt lat="45.378655" lon="7.5674533"><ele>1115.142857142857</ele><time>2026-04-25T10:35:45.744Z</time></trkpt><trkpt lat="45.3786917" lon="7.5673667"><ele>1111.5714285714284</ele><time>2026-04-25T10:35:47.747Z</time></trkpt><trkpt lat="45.3786817" lon="7.5672683"><ele>1108.0</ele><time>2026-04-25T10:35:50.745Z</time></trkpt><trkpt lat="45.378625" lon="7.5673267"><ele>1108.0</ele><time>2026-04-25T10:35:53.737Z</time></trkpt><trkpt lat="45.3785783" lon="7.5674383"><ele>1108.0</ele><time>2026-04-25T10:35:56.739Z</time></trkpt><trkpt lat="45.378525" lon="7.5675417"><ele>1108.0</ele><time>2026-04-25T10:35:59.741Z</time></trkpt><trkpt lat="45.3784967" lon="7.567635"><ele>1108.0</ele><time>2026-04-25T10:36:01.744Z</time></trkpt><trkpt lat="45.37846" lon="7.5677717"><ele>1108.0</ele><time>2026-04-25T10:36:03.745Z</time></trkpt><trkpt lat="45.3783933" lon="7.56795"><ele>1108.7142857142858</ele><time>2026-04-25T10:36:05.746Z</time></trkpt><trkpt lat="45.3783567" lon="7.5680517"><ele>1109.4285714285713</ele><time>2026-04-25T10:36:06.743Z</time></trkpt><trkpt lat="45.3783317" lon="7.5681433"><ele>1110.142857142857</ele><time>2026-04-25T10:36:07.745Z</time></trkpt><trkpt lat="45.3783033" lon="7.56823"><ele>1110.857142857143</ele><time>2026-04-25T10:36:08.74Z</time></trkpt><trkpt lat="45.37828" lon="7.5683417"><ele>1111.5714285714284</ele><time>2026-04-25T10:36:10.739Z</time></trkpt><trkpt lat="45.3782867" lon="7.5684333"><ele>1112.2857142857142</ele><time>2026-04-25T10:36:12.74Z</time></trkpt><trkpt lat="45.3783433" lon="7.5684967"><ele>1113.0</ele><time>2026-04-25T10:36:14.743Z</time></trkpt><trkpt lat="45.3784267" lon="7.56852"><ele>1113.0</ele><time>2026-04-25T10:36:16.742Z</time></trkpt><trkpt lat="45.3785317" lon="7.5685783"><ele>1113.0</ele><time>2026-04-25T10:36:18.737Z</time></trkpt><trkpt lat="45.378635" lon="7.56867"><ele>1113.0</ele><time>2026-04-25T10:36:20.74Z</time></trkpt><trkpt lat="45.3787167" lon="7.56878"><ele>1113.0</ele><time>2026-04-25T10:36:22.743Z</time></trkpt><trkpt lat="45.378765" lon="7.5688917"><ele>1113.0</ele><time>2026-04-25T10:36:24.737Z</time></trkpt><trkpt lat="45.3787767" lon="7.5690083"><ele>1112.5</ele><time>2026-04-25T10:36:26.736Z</time></trkpt><trkpt lat="45.37877" lon="7.5691167"><ele>1112.0</ele><time>2026-04-25T10:36:28.738Z</time></trkpt><trkpt lat="45.3787583" lon="7.569235"><ele>1111.5</ele><time>2026-04-25T10:36:31.738Z</time></trkpt><trkpt lat="45.3787433" lon="7.569345"><ele>1111.0</ele><time>2026-04-25T10:36:34.745Z</time></trkpt><trkpt lat="45.3787633" lon="7.5694433"><ele>1110.5</ele><time>2026-04-25T10:36:37.745Z</time></trkpt><trkpt lat="45.378815" lon="7.5695433"><ele>1110.0</ele><time>2026-04-25T10:36:39.74Z</time></trkpt><trkpt lat="45.3788717" lon="7.569655"><ele>1110.0</ele><time>2026-04-25T10:36:41.739Z</time></trkpt><trkpt lat="45.3789367" lon="7.5697733"><ele>1110.0</ele><time>2026-04-25T10:36:43.746Z</time></trkpt><trkpt lat="45.378995" lon="7.5699083"><ele>1110.0</ele><time>2026-04-25T10:36:45.74Z</time></trkpt><trkpt lat="45.3790767" lon="7.5700317"><ele>1110.0</ele><time>2026-04-25T10:36:47.739Z</time></trkpt><trkpt lat="45.37916" lon="7.5701683"><ele>1110.0</ele><time>2026-04-25T10:36:49.741Z</time></trkpt><trkpt lat="45.3792083" lon="7.5702283"><ele>1110.0</ele><time>2026-04-25T10:36:50.744Z</time></trkpt><trkpt lat="45.3792883" lon="7.5703233"><ele>1110.0</ele><time>2026-04-25T10:36:52.74Z</time></trkpt><trkpt lat="45.37934" lon="7.5704167"><ele>1110.0</ele><time>2026-04-25T10:36:54.741Z</time></trkpt><trkpt lat="45.3793683" lon="7.570545"><ele>1110.0</ele><time>2026-04-25T10:36:56.745Z</time></trkpt><trkpt lat="45.379365" lon="7.57069"><ele>1110.0</ele><time>2026-04-25T10:36:58.743Z</time></trkpt><trkpt lat="45.3793767" lon="7.5708233"><ele>1107.2</ele><time>2026-04-25T10:37:00.738Z</time></trkpt><trkpt lat="45.3793717" lon="7.5709783"><ele>1104.4</ele><time>2026-04-25T10:37:02.742Z</time></trkpt><trkpt lat="45.37936" lon="7.5710683"><ele>1101.6</ele><time>2026-04-25T10:37:03.741Z</time></trkpt><trkpt lat="45.3793367" lon="7.5712283"><ele>1098.8</ele><time>2026-04-25T10:37:05.741Z</time></trkpt><trkpt lat="45.3793233" lon="7.5713583"><ele>1096.0</ele><time>2026-04-25T10:37:07.737Z</time></trkpt><trkpt lat="45.3793467" lon="7.5714733"><ele>1095.1666666666665</ele><time>2026-04-25T10:37:09.744Z</time></trkpt><trkpt lat="45.379405" lon="7.571575"><ele>1094.3333333333333</ele><time>2026-04-25T10:37:11.745Z</time></trkpt><trkpt lat="45.3794933" lon="7.571655"><ele>1093.5</ele><time>2026-04-25T10:37:13.743Z</time></trkpt><trkpt lat="45.3795783" lon="7.5717167"><ele>1092.6666666666667</ele><time>2026-04-25T10:37:15.741Z</time></trkpt><trkpt lat="45.3796533" lon="7.5717667"><ele>1091.8333333333335</ele><time>2026-04-25T10:37:17.746Z</time></trkpt><trkpt lat="45.3797067" lon="7.571835"><ele>1091.0</ele><time>2026-04-25T10:37:19.74Z</time></trkpt><trkpt lat="45.3797617" lon="7.571925"><ele>1090.3333333333335</ele><time>2026-04-25T10:37:22.745Z</time></trkpt><trkpt lat="45.379825" lon="7.5718967"><ele>1089.6666666666667</ele><time>2026-04-25T10:37:24.742Z</time></trkpt><trkpt lat="45.3798817" lon="7.571825"><ele>1089.0</ele><time>2026-04-25T10:37:26.741Z</time></trkpt><trkpt lat="45.37992" lon="7.57173"><ele>1088.3333333333333</ele><time>2026-04-25T10:37:28.742Z</time></trkpt><trkpt lat="45.379985" lon="7.5716167"><ele>1087.6666666666665</ele><time>2026-04-25T10:37:30.74Z</time></trkpt><trkpt lat="45.38005" lon="7.571505"><ele>1087.0</ele><time>2026-04-25T10:37:32.74Z</time></trkpt><trkpt lat="45.3801017" lon="7.5713867"><ele>1087.0</ele><time>2026-04-25T10:37:34.744Z</time></trkpt><trkpt lat="45.380145" lon="7.571315"><ele>1087.0</ele><time>2026-04-25T10:37:36.746Z</time></trkpt><trkpt lat="45.3802267" lon="7.5713633"><ele>1087.0</ele><time>2026-04-25T10:37:39.737Z</time></trkpt><trkpt lat="45.3802467" lon="7.571455"><ele>1087.0</ele><time>2026-04-25T10:37:41.738Z</time></trkpt><trkpt lat="45.380255" lon="7.5715867"><ele>1087.0</ele><time>2026-04-25T10:37:43.744Z</time></trkpt><trkpt lat="45.3802567" lon="7.57168"><ele>1087.0</ele><time>2026-04-25T10:37:44.744Z</time></trkpt><trkpt lat="45.380255" lon="7.5717817"><ele>1087.0</ele><time>2026-04-25T10:37:45.739Z</time></trkpt><trkpt lat="45.3802533" lon="7.571885"><ele>1087.0</ele><time>2026-04-25T10:37:46.742Z</time></trkpt><trkpt lat="45.380255" lon="7.5719817"><ele>1087.0</ele><time>2026-04-25T10:37:47.751Z</time></trkpt><trkpt lat="45.3802517" lon="7.5720733"><ele>1087.0</ele><time>2026-04-25T10:37:48.74Z</time></trkpt><trkpt lat="45.3802233" lon="7.5722233"><ele>1087.0</ele><time>2026-04-25T10:37:50.738Z</time></trkpt><trkpt lat="45.380185" lon="7.5723583"><ele>1087.0</ele><time>2026-04-25T10:37:52.74Z</time></trkpt><trkpt lat="45.380135" lon="7.572485"><ele>1084.2</ele><time>2026-04-25T10:37:54.741Z</time></trkpt><trkpt lat="45.3800633" lon="7.5725883"><ele>1081.4</ele><time>2026-04-25T10:37:56.743Z</time></trkpt><trkpt lat="45.3799883" lon="7.5726733"><ele>1078.6</ele><time>2026-04-25T10:37:58.739Z</time></trkpt><trkpt lat="45.3799217" lon="7.5727667"><ele>1075.8</ele><time>2026-04-25T10:38:00.741Z</time></trkpt><trkpt lat="45.3798633" lon="7.572885"><ele>1073.0</ele><time>2026-04-25T10:38:02.74Z</time></trkpt><trkpt lat="45.3798183" lon="7.5729917"><ele>1069.6666666666667</ele><time>2026-04-25T10:38:04.741Z</time></trkpt><trkpt lat="45.3797833" lon="7.5730883"><ele>1066.3333333333335</ele><time>2026-04-25T10:38:06.741Z</time></trkpt><trkpt lat="45.37974" lon="7.57319"><ele>1063.0</ele><time>2026-04-25T10:38:08.739Z</time></trkpt><trkpt lat="45.3796917" lon="7.5733"><ele>1059.6666666666667</ele><time>2026-04-25T10:38:10.737Z</time></trkpt><trkpt lat="45.3796567" lon="7.5734017"><ele>1056.3333333333333</ele><time>2026-04-25T10:38:12.74Z</time></trkpt><trkpt lat="45.379675" lon="7.5734917"><ele>1053.0</ele><time>2026-04-25T10:38:14.74Z</time></trkpt><trkpt lat="45.3797433" lon="7.5734717"><ele>1053.0</ele><time>2026-04-25T10:38:17.744Z</time></trkpt><trkpt lat="45.3798033" lon="7.5734167"><ele>1053.0</ele><time>2026-04-25T10:38:19.746Z</time></trkpt><trkpt lat="45.3798683" lon="7.5733467"><ele>1053.0</ele><time>2026-04-25T10:38:21.742Z</time></trkpt><trkpt lat="45.379955" lon="7.57328"><ele>1053.0</ele><time>2026-04-25T10:38:23.741Z</time></trkpt><trkpt lat="45.3800517" lon="7.5731817"><ele>1053.0</ele><time>2026-04-25T10:38:25.739Z</time></trkpt><trkpt lat="45.3801067" lon="7.5731267"><ele>1053.0</ele><time>2026-04-25T10:38:26.74Z</time></trkpt><trkpt lat="45.3801733" lon="7.573075"><ele>1053.0</ele><time>2026-04-25T10:38:27.739Z</time></trkpt><trkpt lat="45.3802333" lon="7.573035"><ele>1053.0</ele><time>2026-04-25T10:38:28.746Z</time></trkpt><trkpt lat="45.3802967" lon="7.57301"><ele>1053.0</ele><time>2026-04-25T10:38:29.741Z</time></trkpt><trkpt lat="45.3803867" lon="7.57299"><ele>1053.0</ele><time>2026-04-25T10:38:31.745Z</time></trkpt><trkpt lat="45.3804917" lon="7.5729483"><ele>1053.0</ele><time>2026-04-25T10:38:33.74Z</time></trkpt><trkpt lat="45.3805783" lon="7.5728683"><ele>1053.0</ele><time>2026-04-25T10:38:35.741Z</time></trkpt><trkpt lat="45.3806633" lon="7.5727533"><ele>1052.4</ele><time>2026-04-25T10:38:37.741Z</time></trkpt><trkpt lat="45.38074" lon="7.572625"><ele>1051.8</ele><time>2026-04-25T10:38:39.74Z</time></trkpt><trkpt lat="45.3808067" lon="7.5724933"><ele>1051.2</ele><time>2026-04-25T10:38:41.742Z</time></trkpt><trkpt lat="45.380885" lon="7.5723717"><ele>1050.6</ele><time>2026-04-25T10:38:43.74Z</time></trkpt><trkpt lat="45.380955" lon="7.5722933"><ele>1050.0</ele><time>2026-04-25T10:38:45.749Z</time></trkpt><trkpt lat="45.3810317" lon="7.5722383"><ele>1050.0</ele><time>2026-04-25T10:38:47.742Z</time></trkpt><trkpt lat="45.3811117" lon="7.57223"><ele>1050.0</ele><time>2026-04-25T10:38:49.747Z</time></trkpt><trkpt lat="45.3811867" lon="7.5722267"><ele>1050.0</ele><time>2026-04-25T10:38:51.742Z</time></trkpt><trkpt lat="45.3812617" lon="7.572225"><ele>1050.0</ele><time>2026-04-25T10:38:53.742Z</time></trkpt><trkpt lat="45.3813317" lon="7.5722233"><ele>1050.0</ele><time>2026-04-25T10:38:55.742Z</time></trkpt><trkpt lat="45.381395" lon="7.5721833"><ele>1050.0</ele><time>2026-04-25T10:38:57.738Z</time></trkpt><trkpt lat="45.3814733" lon="7.5721117"><ele>1049.6</ele><time>2026-04-25T10:38:59.741Z</time></trkpt><trkpt lat="45.3815767" lon="7.5720217"><ele>1049.2</ele><time>2026-04-25T10:39:01.744Z</time></trkpt><trkpt lat="45.3816417" lon="7.57197"><ele>1048.8</ele><time>2026-04-25T10:39:02.741Z</time></trkpt><trkpt lat="45.3817283" lon="7.5718767"><ele>1048.4</ele><time>2026-04-25T10:39:04.741Z</time></trkpt><trkpt lat="45.381795" lon="7.57179"><ele>1048.0</ele><time>2026-04-25T10:39:06.742Z</time></trkpt><trkpt lat="45.3818567" lon="7.5716883"><ele>1048.0</ele><time>2026-04-25T10:39:08.741Z</time></trkpt><trkpt lat="45.3819017" lon="7.5716117"><ele>1048.0</ele><time>2026-04-25T10:39:09.742Z</time></trkpt><trkpt lat="45.3819483" lon="7.5715383"><ele>1048.0</ele><time>2026-04-25T10:39:10.741Z</time></trkpt><trkpt lat="45.381995" lon="7.571475"><ele>1048.0</ele><time>2026-04-25T10:39:11.743Z</time></trkpt><trkpt lat="45.38206" lon="7.5713867"><ele>1048.0</ele><time>2026-04-25T10:39:13.744Z</time></trkpt><trkpt lat="45.3821333" lon="7.5713383"><ele>1048.0</ele><time>2026-04-25T10:39:15.739Z</time></trkpt><trkpt lat="45.38219" lon="7.5713883"><ele>1048.0</ele><time>2026-04-25T10:39:18.742Z</time></trkpt><trkpt lat="45.382175" lon="7.5714767"><ele>1048.0</ele><time>2026-04-25T10:39:21.742Z</time></trkpt><trkpt lat="45.3821583" lon="7.5715917"><ele>1048.0</ele><time>2026-04-25T10:39:25.741Z</time></trkpt><trkpt lat="45.38216" lon="7.5717217"><ele>1048.0</ele><time>2026-04-25T10:39:28.747Z</time></trkpt><trkpt lat="45.3821667" lon="7.5718367"><ele>1048.0</ele><time>2026-04-25T10:39:30.739Z</time></trkpt><trkpt lat="45.3821717" lon="7.5719533"><ele>1048.0</ele><time>2026-04-25T10:39:32.742Z</time></trkpt><trkpt lat="45.3821867" lon="7.5720633"><ele>1048.0</ele><time>2026-04-25T10:39:34.738Z</time></trkpt><trkpt lat="45.3821883" lon="7.5721633"><ele>1044.1666666666665</ele><time>2026-04-25T10:39:36.747Z</time></trkpt><trkpt lat="45.3821867" lon="7.5722883"><ele>1040.3333333333333</ele><time>2026-04-25T10:39:38.74Z</time></trkpt><trkpt lat="45.382175" lon="7.5724033"><ele>1036.5</ele><time>2026-04-25T10:39:40.74Z</time></trkpt><trkpt lat="45.3821617" lon="7.572515"><ele>1032.6666666666667</ele><time>2026-04-25T10:39:42.74Z</time></trkpt><trkpt lat="45.3821183" lon="7.5725933"><ele>1028.8333333333335</ele><time>2026-04-25T10:39:44.737Z</time></trkpt><trkpt lat="45.3820483" lon="7.572665"><ele>1025.0</ele><time>2026-04-25T10:39:46.742Z</time></trkpt><trkpt lat="45.3819617" lon="7.572735"><ele>1021.0000000000001</ele><time>2026-04-25T10:39:48.735Z</time></trkpt><trkpt lat="45.38187" lon="7.5728667"><ele>1017.0</ele><time>2026-04-25T10:39:50.74Z</time></trkpt><trkpt lat="45.3818133" lon="7.572945"><ele>1013.0</ele><time>2026-04-25T10:39:51.741Z</time></trkpt><trkpt lat="45.381765" lon="7.57302"><ele>1009.0</ele><time>2026-04-25T10:39:52.742Z</time></trkpt><trkpt lat="45.38172" lon="7.5730917"><ele>1005.0000000000001</ele><time>2026-04-25T10:39:53.739Z</time></trkpt><trkpt lat="45.3816733" lon="7.573155"><ele>1001.0</ele><time>2026-04-25T10:39:54.742Z</time></trkpt><trkpt lat="45.3815867" lon="7.573245"><ele>1001.0</ele><time>2026-04-25T10:39:56.74Z</time></trkpt><trkpt lat="45.38151" lon="7.57332"><ele>1000.9999999999999</ele><time>2026-04-25T10:39:58.742Z</time></trkpt><trkpt lat="45.3814583" lon="7.5734867"><ele>1000.9999999999999</ele><time>2026-04-25T10:40:00.739Z</time></trkpt><trkpt lat="45.3814267" lon="7.573575"><ele>1001.0</ele><time>2026-04-25T10:40:01.737Z</time></trkpt><trkpt lat="45.381395" lon="7.5736733"><ele>1001.0</ele><time>2026-04-25T10:40:02.739Z</time></trkpt><trkpt lat="45.3813533" lon="7.57378"><ele>1001.4285714285714</ele><time>2026-04-25T10:40:03.741Z</time></trkpt><trkpt lat="45.38131" lon="7.5738733"><ele>1001.8571428571429</ele><time>2026-04-25T10:40:04.737Z</time></trkpt><trkpt lat="45.3812633" lon="7.573955"><ele>1002.2857142857142</ele><time>2026-04-25T10:40:05.742Z</time></trkpt><trkpt lat="45.3812167" lon="7.574035"><ele>1002.7142857142857</ele><time>2026-04-25T10:40:06.738Z</time></trkpt><trkpt lat="45.3811767" lon="7.5741217"><ele>1003.1428571428571</ele><time>2026-04-25T10:40:07.741Z</time></trkpt><trkpt lat="45.381145" lon="7.5742083"><ele>1003.5714285714284</ele><time>2026-04-25T10:40:08.737Z</time></trkpt><trkpt lat="45.3811183" lon="7.5743033"><ele>1003.9999999999999</ele><time>2026-04-25T10:40:09.738Z</time></trkpt><trkpt lat="45.38109" lon="7.5743917"><ele>1003.9999999999999</ele><time>2026-04-25T10:40:10.738Z</time></trkpt><trkpt lat="45.3810533" lon="7.5744717"><ele>1004.0</ele><time>2026-04-25T10:40:11.736Z</time></trkpt><trkpt lat="45.38101" lon="7.574545"><ele>1003.9999999999999</ele><time>2026-04-25T10:40:12.74Z</time></trkpt><trkpt lat="45.380965" lon="7.57461"><ele>1003.9999999999999</ele><time>2026-04-25T10:40:13.743Z</time></trkpt><trkpt lat="45.3809283" lon="7.574685"><ele>1004.0</ele><time>2026-04-25T10:40:14.737Z</time></trkpt><trkpt lat="45.3809" lon="7.5747683"><ele>1003.9999999999999</ele><time>2026-04-25T10:40:15.738Z</time></trkpt><trkpt lat="45.38088" lon="7.5749333"><ele>1003.9999999999999</ele><time>2026-04-25T10:40:17.738Z</time></trkpt><trkpt lat="45.3808767" lon="7.5750267"><ele>1000.4000000000001</ele><time>2026-04-25T10:40:18.738Z</time></trkpt><trkpt lat="45.3808733" lon="7.5751917"><ele>996.8000000000001</ele><time>2026-04-25T10:40:20.738Z</time></trkpt><trkpt lat="45.3808533" lon="7.575325"><ele>993.1999999999999</ele><time>2026-04-25T10:40:22.738Z</time></trkpt><trkpt lat="45.380805" lon="7.5754367"><ele>989.5999999999999</ele><time>2026-04-25T10:40:24.739Z</time></trkpt><trkpt lat="45.3807333" lon="7.5755567"><ele>986.0</ele><time>2026-04-25T10:40:26.741Z</time></trkpt><trkpt lat="45.3806467" lon="7.57567"><ele>987.0000000000001</ele><time>2026-04-25T10:40:28.739Z</time></trkpt><trkpt lat="45.3805567" lon="7.5757667"><ele>988.0</ele><time>2026-04-25T10:40:30.741Z</time></trkpt><trkpt lat="45.38048" lon="7.5758217"><ele>989.0</ele><time>2026-04-25T10:40:32.737Z</time></trkpt><trkpt lat="45.380425" lon="7.5758883"><ele>990.0</ele><time>2026-04-25T10:40:34.74Z</time></trkpt><trkpt lat="45.3804283" lon="7.57598"><ele>991.0000000000001</ele><time>2026-04-25T10:40:36.737Z</time></trkpt><trkpt lat="45.380495" lon="7.5759983"><ele>992.0</ele><time>2026-04-25T10:40:39.739Z</time></trkpt><trkpt lat="45.380575" lon="7.575945"><ele>988.8333333333334</ele><time>2026-04-25T10:40:41.74Z</time></trkpt><trkpt lat="45.3806433" lon="7.5759217"><ele>985.6666666666667</ele><time>2026-04-25T10:40:43.743Z</time></trkpt><trkpt lat="45.3807267" lon="7.57589"><ele>982.5</ele><time>2026-04-25T10:40:45.737Z</time></trkpt><trkpt lat="45.3808367" lon="7.5758133"><ele>979.3333333333333</ele><time>2026-04-25T10:40:47.744Z</time></trkpt><trkpt lat="45.3808933" lon="7.5757583"><ele>976.1666666666666</ele><time>2026-04-25T10:40:48.743Z</time></trkpt><trkpt lat="45.3809567" lon="7.5757067"><ele>973.0</ele><time>2026-04-25T10:40:49.744Z</time></trkpt><trkpt lat="45.3810567" lon="7.5756317"><ele>973.0</ele><time>2026-04-25T10:40:51.74Z</time></trkpt><trkpt lat="45.3811433" lon="7.5756133"><ele>973.0</ele><time>2026-04-25T10:40:53.739Z</time></trkpt><trkpt lat="45.38119" lon="7.5757167"><ele>973.0</ele><time>2026-04-25T10:40:55.742Z</time></trkpt><trkpt lat="45.3811717" lon="7.575865"><ele>973.0</ele><time>2026-04-25T10:40:57.739Z</time></trkpt><trkpt lat="45.3811467" lon="7.5760533"><ele>973.0</ele><time>2026-04-25T10:40:59.739Z</time></trkpt><trkpt lat="45.3811283" lon="7.5761667"><ele>968.8</ele><time>2026-04-25T10:41:00.739Z</time></trkpt><trkpt lat="45.38111" lon="7.57629"><ele>964.5999999999999</ele><time>2026-04-25T10:41:01.74Z</time></trkpt><trkpt lat="45.3810917" lon="7.5764167"><ele>960.4000000000001</ele><time>2026-04-25T10:41:02.739Z</time></trkpt><trkpt lat="45.3810633" lon="7.5765533"><ele>956.2</ele><time>2026-04-25T10:41:03.737Z</time></trkpt><trkpt lat="45.38104" lon="7.5766933"><ele>952.0</ele><time>2026-04-25T10:41:04.74Z</time></trkpt><trkpt lat="45.3810067" lon="7.5768267"><ele>951.9999999999999</ele><time>2026-04-25T10:41:05.736Z</time></trkpt><trkpt lat="45.38096" lon="7.57695"><ele>952.0</ele><time>2026-04-25T10:41:06.74Z</time></trkpt><trkpt lat="45.3809117" lon="7.57705"><ele>952.0</ele><time>2026-04-25T10:41:07.742Z</time></trkpt><trkpt lat="45.38085" lon="7.57714"><ele>952.0</ele><time>2026-04-25T10:41:08.741Z</time></trkpt><trkpt lat="45.3807867" lon="7.5772183"><ele>951.9999999999999</ele><time>2026-04-25T10:41:09.742Z</time></trkpt><trkpt lat="45.380715" lon="7.57727"><ele>952.0</ele><time>2026-04-25T10:41:10.74Z</time></trkpt><trkpt lat="45.3806533" lon="7.5773067"><ele>947.6</ele><time>2026-04-25T10:41:11.74Z</time></trkpt><trkpt lat="45.38055" lon="7.5773367"><ele>943.2</ele><time>2026-04-25T10:41:13.741Z</time></trkpt><trkpt lat="45.380495" lon="7.57741"><ele>938.8</ele><time>2026-04-25T10:41:15.738Z</time></trkpt><trkpt lat="45.3805417" lon="7.5774933"><ele>934.4</ele><time>2026-04-25T10:41:17.737Z</time></trkpt><trkpt lat="45.3806517" lon="7.5775483"><ele>930.0</ele><time>2026-04-25T10:41:19.741Z</time></trkpt><trkpt lat="45.38071" lon="7.577625"><ele>930.0</ele><time>2026-04-25T10:41:21.737Z</time></trkpt><trkpt lat="45.3806483" lon="7.5777083"><ele>930.0</ele><time>2026-04-25T10:41:24.739Z</time></trkpt><trkpt lat="45.3805433" lon="7.57771"><ele>930.0</ele><time>2026-04-25T10:41:26.738Z</time></trkpt><trkpt lat="45.3804667" lon="7.5777033"><ele>930.0</ele><time>2026-04-25T10:41:27.741Z</time></trkpt><trkpt lat="45.3803817" lon="7.5776833"><ele>930.0</ele><time>2026-04-25T10:41:28.737Z</time></trkpt><trkpt lat="45.3802767" lon="7.5776933"><ele>930.0</ele><time>2026-04-25T10:41:29.74Z</time></trkpt><trkpt lat="45.3801717" lon="7.5777117"><ele>930.0</ele><time>2026-04-25T10:41:30.746Z</time></trkpt><trkpt lat="45.38007" lon="7.57774"><ele>930.0</ele><time>2026-04-25T10:41:31.737Z</time></trkpt><trkpt lat="45.3799783" lon="7.5777733"><ele>930.0</ele><time>2026-04-25T10:41:32.74Z</time></trkpt><trkpt lat="45.3798967" lon="7.5778083"><ele>930.0</ele><time>2026-04-25T10:41:33.739Z</time></trkpt><trkpt lat="45.37982" lon="7.5778517"><ele>925.3333333333334</ele><time>2026-04-25T10:41:34.738Z</time></trkpt><trkpt lat="45.37975" lon="7.5778983"><ele>920.6666666666667</ele><time>2026-04-25T10:41:35.743Z</time></trkpt><trkpt lat="45.37968" lon="7.57795"><ele>916.0</ele><time>2026-04-25T10:41:36.74Z</time></trkpt><trkpt lat="45.3796117" lon="7.5779883"><ele>911.3333333333334</ele><time>2026-04-25T10:41:37.74Z</time></trkpt><trkpt lat="45.3795433" lon="7.57802"><ele>906.6666666666667</ele><time>2026-04-25T10:41:38.738Z</time></trkpt><trkpt lat="45.3794633" lon="7.57805"><ele>902.0</ele><time>2026-04-25T10:41:39.742Z</time></trkpt><trkpt lat="45.3793767" lon="7.57806"><ele>900.0</ele><time>2026-04-25T10:41:40.742Z</time></trkpt><trkpt lat="45.3792833" lon="7.5780583"><ele>898.0</ele><time>2026-04-25T10:41:41.738Z</time></trkpt><trkpt lat="45.3791833" lon="7.5780417"><ele>896.0</ele><time>2026-04-25T10:41:42.741Z</time></trkpt><trkpt lat="45.37908" lon="7.5780283"><ele>894.0</ele><time>2026-04-25T10:41:43.741Z</time></trkpt><trkpt lat="45.3789883" lon="7.5780267"><ele>892.0</ele><time>2026-04-25T10:41:44.744Z</time></trkpt><trkpt lat="45.378895" lon="7.5780717"><ele>891.6666666666666</ele><time>2026-04-25T10:41:45.738Z</time></trkpt><trkpt lat="45.3788017" lon="7.57813"><ele>891.3333333333333</ele><time>2026-04-25T10:41:46.737Z</time></trkpt><trkpt lat="45.3787217" lon="7.5781733"><ele>891.0</ele><time>2026-04-25T10:41:47.741Z</time></trkpt><trkpt lat="45.3786433" lon="7.5782083"><ele>890.6666666666667</ele><time>2026-04-25T10:41:48.751Z</time></trkpt><trkpt lat="45.3785717" lon="7.5782383"><ele>890.3333333333334</ele><time>2026-04-25T10:41:49.743Z</time></trkpt><trkpt lat="45.3785033" lon="7.578255"><ele>890.0</ele><time>2026-04-25T10:41:50.742Z</time></trkpt><trkpt lat="45.3783933" lon="7.57826"><ele>890.0</ele><time>2026-04-25T10:41:52.743Z</time></trkpt><trkpt lat="45.378295" lon="7.5783017"><ele>890.0</ele><time>2026-04-25T10:41:54.741Z</time></trkpt><trkpt lat="45.37822" lon="7.578405"><ele>890.0</ele><time>2026-04-25T10:41:56.738Z</time></trkpt><trkpt lat="45.3781617" lon="7.5784917"><ele>890.0</ele><time>2026-04-25T10:41:58.737Z</time></trkpt><trkpt lat="45.3780783" lon="7.578505"><ele>890.0</ele><time>2026-04-25T10:42:00.736Z</time></trkpt><trkpt lat="45.37796" lon="7.5784683"><ele>890.1666666666667</ele><time>2026-04-25T10:42:02.741Z</time></trkpt><trkpt lat="45.3778867" lon="7.578465"><ele>890.3333333333334</ele><time>2026-04-25T10:42:03.741Z</time></trkpt><trkpt lat="45.37781" lon="7.5784817"><ele>890.5</ele><time>2026-04-25T10:42:04.737Z</time></trkpt><trkpt lat="45.3777283" lon="7.57851"><ele>890.6666666666667</ele><time>2026-04-25T10:42:05.741Z</time></trkpt><trkpt lat="45.3776433" lon="7.5785367"><ele>890.8333333333334</ele><time>2026-04-25T10:42:06.74Z</time></trkpt><trkpt lat="45.3775567" lon="7.578565"><ele>891.0</ele><time>2026-04-25T10:42:07.736Z</time></trkpt><trkpt lat="45.37747" lon="7.5786117"><ele>891.0</ele><time>2026-04-25T10:42:08.738Z</time></trkpt><trkpt lat="45.3773817" lon="7.578675"><ele>891.0</ele><time>2026-04-25T10:42:09.736Z</time></trkpt><trkpt lat="45.3772983" lon="7.5787417"><ele>891.0</ele><time>2026-04-25T10:42:10.736Z</time></trkpt><trkpt lat="45.3772233" lon="7.578785"><ele>891.0</ele><time>2026-04-25T10:42:11.742Z</time></trkpt><trkpt lat="45.3771533" lon="7.5788467"><ele>891.0</ele><time>2026-04-25T10:42:12.737Z</time></trkpt><trkpt lat="45.3770917" lon="7.5789183"><ele>891.0</ele><time>2026-04-25T10:42:13.743Z</time></trkpt><trkpt lat="45.3770283" lon="7.57896"><ele>886.1999999999999</ele><time>2026-04-25T10:42:14.742Z</time></trkpt><trkpt lat="45.3769517" lon="7.579005"><ele>881.3999999999999</ele><time>2026-04-25T10:42:15.738Z</time></trkpt><trkpt lat="45.3768617" lon="7.5790283"><ele>876.6</ele><time>2026-04-25T10:42:16.735Z</time></trkpt><trkpt lat="45.376765" lon="7.5790567"><ele>871.8</ele><time>2026-04-25T10:42:17.74Z</time></trkpt><trkpt lat="45.3766617" lon="7.5791017"><ele>867.0</ele><time>2026-04-25T10:42:18.743Z</time></trkpt><trkpt lat="45.3765617" lon="7.5791683"><ele>867.0</ele><time>2026-04-25T10:42:19.742Z</time></trkpt><trkpt lat="45.376465" lon="7.5792267"><ele>867.0</ele><time>2026-04-25T10:42:20.735Z</time></trkpt><trkpt lat="45.3763733" lon="7.5792717"><ele>867.0</ele><time>2026-04-25T10:42:21.74Z</time></trkpt><trkpt lat="45.3762867" lon="7.57933"><ele>867.0</ele><time>2026-04-25T10:42:22.737Z</time></trkpt><trkpt lat="45.3762017" lon="7.5793733"><ele>867.0</ele><time>2026-04-25T10:42:23.739Z</time></trkpt><trkpt lat="45.376115" lon="7.5794117"><ele>866.1666666666666</ele><time>2026-04-25T10:42:24.737Z</time></trkpt><trkpt lat="45.3760317" lon="7.5794517"><ele>865.3333333333333</ele><time>2026-04-25T10:42:25.743Z</time></trkpt><trkpt lat="45.375945" lon="7.579485"><ele>864.5</ele><time>2026-04-25T10:42:26.744Z</time></trkpt><trkpt lat="45.3758633" lon="7.5795083"><ele>863.6666666666666</ele><time>2026-04-25T10:42:27.736Z</time></trkpt><trkpt lat="45.3757833" lon="7.5795267"><ele>862.8333333333333</ele><time>2026-04-25T10:42:28.737Z</time></trkpt><trkpt lat="45.3757117" lon="7.57956"><ele>862.0</ele><time>2026-04-25T10:42:29.741Z</time></trkpt><trkpt lat="45.37565" lon="7.5796083"><ele>859.4285714285714</ele><time>2026-04-25T10:42:30.736Z</time></trkpt><trkpt lat="45.37559" lon="7.5796667"><ele>856.8571428571428</ele><time>2026-04-25T10:42:31.744Z</time></trkpt><trkpt lat="45.3755333" lon="7.5797283"><ele>854.2857142857142</ele><time>2026-04-25T10:42:32.74Z</time></trkpt><trkpt lat="45.3754783" lon="7.5797867"><ele>851.7142857142858</ele><time>2026-04-25T10:42:33.736Z</time></trkpt><trkpt lat="45.3754233" lon="7.5798433"><ele>849.1428571428571</ele><time>2026-04-25T10:42:34.74Z</time></trkpt><trkpt lat="45.3753683" lon="7.5798983"><ele>846.5714285714286</ele><time>2026-04-25T10:42:35.751Z</time></trkpt><trkpt lat="45.375315" lon="7.5799467"><ele>844.0</ele><time>2026-04-25T10:42:36.737Z</time></trkpt><trkpt lat="45.3752167" lon="7.5800267"><ele>842.2</ele><time>2026-04-25T10:42:38.738Z</time></trkpt><trkpt lat="45.37514" lon="7.58015"><ele>840.4000000000001</ele><time>2026-04-25T10:42:40.739Z</time></trkpt><trkpt lat="45.375115" lon="7.580245"><ele>838.6</ele><time>2026-04-25T10:42:41.744Z</time></trkpt><trkpt lat="45.375085" lon="7.5803683"><ele>836.8</ele><time>2026-04-25T10:42:42.737Z</time></trkpt><trkpt lat="45.3750417" lon="7.5805067"><ele>835.0</ele><time>2026-04-25T10:42:43.742Z</time></trkpt><trkpt lat="45.375" lon="7.5806417"><ele>834.0</ele><time>2026-04-25T10:42:44.744Z</time></trkpt><trkpt lat="45.37495" lon="7.580775"><ele>833.0</ele><time>2026-04-25T10:42:45.74Z</time></trkpt><trkpt lat="45.3749017" lon="7.5809017"><ele>832.0</ele><time>2026-04-25T10:42:46.741Z</time></trkpt><trkpt lat="45.3748483" lon="7.581025"><ele>831.0</ele><time>2026-04-25T10:42:47.741Z</time></trkpt><trkpt lat="45.37479" lon="7.58114"><ele>830.0</ele><time>2026-04-25T10:42:48.738Z</time></trkpt><trkpt lat="45.3747317" lon="7.581245"><ele>826.7142857142858</ele><time>2026-04-25T10:42:49.743Z</time></trkpt><trkpt lat="45.374675" lon="7.5813367"><ele>823.4285714285714</ele><time>2026-04-25T10:42:50.741Z</time></trkpt><trkpt lat="45.3746233" lon="7.5814117"><ele>820.1428571428571</ele><time>2026-04-25T10:42:51.739Z</time></trkpt><trkpt lat="45.37457" lon="7.5814733"><ele>816.8571428571429</ele><time>2026-04-25T10:42:52.736Z</time></trkpt><trkpt lat="45.374505" lon="7.581515"><ele>813.5714285714286</ele><time>2026-04-25T10:42:53.741Z</time></trkpt><trkpt lat="45.374435" lon="7.5815367"><ele>810.2857142857143</ele><time>2026-04-25T10:42:54.748Z</time></trkpt><trkpt lat="45.37436" lon="7.581535"><ele>807.0</ele><time>2026-04-25T10:42:55.743Z</time></trkpt><trkpt lat="45.374295" lon="7.5815383"><ele>807.0</ele><time>2026-04-25T10:42:56.737Z</time></trkpt><trkpt lat="45.374205" lon="7.581585"><ele>807.0</ele><time>2026-04-25T10:42:58.739Z</time></trkpt><trkpt lat="45.3741767" lon="7.5817183"><ele>807.0</ele><time>2026-04-25T10:43:00.736Z</time></trkpt><trkpt lat="45.3742467" lon="7.5818517"><ele>807.0</ele><time>2026-04-25T10:43:02.742Z</time></trkpt><trkpt lat="45.3743017" lon="7.5819067"><ele>807.0</ele><time>2026-04-25T10:43:03.74Z</time></trkpt><trkpt lat="45.3743583" lon="7.5819517"><ele>807.0</ele><time>2026-04-25T10:43:04.74Z</time></trkpt><trkpt lat="45.374415" lon="7.5820533"><ele>805.3333333333334</ele><time>2026-04-25T10:43:06.74Z</time></trkpt><trkpt lat="45.3743283" lon="7.5821117"><ele>803.6666666666667</ele><time>2026-04-25T10:43:09.737Z</time></trkpt><trkpt lat="45.3742283" lon="7.5820783"><ele>802.0</ele><time>2026-04-25T10:43:11.736Z</time></trkpt><trkpt lat="45.3741617" lon="7.5820917"><ele>800.3333333333334</ele><time>2026-04-25T10:43:13.738Z</time></trkpt><trkpt lat="45.3741883" lon="7.5822067"><ele>798.6666666666667</ele><time>2026-04-25T10:43:15.74Z</time></trkpt><trkpt lat="45.3742283" lon="7.58229"><ele>797.0</ele><time>2026-04-25T10:43:16.739Z</time></trkpt><trkpt lat="45.3742617" lon="7.5823817"><ele>797.0</ele><time>2026-04-25T10:43:17.743Z</time></trkpt><trkpt lat="45.374295" lon="7.5824683"><ele>797.0</ele><time>2026-04-25T10:43:18.739Z</time></trkpt><trkpt lat="45.374325" lon="7.5825483"><ele>797.0</ele><time>2026-04-25T10:43:19.739Z</time></trkpt><trkpt lat="45.37434" lon="7.5826383"><ele>797.0</ele><time>2026-04-25T10:43:20.736Z</time></trkpt><trkpt lat="45.37429" lon="7.5827417"><ele>797.0</ele><time>2026-04-25T10:43:22.737Z</time></trkpt><trkpt lat="45.374225" lon="7.582745"><ele>797.0</ele><time>2026-04-25T10:43:23.745Z</time></trkpt><trkpt lat="45.3741533" lon="7.5827183"><ele>797.0</ele><time>2026-04-25T10:43:24.738Z</time></trkpt><trkpt lat="45.37408" lon="7.5827033"><ele>797.0</ele><time>2026-04-25T10:43:25.748Z</time></trkpt><trkpt lat="45.3739983" lon="7.5827033"><ele>797.0</ele><time>2026-04-25T10:43:26.742Z</time></trkpt><trkpt lat="45.373915" lon="7.5827433"><ele>797.0</ele><time>2026-04-25T10:43:27.739Z</time></trkpt><trkpt lat="45.3738267" lon="7.5827933"><ele>797.0</ele><time>2026-04-25T10:43:28.738Z</time></trkpt><trkpt lat="45.37374" lon="7.58285"><ele>797.0</ele><time>2026-04-25T10:43:29.745Z</time></trkpt><trkpt lat="45.37366" lon="7.5829133"><ele>793.5714285714286</ele><time>2026-04-25T10:43:30.738Z</time></trkpt><trkpt lat="45.373595" lon="7.5829683"><ele>790.1428571428572</ele><time>2026-04-25T10:43:31.742Z</time></trkpt><trkpt lat="45.3735333" lon="7.5830167"><ele>786.7142857142858</ele><time>2026-04-25T10:43:32.738Z</time></trkpt><trkpt lat="45.3734683" lon="7.5830533"><ele>783.2857142857142</ele><time>2026-04-25T10:43:33.737Z</time></trkpt><trkpt lat="45.373395" lon="7.5830767"><ele>779.8571428571429</ele><time>2026-04-25T10:43:34.738Z</time></trkpt><trkpt lat="45.3733183" lon="7.5830917"><ele>776.4285714285714</ele><time>2026-04-25T10:43:35.745Z</time></trkpt><trkpt lat="45.373245" lon="7.5831"><ele>773.0</ele><time>2026-04-25T10:43:36.743Z</time></trkpt><trkpt lat="45.3731767" lon="7.583115"><ele>773.0</ele><time>2026-04-25T10:43:37.741Z</time></trkpt><trkpt lat="45.37308" lon="7.5831717"><ele>773.0</ele><time>2026-04-25T10:43:39.738Z</time></trkpt><trkpt lat="45.3730917" lon="7.5833183"><ele>773.0</ele><time>2026-04-25T10:43:41.743Z</time></trkpt><trkpt lat="45.37318" lon="7.58344"><ele>773.0</ele><time>2026-04-25T10:43:43.742Z</time></trkpt><trkpt lat="45.3732433" lon="7.5835067"><ele>773.0</ele><time>2026-04-25T10:43:44.739Z</time></trkpt><trkpt lat="45.3733033" lon="7.583585"><ele>773.0000000000001</ele><time>2026-04-25T10:43:45.739Z</time></trkpt><trkpt lat="45.3733583" lon="7.58367"><ele>773.0</ele><time>2026-04-25T10:43:46.74Z</time></trkpt><trkpt lat="45.3734067" lon="7.5837483"><ele>773.0</ele><time>2026-04-25T10:43:47.736Z</time></trkpt><trkpt lat="45.3734533" lon="7.5838917"><ele>773.0</ele><time>2026-04-25T10:43:49.738Z</time></trkpt><trkpt lat="45.3734067" lon="7.583975"><ele>773.0000000000001</ele><time>2026-04-25T10:43:51.74Z</time></trkpt><trkpt lat="45.3733433" lon="7.5839683"><ele>773.0</ele><time>2026-04-25T10:43:52.741Z</time></trkpt><trkpt lat="45.373225" lon="7.5839033"><ele>771.8</ele><time>2026-04-25T10:43:54.739Z</time></trkpt><trkpt lat="45.3731117" lon="7.5838383"><ele>770.5999999999999</ele><time>2026-04-25T10:43:56.747Z</time></trkpt><trkpt lat="45.3730167" lon="7.583885"><ele>769.4000000000001</ele><time>2026-04-25T10:43:58.742Z</time></trkpt><trkpt lat="45.372965" lon="7.584035"><ele>768.2</ele><time>2026-04-25T10:44:00.741Z</time></trkpt><trkpt lat="45.3729367" lon="7.58412"><ele>767.0</ele><time>2026-04-25T10:44:01.741Z</time></trkpt><trkpt lat="45.3728867" lon="7.5841817"><ele>765.5</ele><time>2026-04-25T10:44:02.736Z</time></trkpt><trkpt lat="45.3728267" lon="7.5842283"><ele>764.0</ele><time>2026-04-25T10:44:03.74Z</time></trkpt><trkpt lat="45.3727533" lon="7.58426"><ele>762.5</ele><time>2026-04-25T10:44:04.741Z</time></trkpt><trkpt lat="45.37267" lon="7.584275"><ele>761.0</ele><time>2026-04-25T10:44:05.741Z</time></trkpt><trkpt lat="45.3725817" lon="7.5842783"><ele>759.5</ele><time>2026-04-25T10:44:06.738Z</time></trkpt><trkpt lat="45.3724917" lon="7.5842817"><ele>758.0</ele><time>2026-04-25T10:44:07.741Z</time></trkpt><trkpt lat="45.3724033" lon="7.5842833"><ele>758.0</ele><time>2026-04-25T10:44:08.742Z</time></trkpt><trkpt lat="45.372315" lon="7.5842933"><ele>758.0</ele><time>2026-04-25T10:44:09.74Z</time></trkpt><trkpt lat="45.37223" lon="7.584315"><ele>758.0</ele><time>2026-04-25T10:44:10.742Z</time></trkpt><trkpt lat="45.3721517" lon="7.5843267"><ele>758.0</ele><time>2026-04-25T10:44:11.743Z</time></trkpt><trkpt lat="45.372075" lon="7.5843283"><ele>758.0</ele><time>2026-04-25T10:44:12.74Z</time></trkpt><trkpt lat="45.3719967" lon="7.584325"><ele>758.0</ele><time>2026-04-25T10:44:13.741Z</time></trkpt><trkpt lat="45.3719217" lon="7.5842983"><ele>755.6666666666666</ele><time>2026-04-25T10:44:14.74Z</time></trkpt><trkpt lat="45.3718533" lon="7.5842567"><ele>753.3333333333333</ele><time>2026-04-25T10:44:15.749Z</time></trkpt><trkpt lat="45.3717917" lon="7.5842117"><ele>751.0</ele><time>2026-04-25T10:44:16.738Z</time></trkpt><trkpt lat="45.3717317" lon="7.58417"><ele>748.6666666666666</ele><time>2026-04-25T10:44:17.74Z</time></trkpt><trkpt lat="45.3716333" lon="7.5841017"><ele>746.3333333333334</ele><time>2026-04-25T10:44:19.74Z</time></trkpt><trkpt lat="45.371535" lon="7.5841217"><ele>744.0</ele><time>2026-04-25T10:44:21.743Z</time></trkpt><trkpt lat="45.37148" lon="7.5841783"><ele>744.0</ele><time>2026-04-25T10:44:22.739Z</time></trkpt><trkpt lat="45.3714283" lon="7.5842533"><ele>744.0</ele><time>2026-04-25T10:44:23.738Z</time></trkpt><trkpt lat="45.371395" lon="7.5843367"><ele>744.0</ele><time>2026-04-25T10:44:24.74Z</time></trkpt><trkpt lat="45.371385" lon="7.584505"><ele>744.0</ele><time>2026-04-25T10:44:26.742Z</time></trkpt><trkpt lat="45.3714483" lon="7.5846117"><ele>744.0</ele><time>2026-04-25T10:44:28.737Z</time></trkpt><trkpt lat="45.3715717" lon="7.58467"><ele>742.6666666666666</ele><time>2026-04-25T10:44:30.742Z</time></trkpt><trkpt lat="45.3716383" lon="7.5847017"><ele>741.3333333333334</ele><time>2026-04-25T10:44:31.742Z</time></trkpt><trkpt lat="45.3717133" lon="7.584735"><ele>740.0</ele><time>2026-04-25T10:44:32.744Z</time></trkpt><trkpt lat="45.3717883" lon="7.5847667"><ele>738.6666666666667</ele><time>2026-04-25T10:44:33.739Z</time></trkpt><trkpt lat="45.3718683" lon="7.5848"><ele>737.3333333333334</ele><time>2026-04-25T10:44:34.739Z</time></trkpt><trkpt lat="45.3719517" lon="7.5848333"><ele>736.0</ele><time>2026-04-25T10:44:35.739Z</time></trkpt><trkpt lat="45.37204" lon="7.5848667"><ele>736.0</ele><time>2026-04-25T10:44:36.743Z</time></trkpt><trkpt lat="45.3721317" lon="7.584895"><ele>736.0</ele><time>2026-04-25T10:44:37.742Z</time></trkpt><trkpt lat="45.37222" lon="7.5849283"><ele>736.0</ele><time>2026-04-25T10:44:38.741Z</time></trkpt><trkpt lat="45.3723033" lon="7.58496"><ele>736.0</ele><time>2026-04-25T10:44:39.741Z</time></trkpt><trkpt lat="45.372375" lon="7.585"><ele>736.0</ele><time>2026-04-25T10:44:40.739Z</time></trkpt><trkpt lat="45.3724417" lon="7.5850467"><ele>736.0</ele><time>2026-04-25T10:44:41.743Z</time></trkpt><trkpt lat="45.3725" lon="7.585085"><ele>737.0</ele><time>2026-04-25T10:44:42.739Z</time></trkpt><trkpt lat="45.3726067" lon="7.585105"><ele>738.0</ele><time>2026-04-25T10:44:44.742Z</time></trkpt><trkpt lat="45.3727067" lon="7.5850683"><ele>739.0</ele><time>2026-04-25T10:44:46.742Z</time></trkpt><trkpt lat="45.3728017" lon="7.5851133"><ele>740.0</ele><time>2026-04-25T10:44:48.739Z</time></trkpt><trkpt lat="45.37285" lon="7.5852483"><ele>741.0</ele><time>2026-04-25T10:44:50.741Z</time></trkpt><trkpt lat="45.3728633" lon="7.58534"><ele>737.5999999999999</ele><time>2026-04-25T10:44:51.738Z</time></trkpt><trkpt lat="45.3729167" lon="7.5855"><ele>734.2</ele><time>2026-04-25T10:44:53.742Z</time></trkpt><trkpt lat="45.3729567" lon="7.58557"><ele>730.8</ele><time>2026-04-25T10:44:54.742Z</time></trkpt><trkpt lat="45.37301" lon="7.585725"><ele>727.4000000000001</ele><time>2026-04-25T10:44:56.738Z</time></trkpt><trkpt lat="45.3729683" lon="7.5858883"><ele>724.0</ele><time>2026-04-25T10:44:58.739Z</time></trkpt><trkpt lat="45.372895" lon="7.5860183"><ele>724.0</ele><time>2026-04-25T10:45:00.739Z</time></trkpt><trkpt lat="45.3728217" lon="7.5861317"><ele>724.0</ele><time>2026-04-25T10:45:02.737Z</time></trkpt><trkpt lat="45.3727733" lon="7.586245"><ele>724.0</ele><time>2026-04-25T10:45:04.741Z</time></trkpt><trkpt lat="45.3727483" lon="7.58635"><ele>724.0</ele><time>2026-04-25T10:45:06.744Z</time></trkpt><trkpt lat="45.3727617" lon="7.5864433"><ele>724.0</ele><time>2026-04-25T10:45:08.741Z</time></trkpt><trkpt lat="45.3727817" lon="7.58657"><ele>724.0</ele><time>2026-04-25T10:45:11.738Z</time></trkpt><trkpt lat="45.372795" lon="7.5866683"><ele>723.2</ele><time>2026-04-25T10:45:13.741Z</time></trkpt><trkpt lat="45.3728117" lon="7.58678"><ele>722.4000000000001</ele><time>2026-04-25T10:45:15.742Z</time></trkpt><trkpt lat="45.3728267" lon="7.5868967"><ele>721.6</ele><time>2026-04-25T10:45:17.738Z</time></trkpt><trkpt lat="45.372835" lon="7.5870233"><ele>720.8</ele><time>2026-04-25T10:45:19.742Z</time></trkpt><trkpt lat="45.3728483" lon="7.5871467"><ele>720.0</ele><time>2026-04-25T10:45:21.747Z</time></trkpt><trkpt lat="45.3728867" lon="7.5872967"><ele>719.6</ele><time>2026-04-25T10:45:23.738Z</time></trkpt><trkpt lat="45.3729533" lon="7.587445"><ele>719.2</ele><time>2026-04-25T10:45:25.738Z</time></trkpt><trkpt lat="45.373" lon="7.5875667"><ele>718.8</ele><time>2026-04-25T10:45:27.737Z</time></trkpt><trkpt lat="45.3729733" lon="7.5877017"><ele>718.4</ele><time>2026-04-25T10:45:29.744Z</time></trkpt><trkpt lat="45.3729317" lon="7.5877733"><ele>718.0</ele><time>2026-04-25T10:45:30.743Z</time></trkpt><trkpt lat="45.3728867" lon="7.58785"><ele>717.6666666666667</ele><time>2026-04-25T10:45:31.743Z</time></trkpt><trkpt lat="45.3728417" lon="7.5879333"><ele>717.3333333333334</ele><time>2026-04-25T10:45:32.741Z</time></trkpt><trkpt lat="45.3727967" lon="7.58803"><ele>717.0</ele><time>2026-04-25T10:45:33.741Z</time></trkpt><trkpt lat="45.37275" lon="7.58814"><ele>716.6666666666666</ele><time>2026-04-25T10:45:34.739Z</time></trkpt><trkpt lat="45.3727083" lon="7.5882533"><ele>716.3333333333333</ele><time>2026-04-25T10:45:35.742Z</time></trkpt><trkpt lat="45.3726533" lon="7.588355"><ele>716.0</ele><time>2026-04-25T10:45:36.742Z</time></trkpt><trkpt lat="45.3726067" lon="7.5884667"><ele>716.0</ele><time>2026-04-25T10:45:37.74Z</time></trkpt><trkpt lat="45.37256" lon="7.5885933"><ele>716.0</ele><time>2026-04-25T10:45:38.738Z</time></trkpt><trkpt lat="45.372525" lon="7.588735"><ele>716.0</ele><time>2026-04-25T10:45:39.738Z</time></trkpt><trkpt lat="45.3725067" lon="7.5888867"><ele>716.0</ele><time>2026-04-25T10:45:40.741Z</time></trkpt><trkpt lat="45.3724933" lon="7.589045"><ele>716.0</ele><time>2026-04-25T10:45:41.743Z</time></trkpt><trkpt lat="45.3724683" lon="7.5892"><ele>714.1999999999999</ele><time>2026-04-25T10:45:42.739Z</time></trkpt><trkpt lat="45.3724367" lon="7.58936"><ele>712.4</ele><time>2026-04-25T10:45:43.741Z</time></trkpt><trkpt lat="45.372425" lon="7.5895183"><ele>710.6</ele><time>2026-04-25T10:45:44.742Z</time></trkpt><trkpt lat="45.372435" lon="7.5896267"><ele>708.8</ele><time>2026-04-25T10:45:45.745Z</time></trkpt><trkpt lat="45.3724417" lon="7.5897433"><ele>707.0</ele><time>2026-04-25T10:45:46.738Z</time></trkpt><trkpt lat="45.3724317" lon="7.5898533"><ele>705.5</ele><time>2026-04-25T10:45:47.739Z</time></trkpt><trkpt lat="45.3724083" lon="7.589955"><ele>704.0</ele><time>2026-04-25T10:45:48.74Z</time></trkpt><trkpt lat="45.3723767" lon="7.5900667"><ele>702.5</ele><time>2026-04-25T10:45:49.743Z</time></trkpt><trkpt lat="45.3723383" lon="7.5901833"><ele>701.0</ele><time>2026-04-25T10:45:50.74Z</time></trkpt><trkpt lat="45.372295" lon="7.590305"><ele>699.5</ele><time>2026-04-25T10:45:51.745Z</time></trkpt><trkpt lat="45.372245" lon="7.5904333"><ele>698.0</ele><time>2026-04-25T10:45:52.745Z</time></trkpt><trkpt lat="45.3721833" lon="7.5905617"><ele>696.0</ele><time>2026-04-25T10:45:53.74Z</time></trkpt><trkpt lat="45.3721217" lon="7.5906833"><ele>694.0</ele><time>2026-04-25T10:45:54.739Z</time></trkpt><trkpt lat="45.3720583" lon="7.5908033"><ele>692.0</ele><time>2026-04-25T10:45:55.742Z</time></trkpt><trkpt lat="45.3719983" lon="7.590925"><ele>690.0</ele><time>2026-04-25T10:45:56.74Z</time></trkpt><trkpt lat="45.3719383" lon="7.5910533"><ele>688.0</ele><time>2026-04-25T10:45:57.741Z</time></trkpt><trkpt lat="45.37189" lon="7.5911933"><ele>686.5</ele><time>2026-04-25T10:45:58.741Z</time></trkpt><trkpt lat="45.3718433" lon="7.5913417"><ele>685.0</ele><time>2026-04-25T10:45:59.744Z</time></trkpt><trkpt lat="45.3718017" lon="7.591485"><ele>683.5</ele><time>2026-04-25T10:46:00.743Z</time></trkpt><trkpt lat="45.37174" lon="7.5916317"><ele>682.0</ele><time>2026-04-25T10:46:01.745Z</time></trkpt><trkpt lat="45.37167" lon="7.5917733"><ele>682.0</ele><time>2026-04-25T10:46:02.742Z</time></trkpt><trkpt lat="45.3716017" lon="7.5919067"><ele>682.0</ele><time>2026-04-25T10:46:03.739Z</time></trkpt><trkpt lat="45.3715383" lon="7.59203"><ele>682.0</ele><time>2026-04-25T10:46:04.74Z</time></trkpt><trkpt lat="45.3714717" lon="7.5921483"><ele>682.0</ele><time>2026-04-25T10:46:05.739Z</time></trkpt><trkpt lat="45.37141" lon="7.5922617"><ele>682.0</ele><time>2026-04-25T10:46:06.743Z</time></trkpt><trkpt lat="45.37135" lon="7.5923733"><ele>678.0</ele><time>2026-04-25T10:46:07.742Z</time></trkpt><trkpt lat="45.3713" lon="7.5924917"><ele>674.0</ele><time>2026-04-25T10:46:08.738Z</time></trkpt><trkpt lat="45.3712483" lon="7.5926233"><ele>670.0</ele><time>2026-04-25T10:46:09.737Z</time></trkpt><trkpt lat="45.3712033" lon="7.5927717"><ele>666.0</ele><time>2026-04-25T10:46:10.742Z</time></trkpt><trkpt lat="45.3711683" lon="7.5929117"><ele>662.0</ele><time>2026-04-25T10:46:11.739Z</time></trkpt><trkpt lat="45.3711233" lon="7.59304"><ele>661.5</ele><time>2026-04-25T10:46:12.738Z</time></trkpt><trkpt lat="45.3710783" lon="7.59315"><ele>661.0</ele><time>2026-04-25T10:46:13.74Z</time></trkpt><trkpt lat="45.3710383" lon="7.5932417"><ele>660.5</ele><time>2026-04-25T10:46:14.739Z</time></trkpt><trkpt lat="45.3710017" lon="7.5933217"><ele>660.0</ele><time>2026-04-25T10:46:15.742Z</time></trkpt><trkpt lat="45.3709417" lon="7.5934617"><ele>659.5</ele><time>2026-04-25T10:46:17.743Z</time></trkpt><trkpt lat="45.3708933" lon="7.5935333"><ele>659.0</ele><time>2026-04-25T10:46:19.74Z</time></trkpt><trkpt lat="45.3708317" lon="7.5936383"><ele>659.0</ele><time>2026-04-25T10:46:22.741Z</time></trkpt><trkpt lat="45.3708633" lon="7.5937333"><ele>659.0</ele><time>2026-04-25T10:46:24.738Z</time></trkpt><trkpt lat="45.370975" lon="7.5937267"><ele>659.0</ele><time>2026-04-25T10:46:26.742Z</time></trkpt><trkpt lat="45.371085" lon="7.5936367"><ele>659.0</ele><time>2026-04-25T10:46:28.738Z</time></trkpt><trkpt lat="45.3711433" lon="7.5935817"><ele>659.0</ele><time>2026-04-25T10:46:29.739Z</time></trkpt><trkpt lat="45.371205" lon="7.5935183"><ele>659.0</ele><time>2026-04-25T10:46:30.743Z</time></trkpt><trkpt lat="45.3712683" lon="7.5934517"><ele>659.0</ele><time>2026-04-25T10:46:31.741Z</time></trkpt><trkpt lat="45.3713433" lon="7.5933833"><ele>659.0</ele><time>2026-04-25T10:46:32.746Z</time></trkpt><trkpt lat="45.3714183" lon="7.593325"><ele>659.0</ele><time>2026-04-25T10:46:33.739Z</time></trkpt><trkpt lat="45.371495" lon="7.59327"><ele>659.0</ele><time>2026-04-25T10:46:34.74Z</time></trkpt><trkpt lat="45.371575" lon="7.5932133"><ele>659.0</ele><time>2026-04-25T10:46:35.738Z</time></trkpt><trkpt lat="45.3716583" lon="7.5931633"><ele>659.6666666666666</ele><time>2026-04-25T10:46:36.739Z</time></trkpt><trkpt lat="45.3717383" lon="7.5931117"><ele>660.3333333333333</ele><time>2026-04-25T10:46:37.739Z</time></trkpt><trkpt lat="45.371815" lon="7.5930517"><ele>661.0</ele><time>2026-04-25T10:46:38.739Z</time></trkpt><trkpt lat="45.371885" lon="7.5929917"><ele>661.6666666666666</ele><time>2026-04-25T10:46:39.739Z</time></trkpt><trkpt lat="45.3719517" lon="7.5929433"><ele>662.3333333333334</ele><time>2026-04-25T10:46:40.738Z</time></trkpt><trkpt lat="45.3720283" lon="7.5929"><ele>663.0</ele><time>2026-04-25T10:46:41.742Z</time></trkpt><trkpt lat="45.3721033" lon="7.592855"><ele>663.1666666666666</ele><time>2026-04-25T10:46:42.741Z</time></trkpt><trkpt lat="45.372175" lon="7.5928183"><ele>663.3333333333334</ele><time>2026-04-25T10:46:43.742Z</time></trkpt><trkpt lat="45.3722433" lon="7.5928033"><ele>663.5</ele><time>2026-04-25T10:46:44.739Z</time></trkpt><trkpt lat="45.372315" lon="7.592805"><ele>663.6666666666667</ele><time>2026-04-25T10:46:45.738Z</time></trkpt><trkpt lat="45.3723817" lon="7.5928333"><ele>663.8333333333334</ele><time>2026-04-25T10:46:46.74Z</time></trkpt><trkpt lat="45.3724617" lon="7.5928833"><ele>664.0</ele><time>2026-04-25T10:46:47.737Z</time></trkpt><trkpt lat="45.372535" lon="7.5929617"><ele>661.4000000000001</ele><time>2026-04-25T10:46:48.738Z</time></trkpt><trkpt lat="45.3726117" lon="7.5930333"><ele>658.8</ele><time>2026-04-25T10:46:49.744Z</time></trkpt><trkpt lat="45.37268" lon="7.5931117"><ele>656.2</ele><time>2026-04-25T10:46:50.74Z</time></trkpt><trkpt lat="45.3727383" lon="7.5932067"><ele>653.5999999999999</ele><time>2026-04-25T10:46:51.74Z</time></trkpt><trkpt lat="45.3727867" lon="7.59332"><ele>651.0</ele><time>2026-04-25T10:46:52.742Z</time></trkpt><trkpt lat="45.3728383" lon="7.5934367"><ele>651.0</ele><time>2026-04-25T10:46:53.743Z</time></trkpt><trkpt lat="45.3728983" lon="7.5935233"><ele>651.0</ele><time>2026-04-25T10:46:54.741Z</time></trkpt><trkpt lat="45.372945" lon="7.5936067"><ele>651.0</ele><time>2026-04-25T10:46:55.74Z</time></trkpt><trkpt lat="45.3729867" lon="7.593685"><ele>651.0</ele><time>2026-04-25T10:46:56.737Z</time></trkpt><trkpt lat="45.3730033" lon="7.59386"><ele>651.0</ele><time>2026-04-25T10:46:58.74Z</time></trkpt><trkpt lat="45.37301" lon="7.5940233"><ele>651.1666666666666</ele><time>2026-04-25T10:47:00.742Z</time></trkpt><trkpt lat="45.3730267" lon="7.5941867"><ele>651.3333333333334</ele><time>2026-04-25T10:47:02.739Z</time></trkpt><trkpt lat="45.3730717" lon="7.5943383"><ele>651.5</ele><time>2026-04-25T10:47:04.741Z</time></trkpt><trkpt lat="45.3731033" lon="7.5944167"><ele>651.6666666666667</ele><time>2026-04-25T10:47:05.743Z</time></trkpt><trkpt lat="45.3731367" lon="7.594505"><ele>651.8333333333334</ele><time>2026-04-25T10:47:06.743Z</time></trkpt><trkpt lat="45.3731617" lon="7.5945967"><ele>652.0</ele><time>2026-04-25T10:47:07.739Z</time></trkpt><trkpt lat="45.373175" lon="7.5946967"><ele>652.0</ele><time>2026-04-25T10:47:08.744Z</time></trkpt><trkpt lat="45.3731783" lon="7.5947883"><ele>652.0</ele><time>2026-04-25T10:47:09.74Z</time></trkpt><trkpt lat="45.373175" lon="7.5949583"><ele>652.0</ele><time>2026-04-25T10:47:11.746Z</time></trkpt><trkpt lat="45.3731767" lon="7.595115"><ele>652.0</ele><time>2026-04-25T10:47:13.742Z</time></trkpt><trkpt lat="45.3731683" lon="7.5952683"><ele>652.0</ele><time>2026-04-25T10:47:15.741Z</time></trkpt><trkpt lat="45.373165" lon="7.5954017"><ele>651.8</ele><time>2026-04-25T10:47:17.736Z</time></trkpt><trkpt lat="45.373165" lon="7.595535"><ele>651.6</ele><time>2026-04-25T10:47:19.74Z</time></trkpt><trkpt lat="45.3731633" lon="7.5956683"><ele>651.4</ele><time>2026-04-25T10:47:21.739Z</time></trkpt><trkpt lat="45.3731567" lon="7.5957967"><ele>651.1999999999999</ele><time>2026-04-25T10:47:23.739Z</time></trkpt><trkpt lat="45.3731617" lon="7.5959233"><ele>651.0</ele><time>2026-04-25T10:47:25.743Z</time></trkpt><trkpt lat="45.3731783" lon="7.5960433"><ele>651.0</ele><time>2026-04-25T10:47:27.74Z</time></trkpt><trkpt lat="45.3732" lon="7.596155"><ele>651.0</ele><time>2026-04-25T10:47:29.741Z</time></trkpt><trkpt lat="45.3732367" lon="7.596255"><ele>651.0</ele><time>2026-04-25T10:47:31.741Z</time></trkpt><trkpt lat="45.37324" lon="7.59635"><ele>651.0</ele><time>2026-04-25T10:47:33.741Z</time></trkpt><trkpt lat="45.37323" lon="7.5964617"><ele>651.0</ele><time>2026-04-25T10:47:35.738Z</time></trkpt><trkpt lat="45.3732117" lon="7.5965633"><ele>651.0</ele><time>2026-04-25T10:47:37.74Z</time></trkpt><trkpt lat="45.37319" lon="7.5966583"><ele>650.5999999999999</ele><time>2026-04-25T10:47:39.738Z</time></trkpt><trkpt lat="45.373185" lon="7.5967583"><ele>650.2</ele><time>2026-04-25T10:47:41.745Z</time></trkpt><trkpt lat="45.3731817" lon="7.596875"><ele>649.8</ele><time>2026-04-25T10:47:43.746Z</time></trkpt><trkpt lat="45.373175" lon="7.5970017"><ele>649.4000000000001</ele><time>2026-04-25T10:47:45.741Z</time></trkpt><trkpt lat="45.37318" lon="7.59715"><ele>649.0</ele><time>2026-04-25T10:47:47.74Z</time></trkpt><trkpt lat="45.3731967" lon="7.59731"><ele>648.6666666666667</ele><time>2026-04-25T10:47:49.74Z</time></trkpt><trkpt lat="45.3732233" lon="7.5974817"><ele>648.3333333333334</ele><time>2026-04-25T10:47:51.742Z</time></trkpt><trkpt lat="45.3732383" lon="7.59757"><ele>648.0</ele><time>2026-04-25T10:47:52.742Z</time></trkpt><trkpt lat="45.373255" lon="7.597665"><ele>647.6666666666666</ele><time>2026-04-25T10:47:53.743Z</time></trkpt><trkpt lat="45.3732667" lon="7.59776"><ele>647.3333333333333</ele><time>2026-04-25T10:47:54.742Z</time></trkpt><trkpt lat="45.3732633" lon="7.59786"><ele>647.0</ele><time>2026-04-25T10:47:55.741Z</time></trkpt><trkpt lat="45.3732433" lon="7.5979683"><ele>645.8333333333333</ele><time>2026-04-25T10:47:56.742Z</time></trkpt><trkpt lat="45.3732133" lon="7.5980733"><ele>644.6666666666666</ele><time>2026-04-25T10:47:57.741Z</time></trkpt><trkpt lat="45.37319" lon="7.598175"><ele>643.5</ele><time>2026-04-25T10:47:58.739Z</time></trkpt><trkpt lat="45.373165" lon="7.5982833"><ele>642.3333333333334</ele><time>2026-04-25T10:47:59.739Z</time></trkpt><trkpt lat="45.3731433" lon="7.5983867"><ele>641.1666666666667</ele><time>2026-04-25T10:48:00.741Z</time></trkpt><trkpt lat="45.373125" lon="7.5984883"><ele>640.0</ele><time>2026-04-25T10:48:01.74Z</time></trkpt><trkpt lat="45.37311" lon="7.598595"><ele>639.0</ele><time>2026-04-25T10:48:02.742Z</time></trkpt><trkpt lat="45.373115" lon="7.5987083"><ele>638.0</ele><time>2026-04-25T10:48:03.741Z</time></trkpt><trkpt lat="45.3731267" lon="7.5988267"><ele>637.0</ele><time>2026-04-25T10:48:04.74Z</time></trkpt><trkpt lat="45.3731417" lon="7.5989467"><ele>636.0</ele><time>2026-04-25T10:48:05.74Z</time></trkpt><trkpt lat="45.3731583" lon="7.5990667"><ele>635.0</ele><time>2026-04-25T10:48:06.741Z</time></trkpt><trkpt lat="45.373175" lon="7.5991867"><ele>634.0</ele><time>2026-04-25T10:48:07.744Z</time></trkpt><trkpt lat="45.3731817" lon="7.59932"><ele>634.0</ele><time>2026-04-25T10:48:08.739Z</time></trkpt><trkpt lat="45.37318" lon="7.5994483"><ele>634.0</ele><time>2026-04-25T10:48:09.749Z</time></trkpt><trkpt lat="45.3731717" lon="7.5995783"><ele>634.0</ele><time>2026-04-25T10:48:10.738Z</time></trkpt><trkpt lat="45.3731633" lon="7.5996967"><ele>634.0</ele><time>2026-04-25T10:48:11.74Z</time></trkpt><trkpt lat="45.3731467" lon="7.59982"><ele>634.0</ele><time>2026-04-25T10:48:12.741Z</time></trkpt><trkpt lat="45.373115" lon="7.5999383"><ele>634.0</ele><time>2026-04-25T10:48:13.739Z</time></trkpt><trkpt lat="45.373075" lon="7.6000267"><ele>633.4</ele><time>2026-04-25T10:48:14.742Z</time></trkpt><trkpt lat="45.373035" lon="7.6000967"><ele>632.8</ele><time>2026-04-25T10:48:15.741Z</time></trkpt><trkpt lat="45.37307" lon="7.6001933"><ele>632.2</ele><time>2026-04-25T10:48:18.74Z</time></trkpt><trkpt lat="45.3731567" lon="7.6000883"><ele>631.6</ele><time>2026-04-25T10:48:20.741Z</time></trkpt><trkpt lat="45.3732133" lon="7.5999483"><ele>631.0</ele><time>2026-04-25T10:48:22.742Z</time></trkpt><trkpt lat="45.3732467" lon="7.5997833"><ele>631.0</ele><time>2026-04-25T10:48:24.741Z</time></trkpt><trkpt lat="45.3732617" lon="7.599695"><ele>631.0</ele><time>2026-04-25T10:48:25.739Z</time></trkpt><trkpt lat="45.3732833" lon="7.5996083"><ele>631.0</ele><time>2026-04-25T10:48:26.741Z</time></trkpt><trkpt lat="45.3733067" lon="7.59952"><ele>631.0</ele><time>2026-04-25T10:48:27.739Z</time></trkpt><trkpt lat="45.37333" lon="7.59943"><ele>631.0</ele><time>2026-04-25T10:48:28.745Z</time></trkpt><trkpt lat="45.373355" lon="7.59934"><ele>631.0</ele><time>2026-04-25T10:48:29.738Z</time></trkpt><trkpt lat="45.373385" lon="7.5992483"><ele>631.0</ele><time>2026-04-25T10:48:30.743Z</time></trkpt><trkpt lat="45.3734217" lon="7.5991617"><ele>631.5</ele><time>2026-04-25T10:48:31.742Z</time></trkpt><trkpt lat="45.3734667" lon="7.5990783"><ele>632.0</ele><time>2026-04-25T10:48:32.739Z</time></trkpt><trkpt lat="45.3735183" lon="7.598995"><ele>632.5</ele><time>2026-04-25T10:48:33.743Z</time></trkpt><trkpt lat="45.3735717" lon="7.5989083"><ele>633.0</ele><time>2026-04-25T10:48:34.741Z</time></trkpt><trkpt lat="45.3736283" lon="7.5988233"><ele>633.5</ele><time>2026-04-25T10:48:35.739Z</time></trkpt><trkpt lat="45.3736883" lon="7.5987383"><ele>634.0</ele><time>2026-04-25T10:48:36.739Z</time></trkpt><trkpt lat="45.37375" lon="7.598655"><ele>634.5</ele><time>2026-04-25T10:48:37.741Z</time></trkpt><trkpt lat="45.3738067" lon="7.5985717"><ele>635.0</ele><time>2026-04-25T10:48:38.742Z</time></trkpt><trkpt lat="45.373865" lon="7.5985083"><ele>635.5</ele><time>2026-04-25T10:48:39.741Z</time></trkpt><trkpt lat="45.3739333" lon="7.59847"><ele>636.0</ele><time>2026-04-25T10:48:40.739Z</time></trkpt><trkpt lat="45.3740083" lon="7.5984617"><ele>636.5</ele><time>2026-04-25T10:48:41.739Z</time></trkpt><trkpt lat="45.3740817" lon="7.59848"><ele>637.0</ele><time>2026-04-25T10:48:42.736Z</time></trkpt><trkpt lat="45.374175" lon="7.5985983"><ele>635.3333333333334</ele><time>2026-04-25T10:48:44.74Z</time></trkpt><trkpt lat="45.374195" lon="7.5986933"><ele>633.6666666666667</ele><time>2026-04-25T10:48:45.738Z</time></trkpt><trkpt lat="45.3742067" lon="7.5988083"><ele>632.0</ele><time>2026-04-25T10:48:46.748Z</time></trkpt><trkpt lat="45.374215" lon="7.5989217"><ele>630.3333333333334</ele><time>2026-04-25T10:48:47.746Z</time></trkpt><trkpt lat="45.3742233" lon="7.599035"><ele>628.6666666666666</ele><time>2026-04-25T10:48:48.742Z</time></trkpt><trkpt lat="45.3742317" lon="7.5991483"><ele>627.0</ele><time>2026-04-25T10:48:49.741Z</time></trkpt><trkpt lat="45.37423" lon="7.5992667"><ele>627.0</ele><time>2026-04-25T10:48:50.74Z</time></trkpt><trkpt lat="45.3742183" lon="7.5993867"><ele>627.0</ele><time>2026-04-25T10:48:51.742Z</time></trkpt><trkpt lat="45.3742117" lon="7.5995083"><ele>627.0</ele><time>2026-04-25T10:48:52.739Z</time></trkpt><trkpt lat="45.374215" lon="7.59963"><ele>627.0</ele><time>2026-04-25T10:48:53.741Z</time></trkpt><trkpt lat="45.3742283" lon="7.59975"><ele>627.0</ele><time>2026-04-25T10:48:54.743Z</time></trkpt><trkpt lat="45.37425" lon="7.5998733"><ele>627.0</ele><time>2026-04-25T10:48:55.742Z</time></trkpt><trkpt lat="45.37427" lon="7.5999983"><ele>626.6</ele><time>2026-04-25T10:48:56.746Z</time></trkpt><trkpt lat="45.3742883" lon="7.6001267"><ele>626.2</ele><time>2026-04-25T10:48:57.743Z</time></trkpt><trkpt lat="45.3743067" lon="7.6002567"><ele>625.8</ele><time>2026-04-25T10:48:58.743Z</time></trkpt><trkpt lat="45.3743133" lon="7.6003867"><ele>625.4</ele><time>2026-04-25T10:48:59.741Z</time></trkpt><trkpt lat="45.37431" lon="7.600515"><ele>625.0</ele><time>2026-04-25T10:49:00.742Z</time></trkpt><trkpt lat="45.3742967" lon="7.6006433"><ele>624.2</ele><time>2026-04-25T10:49:01.739Z</time></trkpt><trkpt lat="45.374285" lon="7.6007717"><ele>623.4</ele><time>2026-04-25T10:49:02.741Z</time></trkpt><trkpt lat="45.3742833" lon="7.6009"><ele>622.6</ele><time>2026-04-25T10:49:03.739Z</time></trkpt><trkpt lat="45.37428" lon="7.6010367"><ele>621.8</ele><time>2026-04-25T10:49:04.741Z</time></trkpt><trkpt lat="45.3742783" lon="7.60117"><ele>621.0</ele><time>2026-04-25T10:49:05.741Z</time></trkpt><trkpt lat="45.374275" lon="7.601305"><ele>620.0</ele><time>2026-04-25T10:49:06.742Z</time></trkpt><trkpt lat="45.3742717" lon="7.6014383"><ele>619.0</ele><time>2026-04-25T10:49:07.74Z</time></trkpt><trkpt lat="45.3742667" lon="7.6015633"><ele>618.0</ele><time>2026-04-25T10:49:08.744Z</time></trkpt><trkpt lat="45.3742683" lon="7.6016833"><ele>617.0</ele><time>2026-04-25T10:49:09.74Z</time></trkpt><trkpt lat="45.3742783" lon="7.6018083"><ele>616.0</ele><time>2026-04-25T10:49:10.743Z</time></trkpt><trkpt lat="45.3743017" lon="7.6019217"><ele>615.0</ele><time>2026-04-25T10:49:11.74Z</time></trkpt><trkpt lat="45.3743267" lon="7.6020383"><ele>614.0</ele><time>2026-04-25T10:49:12.739Z</time></trkpt><trkpt lat="45.3743533" lon="7.602155"><ele>613.0</ele><time>2026-04-25T10:49:13.749Z</time></trkpt><trkpt lat="45.3743733" lon="7.602275"><ele>612.0</ele><time>2026-04-25T10:49:14.74Z</time></trkpt><trkpt lat="45.374395" lon="7.6023983"><ele>611.0</ele><time>2026-04-25T10:49:15.742Z</time></trkpt><trkpt lat="45.374425" lon="7.6025133"><ele>610.0</ele><time>2026-04-25T10:49:16.74Z</time></trkpt><trkpt lat="45.374455" lon="7.60262"><ele>609.0</ele><time>2026-04-25T10:49:17.74Z</time></trkpt><trkpt lat="45.3744967" lon="7.6027217"><ele>609.0</ele><time>2026-04-25T10:49:18.744Z</time></trkpt><trkpt lat="45.3745383" lon="7.6028183"><ele>609.0</ele><time>2026-04-25T10:49:19.745Z</time></trkpt><trkpt lat="45.3745817" lon="7.6029167"><ele>609.0</ele><time>2026-04-25T10:49:20.743Z</time></trkpt><trkpt lat="45.3746283" lon="7.6030133"><ele>609.0</ele><time>2026-04-25T10:49:21.741Z</time></trkpt><trkpt lat="45.3746767" lon="7.6031083"><ele>609.0</ele><time>2026-04-25T10:49:22.741Z</time></trkpt><trkpt lat="45.3747233" lon="7.6032067"><ele>609.0</ele><time>2026-04-25T10:49:23.741Z</time></trkpt><trkpt lat="45.3747667" lon="7.603305"><ele>609.0</ele><time>2026-04-25T10:49:24.743Z</time></trkpt><trkpt lat="45.374805" lon="7.603405"><ele>609.0</ele><time>2026-04-25T10:49:25.742Z</time></trkpt><trkpt lat="45.3748467" lon="7.6035117"><ele>609.0</ele><time>2026-04-25T10:49:26.741Z</time></trkpt><trkpt lat="45.3748867" lon="7.6036233"><ele>609.0</ele><time>2026-04-25T10:49:27.743Z</time></trkpt><trkpt lat="45.3749283" lon="7.6037333"><ele>609.0</ele><time>2026-04-25T10:49:28.742Z</time></trkpt><trkpt lat="45.374975" lon="7.603835"><ele>609.0</ele><time>2026-04-25T10:49:29.751Z</time></trkpt><trkpt lat="45.3750283" lon="7.603915"><ele>609.0</ele><time>2026-04-25T10:49:30.743Z</time></trkpt><trkpt lat="45.375085" lon="7.6039717"><ele>609.0</ele><time>2026-04-25T10:49:31.743Z</time></trkpt><trkpt lat="45.3751417" lon="7.6040117"><ele>609.0</ele><time>2026-04-25T10:49:32.741Z</time></trkpt><trkpt lat="45.3752067" lon="7.6039883"><ele>609.0</ele><time>2026-04-25T10:49:33.742Z</time></trkpt><trkpt lat="45.3752633" lon="7.603935"><ele>609.0</ele><time>2026-04-25T10:49:34.741Z</time></trkpt><trkpt lat="45.375305" lon="7.60386"><ele>609.0</ele><time>2026-04-25T10:49:35.738Z</time></trkpt><trkpt lat="45.3753167" lon="7.6037583"><ele>609.0</ele><time>2026-04-25T10:49:36.742Z</time></trkpt><trkpt lat="45.37533" lon="7.603655"><ele>609.0</ele><time>2026-04-25T10:49:37.743Z</time></trkpt><trkpt lat="45.3753667" lon="7.60357"><ele>609.0</ele><time>2026-04-25T10:49:38.743Z</time></trkpt><trkpt lat="45.375465" lon="7.60355"><ele>609.0</ele><time>2026-04-25T10:49:40.738Z</time></trkpt><trkpt lat="45.375515" lon="7.6036983"><ele>609.0</ele><time>2026-04-25T10:49:42.739Z</time></trkpt><trkpt lat="45.3755017" lon="7.6038783"><ele>609.0</ele><time>2026-04-25T10:49:44.741Z</time></trkpt><trkpt lat="45.37549" lon="7.6039667"><ele>607.8333333333334</ele><time>2026-04-25T10:49:45.741Z</time></trkpt><trkpt lat="45.3754583" lon="7.6041133"><ele>606.6666666666666</ele><time>2026-04-25T10:49:47.742Z</time></trkpt><trkpt lat="45.375415" lon="7.604215"><ele>605.5</ele><time>2026-04-25T10:49:49.741Z</time></trkpt><trkpt lat="45.3753617" lon="7.6042967"><ele>604.3333333333333</ele><time>2026-04-25T10:49:51.741Z</time></trkpt><trkpt lat="45.375295" lon="7.604375"><ele>603.1666666666666</ele><time>2026-04-25T10:49:53.739Z</time></trkpt><trkpt lat="45.37524" lon="7.604465"><ele>602.0</ele><time>2026-04-25T10:49:55.736Z</time></trkpt><trkpt lat="45.3752083" lon="7.6045717"><ele>601.0</ele><time>2026-04-25T10:49:57.741Z</time></trkpt><trkpt lat="45.3751767" lon="7.6046817"><ele>600.0</ele><time>2026-04-25T10:49:59.742Z</time></trkpt><trkpt lat="45.3751283" lon="7.6047933"><ele>599.0</ele><time>2026-04-25T10:50:01.745Z</time></trkpt><trkpt lat="45.3750767" lon="7.6048933"><ele>598.0</ele><time>2026-04-25T10:50:03.74Z</time></trkpt><trkpt lat="45.37504" lon="7.6050033"><ele>597.0</ele><time>2026-04-25T10:50:05.742Z</time></trkpt><trkpt lat="45.375025" lon="7.6051217"><ele>596.0</ele><time>2026-04-25T10:50:07.742Z</time></trkpt><trkpt lat="45.3750117" lon="7.6052667"><ele>594.6</ele><time>2026-04-25T10:50:09.74Z</time></trkpt><trkpt lat="45.3750033" lon="7.6054217"><ele>593.2</ele><time>2026-04-25T10:50:11.74Z</time></trkpt><trkpt lat="45.3750117" lon="7.6055783"><ele>591.8</ele><time>2026-04-25T10:50:13.743Z</time></trkpt><trkpt lat="45.3750533" lon="7.605755"><ele>590.4</ele><time>2026-04-25T10:50:15.741Z</time></trkpt><trkpt lat="45.37508" lon="7.6058417"><ele>589.0</ele><time>2026-04-25T10:50:16.74Z</time></trkpt><trkpt lat="45.3751167" lon="7.60593"><ele>589.0</ele><time>2026-04-25T10:50:17.739Z</time></trkpt><trkpt lat="45.3751567" lon="7.6060233"><ele>589.0</ele><time>2026-04-25T10:50:18.741Z</time></trkpt><trkpt lat="45.375195" lon="7.6061217"><ele>589.0</ele><time>2026-04-25T10:50:19.741Z</time></trkpt><trkpt lat="45.375225" lon="7.6062267"><ele>589.0</ele><time>2026-04-25T10:50:20.74Z</time></trkpt><trkpt lat="45.3752617" lon="7.606335"><ele>589.0</ele><time>2026-04-25T10:50:21.739Z</time></trkpt><trkpt lat="45.3752967" lon="7.606445"><ele>589.0</ele><time>2026-04-25T10:50:22.736Z</time></trkpt><trkpt lat="45.3753333" lon="7.6065567"><ele>586.8</ele><time>2026-04-25T10:50:23.738Z</time></trkpt><trkpt lat="45.3753683" lon="7.6066733"><ele>584.5999999999999</ele><time>2026-04-25T10:50:24.741Z</time></trkpt><trkpt lat="45.3754117" lon="7.6067917"><ele>582.4</ele><time>2026-04-25T10:50:25.745Z</time></trkpt><trkpt lat="45.3754583" lon="7.6069067"><ele>580.1999999999999</ele><time>2026-04-25T10:50:26.742Z</time></trkpt><trkpt lat="45.3755133" lon="7.6070167"><ele>578.0</ele><time>2026-04-25T10:50:27.742Z</time></trkpt><trkpt lat="45.3755783" lon="7.607115"><ele>577.6666666666666</ele><time>2026-04-25T10:50:28.742Z</time></trkpt><trkpt lat="45.3756517" lon="7.6072"><ele>577.3333333333333</ele><time>2026-04-25T10:50:29.739Z</time></trkpt><trkpt lat="45.375735" lon="7.607265"><ele>577.0</ele><time>2026-04-25T10:50:30.744Z</time></trkpt><trkpt lat="45.3758217" lon="7.607305"><ele>576.6666666666666</ele><time>2026-04-25T10:50:31.743Z</time></trkpt><trkpt lat="45.375905" lon="7.60732"><ele>576.3333333333334</ele><time>2026-04-25T10:50:32.745Z</time></trkpt><trkpt lat="45.3759883" lon="7.6073183"><ele>576.0</ele><time>2026-04-25T10:50:33.743Z</time></trkpt><trkpt lat="45.3760567" lon="7.60725"><ele>576.0</ele><time>2026-04-25T10:50:34.743Z</time></trkpt><trkpt lat="45.3761117" lon="7.6071533"><ele>576.0</ele><time>2026-04-25T10:50:35.743Z</time></trkpt><trkpt lat="45.3761483" lon="7.6070533"><ele>576.0</ele><time>2026-04-25T10:50:36.738Z</time></trkpt><trkpt lat="45.3761817" lon="7.6069583"><ele>576.0</ele><time>2026-04-25T10:50:37.74Z</time></trkpt><trkpt lat="45.3762567" lon="7.606825"><ele>576.0</ele><time>2026-04-25T10:50:39.743Z</time></trkpt><trkpt lat="45.37635" lon="7.6069017"><ele>577.4285714285714</ele><time>2026-04-25T10:50:41.742Z</time></trkpt><trkpt lat="45.3763867" lon="7.60698"><ele>578.8571428571429</ele><time>2026-04-25T10:50:42.741Z</time></trkpt><trkpt lat="45.3764033" lon="7.6070733"><ele>580.2857142857142</ele><time>2026-04-25T10:50:43.743Z</time></trkpt><trkpt lat="45.3764067" lon="7.6071733"><ele>581.7142857142858</ele><time>2026-04-25T10:50:44.741Z</time></trkpt><trkpt lat="45.3764083" lon="7.60728"><ele>583.1428571428571</ele><time>2026-04-25T10:50:45.738Z</time></trkpt><trkpt lat="45.37641" lon="7.6073867"><ele>584.5714285714286</ele><time>2026-04-25T10:50:46.74Z</time></trkpt><trkpt lat="45.3764183" lon="7.6075"><ele>586.0</ele><time>2026-04-25T10:50:47.742Z</time></trkpt><trkpt lat="45.3764183" lon="7.607615"><ele>586.0</ele><time>2026-04-25T10:50:48.746Z</time></trkpt><trkpt lat="45.3764" lon="7.6077333"><ele>586.0</ele><time>2026-04-25T10:50:49.745Z</time></trkpt><trkpt lat="45.376365" lon="7.6078483"><ele>586.0</ele><time>2026-04-25T10:50:50.738Z</time></trkpt><trkpt lat="45.3763333" lon="7.6079617"><ele>586.0</ele><time>2026-04-25T10:50:51.74Z</time></trkpt><trkpt lat="45.3763217" lon="7.6080867"><ele>586.0</ele><time>2026-04-25T10:50:52.74Z</time></trkpt><trkpt lat="45.3763317" lon="7.60821"><ele>586.0</ele><time>2026-04-25T10:50:53.743Z</time></trkpt><trkpt lat="45.3763633" lon="7.60833"><ele>584.4</ele><time>2026-04-25T10:50:54.743Z</time></trkpt><trkpt lat="45.3764" lon="7.608455"><ele>582.8</ele><time>2026-04-25T10:50:55.741Z</time></trkpt><trkpt lat="45.376425" lon="7.6085883"><ele>581.1999999999999</ele><time>2026-04-25T10:50:56.744Z</time></trkpt><trkpt lat="45.3764367" lon="7.6087283"><ele>579.6</ele><time>2026-04-25T10:50:57.741Z</time></trkpt><trkpt lat="45.3764517" lon="7.608865"><ele>578.0</ele><time>2026-04-25T10:50:58.739Z</time></trkpt><trkpt lat="45.3764733" lon="7.6090017"><ele>576.0</ele><time>2026-04-25T10:50:59.741Z</time></trkpt><trkpt lat="45.3765083" lon="7.6091383"><ele>574.0</ele><time>2026-04-25T10:51:00.74Z</time></trkpt><trkpt lat="45.3765533" lon="7.6092767"><ele>572.0</ele><time>2026-04-25T10:51:01.744Z</time></trkpt><trkpt lat="45.3765933" lon="7.6094233"><ele>570.0</ele><time>2026-04-25T10:51:02.74Z</time></trkpt><trkpt lat="45.3766267" lon="7.609575"><ele>568.0</ele><time>2026-04-25T10:51:03.745Z</time></trkpt><trkpt lat="45.3766567" lon="7.6097283"><ele>566.25</ele><time>2026-04-25T10:51:04.742Z</time></trkpt><trkpt lat="45.3766883" lon="7.6098867"><ele>564.5</ele><time>2026-04-25T10:51:05.742Z</time></trkpt><trkpt lat="45.3767217" lon="7.610045"><ele>562.75</ele><time>2026-04-25T10:51:06.743Z</time></trkpt><trkpt lat="45.37676" lon="7.610195"><ele>561.0</ele><time>2026-04-25T10:51:07.743Z</time></trkpt><trkpt lat="45.3768017" lon="7.61034"><ele>559.6</ele><time>2026-04-25T10:51:08.744Z</time></trkpt><trkpt lat="45.37684" lon="7.6104817"><ele>558.2</ele><time>2026-04-25T10:51:09.742Z</time></trkpt><trkpt lat="45.3768683" lon="7.6106217"><ele>556.8</ele><time>2026-04-25T10:51:10.742Z</time></trkpt><trkpt lat="45.3768917" lon="7.6107533"><ele>555.4</ele><time>2026-04-25T10:51:11.741Z</time></trkpt><trkpt lat="45.3769117" lon="7.61087"><ele>554.0</ele><time>2026-04-25T10:51:12.741Z</time></trkpt><trkpt lat="45.3769267" lon="7.610965"><ele>554.0</ele><time>2026-04-25T10:51:13.741Z</time></trkpt><trkpt lat="45.376945" lon="7.61111"><ele>554.0</ele><time>2026-04-25T10:51:15.743Z</time></trkpt><trkpt lat="45.3768767" lon="7.611125"><ele>554.0</ele><time>2026-04-25T10:51:17.743Z</time></trkpt><trkpt lat="45.376805" lon="7.61101"><ele>554.0</ele><time>2026-04-25T10:51:19.745Z</time></trkpt><trkpt lat="45.3767267" lon="7.6108683"><ele>554.0</ele><time>2026-04-25T10:51:21.738Z</time></trkpt><trkpt lat="45.376685" lon="7.6107933"><ele>554.0</ele><time>2026-04-25T10:51:22.741Z</time></trkpt><trkpt lat="45.3766383" lon="7.6107183"><ele>554.0</ele><time>2026-04-25T10:51:23.742Z</time></trkpt><trkpt lat="45.3765783" lon="7.6106517"><ele>554.0</ele><time>2026-04-25T10:51:24.74Z</time></trkpt><trkpt lat="45.37651" lon="7.6106033"><ele>554.0</ele><time>2026-04-25T10:51:25.745Z</time></trkpt><trkpt lat="45.376435" lon="7.61057"><ele>554.0</ele><time>2026-04-25T10:51:26.742Z</time></trkpt><trkpt lat="45.37635" lon="7.6105617"><ele>554.0</ele><time>2026-04-25T10:51:27.74Z</time></trkpt><trkpt lat="45.3762667" lon="7.6105567"><ele>554.3333333333333</ele><time>2026-04-25T10:51:28.741Z</time></trkpt><trkpt lat="45.376185" lon="7.6105567"><ele>554.6666666666666</ele><time>2026-04-25T10:51:29.742Z</time></trkpt><trkpt lat="45.3761033" lon="7.6105683"><ele>555.0</ele><time>2026-04-25T10:51:30.745Z</time></trkpt><trkpt lat="45.3760267" lon="7.6106033"><ele>555.3333333333334</ele><time>2026-04-25T10:51:31.742Z</time></trkpt><trkpt lat="45.3759583" lon="7.6106717"><ele>555.6666666666667</ele><time>2026-04-25T10:51:32.744Z</time></trkpt><trkpt lat="45.3759017" lon="7.61076"><ele>556.0</ele><time>2026-04-25T10:51:33.738Z</time></trkpt><trkpt lat="45.37585" lon="7.610865"><ele>556.0</ele><time>2026-04-25T10:51:34.739Z</time></trkpt><trkpt lat="45.3758117" lon="7.610965"><ele>556.0</ele><time>2026-04-25T10:51:35.742Z</time></trkpt><trkpt lat="45.3757783" lon="7.6110617"><ele>556.0</ele><time>2026-04-25T10:51:36.743Z</time></trkpt><trkpt lat="45.3757467" lon="7.6111567"><ele>556.0</ele><time>2026-04-25T10:51:37.742Z</time></trkpt><trkpt lat="45.37571" lon="7.611245"><ele>556.0</ele><time>2026-04-25T10:51:38.741Z</time></trkpt><trkpt lat="45.3756633" lon="7.6113233"><ele>556.0</ele><time>2026-04-25T10:51:39.742Z</time></trkpt><trkpt lat="45.3756133" lon="7.6113817"><ele>556.0</ele><time>2026-04-25T10:51:40.743Z</time></trkpt><trkpt lat="45.3755167" lon="7.61148"><ele>556.4</ele><time>2026-04-25T10:51:42.744Z</time></trkpt><trkpt lat="45.3754367" lon="7.6115917"><ele>556.8</ele><time>2026-04-25T10:51:44.741Z</time></trkpt><trkpt lat="45.375385" lon="7.6117333"><ele>557.1999999999999</ele><time>2026-04-25T10:51:46.74Z</time></trkpt><trkpt lat="45.37537" lon="7.6118817"><ele>557.6</ele><time>2026-04-25T10:51:48.74Z</time></trkpt><trkpt lat="45.3753767" lon="7.6120167"><ele>558.0</ele><time>2026-04-25T10:51:50.749Z</time></trkpt><trkpt lat="45.3753917" lon="7.6121433"><ele>558.0</ele><time>2026-04-25T10:51:52.744Z</time></trkpt><trkpt lat="45.3754067" lon="7.612265"><ele>558.0</ele><time>2026-04-25T10:51:54.739Z</time></trkpt><trkpt lat="45.3754183" lon="7.6123917"><ele>558.0</ele><time>2026-04-25T10:51:56.738Z</time></trkpt><trkpt lat="45.3753883" lon="7.6125133"><ele>558.0</ele><time>2026-04-25T10:51:58.745Z</time></trkpt><trkpt lat="45.3753067" lon="7.61257"><ele>558.0</ele><time>2026-04-25T10:52:00.739Z</time></trkpt><trkpt lat="45.3752083" lon="7.61258"><ele>558.0</ele><time>2026-04-25T10:52:02.742Z</time></trkpt><trkpt lat="45.3751017" lon="7.6125667"><ele>558.0</ele><time>2026-04-25T10:52:04.748Z</time></trkpt><trkpt lat="45.374995" lon="7.6125517"><ele>558.0</ele><time>2026-04-25T10:52:06.744Z</time></trkpt><trkpt lat="45.3748883" lon="7.6125517"><ele>558.0</ele><time>2026-04-25T10:52:08.743Z</time></trkpt><trkpt lat="45.37478" lon="7.6125683"><ele>558.0</ele><time>2026-04-25T10:52:10.742Z</time></trkpt><trkpt lat="45.3746733" lon="7.6126233"><ele>558.25</ele><time>2026-04-25T10:52:12.742Z</time></trkpt><trkpt lat="45.3745717" lon="7.6127017"><ele>558.5</ele><time>2026-04-25T10:52:14.742Z</time></trkpt><trkpt lat="45.3744783" lon="7.612785"><ele>558.75</ele><time>2026-04-25T10:52:16.742Z</time></trkpt><trkpt lat="45.3743783" lon="7.6128767"><ele>559.0</ele><time>2026-04-25T10:52:18.745Z</time></trkpt><trkpt lat="45.3742683" lon="7.6129533"><ele>555.75</ele><time>2026-04-25T10:52:20.744Z</time></trkpt><trkpt lat="45.3741517" lon="7.6129983"><ele>552.5</ele><time>2026-04-25T10:52:22.743Z</time></trkpt><trkpt lat="45.374035" lon="7.6130083"><ele>549.25</ele><time>2026-04-25T10:52:24.74Z</time></trkpt><trkpt lat="45.373925" lon="7.6130067"><ele>546.0</ele><time>2026-04-25T10:52:26.74Z</time></trkpt><trkpt lat="45.3738" lon="7.6130317"><ele>545.2</ele><time>2026-04-25T10:52:28.741Z</time></trkpt><trkpt lat="45.373675" lon="7.61303"><ele>544.4000000000001</ele><time>2026-04-25T10:52:30.743Z</time></trkpt><trkpt lat="45.3736117" lon="7.613015"><ele>543.6</ele><time>2026-04-25T10:52:31.748Z</time></trkpt><trkpt lat="45.3735467" lon="7.61301"><ele>542.8000000000001</ele><time>2026-04-25T10:52:32.741Z</time></trkpt><trkpt lat="45.3734317" lon="7.612995"><ele>542.0</ele><time>2026-04-25T10:52:34.741Z</time></trkpt><trkpt lat="45.37331" lon="7.6129583"><ele>542.0</ele><time>2026-04-25T10:52:36.742Z</time></trkpt><trkpt lat="45.3732017" lon="7.61288"><ele>542.0</ele><time>2026-04-25T10:52:38.739Z</time></trkpt><trkpt lat="45.3731567" lon="7.6128167"><ele>542.0</ele><time>2026-04-25T10:52:39.739Z</time></trkpt><trkpt lat="45.3731267" lon="7.6127333"><ele>542.0</ele><time>2026-04-25T10:52:40.74Z</time></trkpt><trkpt lat="45.3731017" lon="7.612645"><ele>542.0</ele><time>2026-04-25T10:52:41.743Z</time></trkpt><trkpt lat="45.37307" lon="7.6125617"><ele>542.0</ele><time>2026-04-25T10:52:42.746Z</time></trkpt><trkpt lat="45.37303" lon="7.6124867"><ele>541.8571428571429</ele><time>2026-04-25T10:52:43.747Z</time></trkpt><trkpt lat="45.3729867" lon="7.612415"><ele>541.7142857142858</ele><time>2026-04-25T10:52:44.741Z</time></trkpt><trkpt lat="45.3729433" lon="7.6123467"><ele>541.5714285714287</ele><time>2026-04-25T10:52:45.744Z</time></trkpt><trkpt lat="45.3728983" lon="7.61228"><ele>541.4285714285714</ele><time>2026-04-25T10:52:46.742Z</time></trkpt><trkpt lat="45.3728533" lon="7.6122133"><ele>541.2857142857143</ele><time>2026-04-25T10:52:47.741Z</time></trkpt><trkpt lat="45.3728067" lon="7.6121483"><ele>541.1428571428572</ele><time>2026-04-25T10:52:48.741Z</time></trkpt><trkpt lat="45.3727567" lon="7.61209"><ele>541.0</ele><time>2026-04-25T10:52:49.743Z</time></trkpt><trkpt lat="45.3726567" lon="7.61199"><ele>543.4</ele><time>2026-04-25T10:52:51.744Z</time></trkpt><trkpt lat="45.3726033" lon="7.6119417"><ele>545.8</ele><time>2026-04-25T10:52:52.74Z</time></trkpt><trkpt lat="45.3725067" lon="7.611855"><ele>548.1999999999999</ele><time>2026-04-25T10:52:54.744Z</time></trkpt><trkpt lat="45.372455" lon="7.6118033"><ele>550.6</ele><time>2026-04-25T10:52:55.743Z</time></trkpt><trkpt lat="45.372365" lon="7.61168"><ele>553.0</ele><time>2026-04-25T10:52:57.745Z</time></trkpt><trkpt lat="45.372295" lon="7.6115333"><ele>553.0</ele><time>2026-04-25T10:52:59.743Z</time></trkpt><trkpt lat="45.3722567" lon="7.6113683"><ele>553.0</ele><time>2026-04-25T10:53:01.742Z</time></trkpt><trkpt lat="45.3722417" lon="7.61128"><ele>553.0</ele><time>2026-04-25T10:53:02.742Z</time></trkpt><trkpt lat="45.3722267" lon="7.6111917"><ele>553.0</ele><time>2026-04-25T10:53:03.743Z</time></trkpt><trkpt lat="45.3722067" lon="7.611105"><ele>553.0</ele><time>2026-04-25T10:53:04.741Z</time></trkpt><trkpt lat="45.37215" lon="7.610945"><ele>553.0</ele><time>2026-04-25T10:53:06.742Z</time></trkpt><trkpt lat="45.3720767" lon="7.6107983"><ele>554.1428571428571</ele><time>2026-04-25T10:53:08.739Z</time></trkpt><trkpt lat="45.3720333" lon="7.610725"><ele>555.2857142857142</ele><time>2026-04-25T10:53:09.75Z</time></trkpt><trkpt lat="45.37199" lon="7.6106583"><ele>556.4285714285714</ele><time>2026-04-25T10:53:10.738Z</time></trkpt><trkpt lat="45.3719467" lon="7.6105867"><ele>557.5714285714286</ele><time>2026-04-25T10:53:11.743Z</time></trkpt><trkpt lat="45.3719" lon="7.610515"><ele>558.7142857142857</ele><time>2026-04-25T10:53:12.743Z</time></trkpt><trkpt lat="45.371855" lon="7.6104367"><ele>559.8571428571429</ele><time>2026-04-25T10:53:13.741Z</time></trkpt><trkpt lat="45.3718067" lon="7.61036"><ele>561.0</ele><time>2026-04-25T10:53:14.74Z</time></trkpt><trkpt lat="45.3717517" lon="7.6102867"><ele>561.0</ele><time>2026-04-25T10:53:15.742Z</time></trkpt><trkpt lat="45.37169" lon="7.6102233"><ele>561.0</ele><time>2026-04-25T10:53:16.74Z</time></trkpt><trkpt lat="45.3716217" lon="7.6101683"><ele>561.0</ele><time>2026-04-25T10:53:17.742Z</time></trkpt><trkpt lat="45.3715483" lon="7.6101233"><ele>561.0</ele><time>2026-04-25T10:53:18.741Z</time></trkpt><trkpt lat="45.3714683" lon="7.6100933"><ele>561.0</ele><time>2026-04-25T10:53:19.745Z</time></trkpt><trkpt lat="45.3713867" lon="7.61008"><ele>561.0</ele><time>2026-04-25T10:53:20.742Z</time></trkpt><trkpt lat="45.3713" lon="7.610075"><ele>559.1666666666666</ele><time>2026-04-25T10:53:21.743Z</time></trkpt><trkpt lat="45.3712183" lon="7.61006"><ele>557.3333333333334</ele><time>2026-04-25T10:53:22.742Z</time></trkpt><trkpt lat="45.3711333" lon="7.61004"><ele>555.5</ele><time>2026-04-25T10:53:23.741Z</time></trkpt><trkpt lat="45.3710533" lon="7.6100183"><ele>553.6666666666667</ele><time>2026-04-25T10:53:24.741Z</time></trkpt><trkpt lat="45.3709783" lon="7.6100083"><ele>551.8333333333334</ele><time>2026-04-25T10:53:25.744Z</time></trkpt><trkpt lat="45.3709033" lon="7.6100483"><ele>550.0</ele><time>2026-04-25T10:53:26.74Z</time></trkpt><trkpt lat="45.3708433" lon="7.610105"><ele>550.0</ele><time>2026-04-25T10:53:27.741Z</time></trkpt><trkpt lat="45.3708" lon="7.61018"><ele>550.0</ele><time>2026-04-25T10:53:28.739Z</time></trkpt><trkpt lat="45.3707917" lon="7.6103533"><ele>550.0</ele><time>2026-04-25T10:53:30.741Z</time></trkpt><trkpt lat="45.3708367" lon="7.6105117"><ele>550.0</ele><time>2026-04-25T10:53:32.743Z</time></trkpt><trkpt lat="45.3708967" lon="7.6106433"><ele>550.0</ele><time>2026-04-25T10:53:34.738Z</time></trkpt><trkpt lat="45.370955" lon="7.6107733"><ele>550.6666666666667</ele><time>2026-04-25T10:53:36.741Z</time></trkpt><trkpt lat="45.371005" lon="7.6108883"><ele>551.3333333333334</ele><time>2026-04-25T10:53:38.743Z</time></trkpt><trkpt lat="45.3710467" lon="7.6109967"><ele>552.0</ele><time>2026-04-25T10:53:40.742Z</time></trkpt><trkpt lat="45.371075" lon="7.6111033"><ele>552.6666666666666</ele><time>2026-04-25T10:53:42.741Z</time></trkpt><trkpt lat="45.3711" lon="7.6112067"><ele>553.3333333333333</ele><time>2026-04-25T10:53:44.74Z</time></trkpt><trkpt lat="45.37111" lon="7.6113133"><ele>554.0</ele><time>2026-04-25T10:53:46.743Z</time></trkpt><trkpt lat="45.37112" lon="7.6114217"><ele>555.0</ele><time>2026-04-25T10:53:48.743Z</time></trkpt><trkpt lat="45.371115" lon="7.6115283"><ele>556.0</ele><time>2026-04-25T10:53:50.74Z</time></trkpt><trkpt lat="45.371085" lon="7.61164"><ele>557.0</ele><time>2026-04-25T10:53:52.743Z</time></trkpt><trkpt lat="45.3710583" lon="7.6117483"><ele>558.0</ele><time>2026-04-25T10:53:54.742Z</time></trkpt><trkpt lat="45.3710383" lon="7.611855"><ele>559.0</ele><time>2026-04-25T10:53:56.739Z</time></trkpt><trkpt lat="45.371025" lon="7.6119567"><ele>560.0</ele><time>2026-04-25T10:53:58.743Z</time></trkpt><trkpt lat="45.3710217" lon="7.6120667"><ele>560.6666666666666</ele><time>2026-04-25T10:54:00.745Z</time></trkpt><trkpt lat="45.371025" lon="7.6121733"><ele>561.3333333333333</ele><time>2026-04-25T10:54:02.743Z</time></trkpt><trkpt lat="45.371025" lon="7.61228"><ele>562.0</ele><time>2026-04-25T10:54:04.738Z</time></trkpt><trkpt lat="45.3710367" lon="7.61239"><ele>562.6666666666666</ele><time>2026-04-25T10:54:06.742Z</time></trkpt><trkpt lat="45.371055" lon="7.612505"><ele>563.3333333333334</ele><time>2026-04-25T10:54:08.738Z</time></trkpt><trkpt lat="45.3710833" lon="7.61261"><ele>564.0</ele><time>2026-04-25T10:54:10.738Z</time></trkpt><trkpt lat="45.3711083" lon="7.61272"><ele>564.1666666666666</ele><time>2026-04-25T10:54:12.747Z</time></trkpt><trkpt lat="45.3711283" lon="7.6128283"><ele>564.3333333333334</ele><time>2026-04-25T10:54:14.74Z</time></trkpt><trkpt lat="45.3711533" lon="7.612945"><ele>564.5</ele><time>2026-04-25T10:54:16.74Z</time></trkpt><trkpt lat="45.3711717" lon="7.6130683"><ele>564.6666666666667</ele><time>2026-04-25T10:54:18.743Z</time></trkpt><trkpt lat="45.37119" lon="7.6131933"><ele>564.8333333333334</ele><time>2026-04-25T10:54:20.743Z</time></trkpt><trkpt lat="45.3712" lon="7.6133183"><ele>565.0</ele><time>2026-04-25T10:54:22.736Z</time></trkpt><trkpt lat="45.3712117" lon="7.6134433"><ele>565.0</ele><time>2026-04-25T10:54:24.741Z</time></trkpt><trkpt lat="45.3712217" lon="7.6135683"><ele>565.0</ele><time>2026-04-25T10:54:26.744Z</time></trkpt><trkpt lat="45.371215" lon="7.6137033"><ele>565.0</ele><time>2026-04-25T10:54:28.742Z</time></trkpt><trkpt lat="45.371195" lon="7.6138383"><ele>565.0</ele><time>2026-04-25T10:54:30.746Z</time></trkpt><trkpt lat="45.3711783" lon="7.613975"><ele>565.0</ele><time>2026-04-25T10:54:32.743Z</time></trkpt><trkpt lat="45.3711567" lon="7.6141133"><ele>563.8</ele><time>2026-04-25T10:54:34.744Z</time></trkpt><trkpt lat="45.371145" lon="7.614275"><ele>562.6</ele><time>2026-04-25T10:54:36.744Z</time></trkpt><trkpt lat="45.371125" lon="7.6144467"><ele>561.4</ele><time>2026-04-25T10:54:38.743Z</time></trkpt><trkpt lat="45.3711017" lon="7.6146183"><ele>560.2</ele><time>2026-04-25T10:54:40.743Z</time></trkpt><trkpt lat="45.37109" lon="7.6147067"><ele>559.0</ele><time>2026-04-25T10:54:41.742Z</time></trkpt><trkpt lat="45.3710717" lon="7.6148783"><ele>559.2</ele><time>2026-04-25T10:54:43.745Z</time></trkpt><trkpt lat="45.3710617" lon="7.615045"><ele>559.4</ele><time>2026-04-25T10:54:45.743Z</time></trkpt><trkpt lat="45.3710767" lon="7.6151967"><ele>559.6</ele><time>2026-04-25T10:54:47.737Z</time></trkpt><trkpt lat="45.3711117" lon="7.6153333"><ele>559.8</ele><time>2026-04-25T10:54:49.744Z</time></trkpt><trkpt lat="45.3711467" lon="7.6154617"><ele>560.0</ele><time>2026-04-25T10:54:51.742Z</time></trkpt><trkpt lat="45.3711833" lon="7.6155817"><ele>560.0</ele><time>2026-04-25T10:54:53.744Z</time></trkpt><trkpt lat="45.37122" lon="7.6156883"><ele>560.0</ele><time>2026-04-25T10:54:55.744Z</time></trkpt><trkpt lat="45.3712433" lon="7.61579"><ele>560.0</ele><time>2026-04-25T10:54:57.743Z</time></trkpt><trkpt lat="45.3712667" lon="7.6158917"><ele>560.0</ele><time>2026-04-25T10:54:59.744Z</time></trkpt><trkpt lat="45.37127" lon="7.6160083"><ele>560.0</ele><time>2026-04-25T10:55:01.737Z</time></trkpt><trkpt lat="45.3711883" lon="7.616085"><ele>560.0</ele><time>2026-04-25T10:55:03.742Z</time></trkpt><trkpt lat="45.37111" lon="7.6160183"><ele>560.0</ele><time>2026-04-25T10:55:05.743Z</time></trkpt><trkpt lat="45.371055" lon="7.615915"><ele>560.0</ele><time>2026-04-25T10:55:07.742Z</time></trkpt><trkpt lat="45.37101" lon="7.615835"><ele>560.0</ele><time>2026-04-25T10:55:09.743Z</time></trkpt><trkpt lat="45.3709717" lon="7.6157533"><ele>560.0</ele><time>2026-04-25T10:55:11.741Z</time></trkpt><trkpt lat="45.370935" lon="7.6156583"><ele>560.0</ele><time>2026-04-25T10:55:13.744Z</time></trkpt><trkpt lat="45.3709017" lon="7.6155683"><ele>560.0</ele><time>2026-04-25T10:55:15.742Z</time></trkpt><trkpt lat="45.3708733" lon="7.6154833"><ele>560.0</ele><time>2026-04-25T10:55:17.745Z</time></trkpt><trkpt lat="45.3708483" lon="7.6153983"><ele>559.5</ele><time>2026-04-25T10:55:19.74Z</time></trkpt><trkpt lat="45.3708183" lon="7.6153167"><ele>559.0</ele><time>2026-04-25T10:55:21.743Z</time></trkpt><trkpt lat="45.370775" lon="7.6152333"><ele>558.5</ele><time>2026-04-25T10:55:23.742Z</time></trkpt><trkpt lat="45.3707283" lon="7.6151633"><ele>558.0</ele><time>2026-04-25T10:55:25.747Z</time></trkpt><trkpt lat="45.3706567" lon="7.6150883"><ele>557.5</ele><time>2026-04-25T10:55:28.744Z</time></trkpt><trkpt lat="45.3705633" lon="7.615065"><ele>557.0</ele><time>2026-04-25T10:55:31.746Z</time></trkpt><trkpt lat="45.3704983" lon="7.6150717"><ele>558.2857142857143</ele><time>2026-04-25T10:55:33.742Z</time></trkpt><trkpt lat="45.3704317" lon="7.6150783"><ele>559.5714285714286</ele><time>2026-04-25T10:55:35.742Z</time></trkpt><trkpt lat="45.3703667" lon="7.6150817"><ele>560.8571428571429</ele><time>2026-04-25T10:55:37.742Z</time></trkpt><trkpt lat="45.3703017" lon="7.6151"><ele>562.1428571428571</ele><time>2026-04-25T10:55:39.743Z</time></trkpt><trkpt lat="45.3702333" lon="7.615135"><ele>563.4285714285714</ele><time>2026-04-25T10:55:41.739Z</time></trkpt><trkpt lat="45.3701717" lon="7.61519"><ele>564.7142857142858</ele><time>2026-04-25T10:55:43.744Z</time></trkpt><trkpt lat="45.3701167" lon="7.6152383"><ele>566.0</ele><time>2026-04-25T10:55:45.739Z</time></trkpt><trkpt lat="45.3700567" lon="7.6152733"><ele>567.0</ele><time>2026-04-25T10:55:48.744Z</time></trkpt><trkpt lat="45.369995" lon="7.6153433"><ele>568.0</ele><time>2026-04-25T10:55:55.744Z</time></trkpt><trkpt lat="45.3699283" lon="7.6153733"><ele>569.0</ele><time>2026-04-25T10:55:58.742Z</time></trkpt><trkpt lat="45.3698717" lon="7.615425"><ele>570.0</ele><time>2026-04-25T10:56:00.743Z</time></trkpt><trkpt lat="45.3698117" lon="7.6154733"><ele>571.0</ele><time>2026-04-25T10:56:02.737Z</time></trkpt><trkpt lat="45.36975" lon="7.615515"><ele>572.0</ele><time>2026-04-25T10:56:04.744Z</time></trkpt><trkpt lat="45.369695" lon="7.61556"><ele>573.0</ele><time>2026-04-25T10:56:06.742Z</time></trkpt><trkpt lat="45.36962" lon="7.6156183"><ele>573.6666666666666</ele><time>2026-04-25T10:56:09.739Z</time></trkpt><trkpt lat="45.3695467" lon="7.6156633"><ele>574.3333333333334</ele><time>2026-04-25T10:56:12.743Z</time></trkpt><trkpt lat="45.3694833" lon="7.6156967"><ele>575.0</ele><time>2026-04-25T10:56:15.737Z</time></trkpt><trkpt lat="45.36942" lon="7.615725"><ele>575.6666666666667</ele><time>2026-04-25T10:56:19.739Z</time></trkpt><trkpt lat="45.3693533" lon="7.615815"><ele>576.3333333333334</ele><time>2026-04-25T10:56:24.743Z</time></trkpt><trkpt lat="45.3692833" lon="7.61587"><ele>577.0</ele><time>2026-04-25T10:56:27.745Z</time></trkpt><trkpt lat="45.3692183" lon="7.6158833"><ele>577.0</ele><time>2026-04-25T10:56:30.737Z</time></trkpt><trkpt lat="45.36915" lon="7.615935"><ele>577.0</ele><time>2026-04-25T10:56:33.744Z</time></trkpt><trkpt lat="45.3690833" lon="7.6160083"><ele>577.0</ele><time>2026-04-25T10:56:36.742Z</time></trkpt><trkpt lat="45.3690033" lon="7.6160733"><ele>577.0</ele><time>2026-04-25T10:56:39.74Z</time></trkpt><trkpt lat="45.368935" lon="7.6161233"><ele>577.0</ele><time>2026-04-25T10:56:42.746Z</time></trkpt><trkpt lat="45.3688717" lon="7.616175"><ele>577.0</ele><time>2026-04-25T10:56:46.745Z</time></trkpt><trkpt lat="45.3688117" lon="7.6162067"><ele>579.0</ele><time>2026-04-25T10:56:49.741Z</time></trkpt><trkpt lat="45.36874" lon="7.6162617"><ele>581.0</ele><time>2026-04-25T10:56:52.746Z</time></trkpt><trkpt lat="45.3686667" lon="7.6163017"><ele>583.0</ele><time>2026-04-25T10:56:55.744Z</time></trkpt><trkpt lat="45.3686017" lon="7.616335"><ele>585.0</ele><time>2026-04-25T10:56:58.738Z</time></trkpt><trkpt lat="45.3685283" lon="7.616375"><ele>587.0</ele><time>2026-04-25T10:57:01.745Z</time></trkpt><trkpt lat="45.368465" lon="7.6164167"><ele>589.0</ele><time>2026-04-25T10:57:04.739Z</time></trkpt><trkpt lat="45.3684" lon="7.6164517"><ele>591.0</ele><time>2026-04-25T10:57:07.748Z</time></trkpt><trkpt lat="45.3683383" lon="7.61649"><ele>591.0</ele><time>2026-04-25T10:57:10.739Z</time></trkpt><trkpt lat="45.3682733" lon="7.6165433"><ele>591.0</ele><time>2026-04-25T10:57:13.743Z</time></trkpt><trkpt lat="45.36821" lon="7.616585"><ele>591.0</ele><time>2026-04-25T10:57:16.745Z</time></trkpt><trkpt lat="45.3681383" lon="7.6166383"><ele>591.0</ele><time>2026-04-25T10:57:20.744Z</time></trkpt><trkpt lat="45.3680767" lon="7.6166883"><ele>591.0</ele><time>2026-04-25T10:57:23.746Z</time></trkpt><trkpt lat="45.3680017" lon="7.6167267"><ele>591.0</ele><time>2026-04-25T10:57:26.738Z</time></trkpt><trkpt lat="45.3679317" lon="7.6167733"><ele>591.5</ele><time>2026-04-25T10:57:29.744Z</time></trkpt><trkpt lat="45.367845" lon="7.6168267"><ele>592.0</ele><time>2026-04-25T10:57:32.737Z</time></trkpt><trkpt lat="45.36778" lon="7.6168483"><ele>592.5</ele><time>2026-04-25T10:57:34.737Z</time></trkpt><trkpt lat="45.3676983" lon="7.616815"><ele>593.0</ele><time>2026-04-25T10:57:36.743Z</time></trkpt><trkpt lat="45.367645" lon="7.616735"><ele>593.5</ele><time>2026-04-25T10:57:38.739Z</time></trkpt><trkpt lat="45.3676117" lon="7.6166483"><ele>594.0</ele><time>2026-04-25T10:57:40.741Z</time></trkpt><trkpt lat="45.3675633" lon="7.6165617"><ele>594.0</ele><time>2026-04-25T10:57:42.742Z</time></trkpt><trkpt lat="45.367525" lon="7.6164683"><ele>594.0</ele><time>2026-04-25T10:57:44.74Z</time></trkpt><trkpt lat="45.3674933" lon="7.616375"><ele>594.0</ele><time>2026-04-25T10:57:46.743Z</time></trkpt><trkpt lat="45.3674717" lon="7.6162833"><ele>594.0</ele><time>2026-04-25T10:57:48.737Z</time></trkpt><trkpt lat="45.3674783" lon="7.6161867"><ele>594.0</ele><time>2026-04-25T10:57:50.744Z</time></trkpt><trkpt lat="45.367495" lon="7.6161"><ele>594.0</ele><time>2026-04-25T10:57:52.746Z</time></trkpt><trkpt lat="45.3674783" lon="7.616005"><ele>594.0</ele><time>2026-04-25T10:57:55.738Z</time></trkpt><trkpt lat="45.3674583" lon="7.6158983"><ele>591.0</ele><time>2026-04-25T10:57:58.746Z</time></trkpt><trkpt lat="45.3673717" lon="7.6159633"><ele>591.0</ele><time>2026-04-25T10:58:43.738Z</time></trkpt></trkseg></trk></gpx>